[[{"header":{"parameterUnit":"m.s-1","parameterCategory":1,"la1":30.6,"la2":29.2853,"lo1":-89.7004,"lo2":-87.6739,"dy":0.0162,"dx":0.0183,"nx":112,"ny":82,"refTime":"2023-06-07T06:00:00:Z","depth":0,"parameterNumber":2,"parameterNumberName":"U-component_of_WINDS"},"data":[0.0,0.0,0.0,0.0,0.0,0.0,0.0,0.0,0.0,0.0,0.0,0.0,0.0,0.0,0.0,0.0,0.0,0.0,0.0,0.0,0.0,0.0,0.0,0.0,0.0,0.0,0.0,0.0,0.0,0.0,0.0,0.0,0.0,0.0,0.0,0.0,0.0,0.0,0.0,0.0,0.0,0.0,0.0,0.0,0.0,0.0,0.0,0.0,0.0,0.0,0.0,0.0,0.0,0.0,0.0,0.0,0.0,0.0,0.0,0.0,0.0,0.0,0.0,0.0,0.0,0.0,0.0,0.0,0.0,0.0,0.0,0.0,0.0,0.0,0.0,0.0,0.0,0.0,0.0,0.0,0.0,0.0,0.0,0.0,0.0,0.0,0.0,0.0,0.0,0.0,-4.3522,-4.3598,-4.3598,-4.3598,-4.3598,-4.3598,-4.3598,-4.3598,0.0,0.0,0.0,0.0,0.0,0.0,0.0,0.0,0.0,0.0,0.0,0.0,0.0,0.0,0.0,0.0,0.0,0.0,0.0,0.0,0.0,0.0,0.0,0.0,0.0,0.0,0.0,0.0,0.0,0.0,0.0,0.0,0.0,0.0,0.0,0.0,0.0,0.0,0.0,0.0,0.0,0.0,0.0,0.0,0.0,0.0,0.0,0.0,0.0,0.0,0.0,0.0,0.0,0.0,0.0,0.0,0.0,0.0,0.0,0.0,0.0,0.0,0.0,0.0,0.0,0.0,0.0,0.0,0.0,0.0,0.0,0.0,0.0,0.0,0.0,0.0,0.0,0.0,0.0,0.0,0.0,0.0,0.0,0.0,0.0,0.0,0.0,0.0,0.0,0.0,0.0,0.0,0.0,0.0,0.0,0.0,0.0,0.0,0.0,0.0,0.0,0.0,0.0,0.0,-4.3265,-4.3568,-4.3598,-4.3598,-4.3598,-4.3598,-4.3598,-4.3598,0.0,0.0,0.0,0.0,0.0,0.0,0.0,0.0,0.0,0.0,0.0,0.0,0.0,0.0,0.0,0.0,0.0,0.0,0.0,0.0,0.0,0.0,0.0,0.0,0.0,0.0,0.0,0.0,0.0,0.0,0.0,0.0,0.0,0.0,0.0,0.0,0.0,0.0,0.0,0.0,0.0,0.0,0.0,0.0,0.0,0.0,0.0,0.0,0.0,0.0,0.0,0.0,0.0,0.0,0.0,0.0,0.0,0.0,0.0,0.0,0.0,0.0,0.0,0.0,0.0,0.0,0.0,0.0,0.0,0.0,0.0,0.0,0.0,0.0,0.0,0.0,0.0,0.0,0.0,0.0,0.0,0.0,0.0,0.0,0.0,0.0,0.0,0.0,0.0,0.0,0.0,0.0,0.0,0.0,0.0,0.0,0.0,0.0,0.0,0.0,0.0,0.0,0.0,-4.3113,-4.3235,-4.3552,-4.3598,-4.3598,-4.3598,-4.3598,-4.3598,-4.3598,-4.3598,0.0,0.0,0.0,0.0,0.0,0.0,0.0,0.0,0.0,0.0,0.0,0.0,0.0,0.0,0.0,0.0,0.0,0.0,0.0,0.0,0.0,0.0,0.0,0.0,0.0,0.0,0.0,0.0,0.0,0.0,0.0,0.0,0.0,0.0,0.0,0.0,0.0,0.0,0.0,0.0,0.0,0.0,0.0,0.0,0.0,0.0,0.0,0.0,0.0,0.0,0.0,0.0,0.0,0.0,0.0,0.0,0.0,0.0,0.0,0.0,0.0,0.0,0.0,0.0,0.0,0.0,0.0,0.0,0.0,0.0,0.0,0.0,0.0,0.0,0.0,0.0,0.0,0.0,0.0,0.0,0.0,0.0,0.0,0.0,0.0,0.0,0.0,0.0,0.0,0.0,0.0,0.0,0.0,0.0,0.0,0.0,0.0,0.0,0.0,0.0,0.0,0.0,-4.3113,-4.3312,-4.3568,-4.3598,-4.3598,-4.3598,-4.3598,-4.3598,-4.3598,-4.3598,0.0,0.0,0.0,0.0,0.0,0.0,0.0,0.0,0.0,0.0,0.0,0.0,0.0,0.0,0.0,0.0,0.0,0.0,0.0,0.0,0.0,0.0,0.0,0.0,0.0,0.0,0.0,0.0,0.0,0.0,0.0,0.0,0.0,0.0,0.0,0.0,0.0,0.0,0.0,0.0,0.0,0.0,0.0,0.0,0.0,0.0,0.0,0.0,0.0,0.0,0.0,0.0,0.0,0.0,0.0,0.0,0.0,0.0,0.0,0.0,0.0,0.0,0.0,0.0,0.0,0.0,0.0,0.0,0.0,0.0,0.0,0.0,0.0,0.0,0.0,0.0,0.0,0.0,0.0,0.0,0.0,0.0,0.0,0.0,0.0,0.0,0.0,0.0,0.0,0.0,0.0,0.0,0.0,0.0,0.0,0.0,0.0,0.0,0.0,0.0,0.0,0.0,-4.319,-4.3568,-4.3598,-4.3598,-4.3598,-4.3598,-4.3598,-4.3598,-4.3598,-4.3598,0.0,0.0,0.0,0.0,0.0,0.0,0.0,0.0,0.0,0.0,0.0,0.0,0.0,0.0,0.0,0.0,0.0,0.0,0.0,0.0,0.0,0.0,0.0,0.0,0.0,0.0,0.0,0.0,0.0,0.0,0.0,0.0,0.0,0.0,0.0,0.0,0.0,0.0,0.0,0.0,0.0,0.0,0.0,0.0,0.0,0.0,0.0,0.0,0.0,0.0,0.0,0.0,0.0,0.0,0.0,0.0,0.0,0.0,0.0,0.0,0.0,0.0,0.0,0.0,0.0,0.0,0.0,0.0,0.0,0.0,0.0,0.0,0.0,0.0,0.0,0.0,0.0,0.0,0.0,0.0,0.0,0.0,0.0,0.0,0.0,0.0,0.0,0.0,0.0,0.0,0.0,0.0,0.0,0.0,0.0,0.0,0.0,0.0,0.0,0.0,0.0,0.0,-4.4026,-4.4426,-4.4646,-4.4863,-4.4894,-4.4677,-4.4847,-4.4696,-4.4005,0.0,0.0,0.0,0.0,0.0,0.0,0.0,0.0,0.0,0.0,0.0,0.0,0.0,0.0,0.0,0.0,0.0,0.0,0.0,0.0,0.0,0.0,0.0,0.0,0.0,0.0,0.0,0.0,0.0,0.0,0.0,0.0,0.0,0.0,0.0,0.0,0.0,0.0,0.0,0.0,0.0,0.0,0.0,0.0,0.0,0.0,0.0,0.0,0.0,0.0,0.0,0.0,0.0,0.0,0.0,0.0,0.0,0.0,0.0,0.0,0.0,0.0,0.0,0.0,0.0,0.0,0.0,0.0,0.0,0.0,0.0,0.0,0.0,0.0,0.0,0.0,0.0,0.0,0.0,0.0,0.0,0.0,0.0,0.0,0.0,0.0,0.0,0.0,0.0,0.0,0.0,0.0,0.0,0.0,0.0,0.0,0.0,0.0,0.0,0.0,0.0,0.0,-4.409,-4.4539,-4.4853,0.0,-4.5419,-4.5546,-4.5323,-4.5515,-4.5364,-4.4761,0.0,0.0,0.0,0.0,0.0,0.0,0.0,0.0,0.0,0.0,0.0,0.0,0.0,0.0,0.0,0.0,0.0,0.0,0.0,0.0,0.0,0.0,0.0,0.0,0.0,0.0,0.0,0.0,0.0,0.0,0.0,0.0,0.0,0.0,0.0,0.0,0.0,0.0,0.0,0.0,0.0,0.0,0.0,0.0,0.0,0.0,0.0,0.0,0.0,0.0,0.0,0.0,0.0,0.0,0.0,0.0,0.0,0.0,0.0,0.0,0.0,0.0,0.0,0.0,0.0,0.0,0.0,0.0,0.0,0.0,0.0,0.0,0.0,0.0,0.0,0.0,0.0,0.0,0.0,0.0,0.0,0.0,0.0,0.0,0.0,0.0,0.0,0.0,0.0,0.0,0.0,0.0,0.0,0.0,0.0,0.0,0.0,0.0,0.0,0.0,0.0,0.0,-4.4219,-4.4522,-4.4721,-4.4721,-4.5082,-4.5308,-4.5308,-4.5308,-4.5468,0.0,0.0,0.0,0.0,0.0,0.0,0.0,0.0,0.0,0.0,0.0,0.0,0.0,0.0,0.0,0.0,0.0,0.0,0.0,0.0,0.0,0.0,0.0,0.0,0.0,0.0,0.0,0.0,0.0,0.0,0.0,0.0,0.0,0.0,0.0,0.0,0.0,0.0,0.0,0.0,0.0,0.0,0.0,0.0,0.0,0.0,0.0,0.0,0.0,0.0,0.0,0.0,0.0,0.0,0.0,0.0,0.0,0.0,0.0,0.0,0.0,0.0,0.0,0.0,0.0,0.0,0.0,0.0,0.0,0.0,0.0,0.0,0.0,0.0,0.0,0.0,0.0,0.0,0.0,0.0,0.0,0.0,0.0,0.0,0.0,0.0,0.0,0.0,0.0,0.0,0.0,0.0,0.0,0.0,0.0,0.0,0.0,0.0,0.0,0.0,0.0,0.0,0.0,-4.5255,-4.5604,-4.5816,-4.5816,-4.6176,-4.643,-4.643,-4.6649,-4.6602,-4.6175,0.0,0.0,0.0,0.0,0.0,0.0,0.0,0.0,0.0,0.0,0.0,0.0,0.0,0.0,0.0,0.0,0.0,0.0,0.0,0.0,0.0,0.0,0.0,0.0,0.0,0.0,0.0,0.0,0.0,0.0,0.0,0.0,0.0,0.0,0.0,0.0,0.0,0.0,0.0,0.0,0.0,0.0,0.0,0.0,0.0,0.0,0.0,0.0,0.0,0.0,0.0,0.0,0.0,0.0,0.0,0.0,0.0,0.0,0.0,0.0,0.0,0.0,0.0,0.0,0.0,0.0,0.0,0.0,0.0,0.0,0.0,0.0,0.0,0.0,0.0,0.0,0.0,0.0,0.0,0.0,0.0,0.0,0.0,0.0,0.0,0.0,0.0,0.0,0.0,0.0,0.0,0.0,0.0,0.0,0.0,0.0,0.0,0.0,0.0,0.0,0.0,0.0,-4.576,-4.5992,-4.612,-4.612,-4.6423,-4.6668,-4.6668,-4.6997,-4.7023,-4.6549,0.0,0.0,0.0,0.0,0.0,0.0,0.0,0.0,0.0,0.0,0.0,0.0,0.0,0.0,0.0,0.0,0.0,0.0,0.0,0.0,0.0,0.0,0.0,0.0,0.0,0.0,0.0,0.0,0.0,0.0,0.0,0.0,0.0,0.0,0.0,0.0,0.0,0.0,0.0,0.0,0.0,0.0,0.0,0.0,0.0,0.0,0.0,0.0,0.0,0.0,0.0,0.0,0.0,0.0,0.0,0.0,0.0,0.0,0.0,0.0,0.0,0.0,0.0,0.0,0.0,0.0,0.0,0.0,0.0,0.0,0.0,0.0,0.0,0.0,0.0,0.0,0.0,0.0,0.0,0.0,0.0,0.0,0.0,0.0,0.0,0.0,0.0,0.0,0.0,0.0,0.0,0.0,0.0,0.0,0.0,0.0,0.0,0.0,0.0,0.0,0.0,0.0,-4.5807,-4.5807,-4.5807,-4.5807,-4.6084,-4.6266,-4.6285,-4.6617,-4.6876,-4.6945,0.0,0.0,0.0,0.0,0.0,0.0,0.0,0.0,0.0,0.0,0.0,0.0,0.0,0.0,0.0,0.0,0.0,0.0,0.0,0.0,0.0,0.0,0.0,0.0,0.0,0.0,0.0,0.0,0.0,0.0,0.0,0.0,0.0,0.0,0.0,0.0,0.0,0.0,0.0,0.0,0.0,0.0,0.0,0.0,0.0,0.0,0.0,0.0,0.0,0.0,0.0,0.0,0.0,0.0,0.0,0.0,0.0,0.0,0.0,0.0,-4.4503,0.0,0.0,0.0,0.0,0.0,0.0,0.0,0.0,0.0,0.0,0.0,0.0,0.0,0.0,0.0,0.0,0.0,0.0,0.0,0.0,0.0,0.0,0.0,0.0,0.0,0.0,0.0,0.0,0.0,0.0,0.0,0.0,0.0,0.0,0.0,0.0,0.0,0.0,0.0,0.0,0.0,-4.5807,-4.5807,-4.5807,-4.5807,-4.5864,-4.6028,-4.6301,-4.6372,-4.6687,-4.727,-4.7116,0.0,0.0,0.0,0.0,0.0,0.0,0.0,0.0,0.0,0.0,0.0,0.0,0.0,0.0,0.0,0.0,0.0,0.0,0.0,0.0,0.0,0.0,0.0,0.0,0.0,0.0,0.0,0.0,0.0,0.0,0.0,0.0,0.0,0.0,0.0,0.0,0.0,0.0,0.0,0.0,0.0,0.0,0.0,0.0,0.0,0.0,0.0,0.0,0.0,0.0,0.0,0.0,0.0,0.0,0.0,0.0,0.0,0.0,0.0,0.0,-4.4596,0.0,0.0,0.0,0.0,0.0,0.0,0.0,0.0,0.0,0.0,0.0,0.0,0.0,0.0,0.0,0.0,0.0,0.0,0.0,0.0,0.0,0.0,0.0,0.0,0.0,0.0,0.0,0.0,0.0,0.0,0.0,0.0,0.0,0.0,0.0,0.0,0.0,0.0,0.0,0.0,-4.5807,-4.5807,-4.5807,-4.5807,-4.5807,-4.5864,-4.6048,-4.6211,-4.6407,-4.6615,-4.6823,0.0,0.0,0.0,0.0,0.0,0.0,0.0,0.0,0.0,0.0,0.0,0.0,0.0,0.0,0.0,0.0,0.0,0.0,0.0,0.0,0.0,0.0,0.0,0.0,0.0,0.0,0.0,0.0,0.0,0.0,0.0,0.0,0.0,0.0,0.0,0.0,0.0,0.0,0.0,0.0,0.0,0.0,0.0,0.0,0.0,0.0,0.0,0.0,0.0,0.0,0.0,0.0,0.0,-4.4519,-4.4809,-4.4847,-4.5506,-4.5734,-4.5606,-4.507,-4.4588,-4.4274,-4.4752,0.0,0.0,0.0,0.0,0.0,0.0,0.0,0.0,0.0,0.0,0.0,0.0,0.0,0.0,0.0,0.0,0.0,0.0,0.0,0.0,0.0,0.0,0.0,0.0,-4.5807,-4.5649,0.0,0.0,0.0,0.0,0.0,0.0,0.0,0.0,0.0,0.0,0.0,0.0,-4.6155,-4.6171,-4.6171,-4.6171,-4.6171,-4.6171,-4.6171,-4.6303,-4.6295,-4.609,-4.6538,-4.6842,0.0,0.0,0.0,0.0,0.0,0.0,0.0,0.0,0.0,0.0,0.0,0.0,0.0,0.0,0.0,0.0,0.0,0.0,0.0,0.0,0.0,0.0,0.0,0.0,0.0,0.0,0.0,0.0,0.0,0.0,0.0,0.0,-3.8583,-3.8375,0.0,0.0,0.0,0.0,0.0,0.0,0.0,0.0,0.0,0.0,0.0,0.0,0.0,-4.2331,-4.3752,-4.3843,-4.3888,-4.3888,-4.4582,-4.4911,-4.4926,-4.5504,-4.5521,-4.499,-4.4908,0.0,-4.5573,-4.5646,0.0,0.0,0.0,0.0,0.0,0.0,0.0,0.0,0.0,0.0,0.0,0.0,0.0,0.0,0.0,0.0,0.0,0.0,0.0,0.0,0.0,0.0,-4.5807,-4.5807,-4.5807,-4.5776,0.0,-4.5744,-4.5807,-4.5807,-4.5807,0.0,0.0,0.0,0.0,0.0,0.0,0.0,-4.7545,-4.7624,-4.7624,-4.7624,-4.7624,-4.7624,-4.7624,-4.7061,-4.6845,-4.7169,-4.6689,-4.6687,-4.7303,-4.7116,0.0,0.0,0.0,0.0,0.0,0.0,0.0,0.0,0.0,0.0,0.0,0.0,0.0,0.0,0.0,0.0,0.0,0.0,0.0,0.0,0.0,0.0,0.0,0.0,0.0,0.0,0.0,0.0,0.0,-3.8303,-3.8318,-3.7749,-3.7886,-3.7923,0.0,0.0,0.0,0.0,0.0,0.0,0.0,0.0,0.0,-4.2246,-4.1852,-4.2336,-4.3945,-4.3945,-4.3945,-4.3945,-4.4624,-4.4907,-4.4922,-4.552,-4.5671,-4.541,-4.541,-4.5581,-4.5758,-4.5445,-4.5495,-4.5779,0.0,0.0,0.0,0.0,-4.6228,-4.6182,-4.5904,-4.6044,0.0,-4.5587,0.0,0.0,0.0,0.0,0.0,0.0,0.0,0.0,0.0,0.0,-4.6977,-4.6977,-4.6977,-4.6977,-4.6977,-4.6977,-4.6866,0.0,-4.636,-4.6503,-4.6913,0.0,0.0,0.0,0.0,-4.7401,-4.7285,-4.7633,-4.7893,-4.7893,-4.7893,-4.7893,-4.7893,-4.7593,-4.7494,-4.7681,-4.6998,-4.6837,-4.737,-4.6878,-4.6617,0.0,0.0,0.0,0.0,0.0,0.0,0.0,0.0,0.0,0.0,0.0,0.0,0.0,0.0,0.0,0.0,0.0,0.0,0.0,0.0,0.0,0.0,0.0,0.0,0.0,0.0,0.0,0.0,-3.8003,-3.8359,-3.7728,-3.8076,-3.8226,0.0,0.0,0.0,0.0,0.0,0.0,-3.9522,-3.9685,-4.0361,-4.1621,-4.1635,-4.2359,-4.3806,-4.3675,-4.3762,-4.3993,-4.4483,-4.4798,-4.4925,-4.5553,-4.5852,-4.5852,-4.5852,-4.5852,-4.5822,-4.5503,-4.5515,-4.5706,-4.6361,-4.6711,-4.6848,-4.6665,-4.6603,-4.6588,-4.6419,-4.6542,-4.6685,-4.6021,0.0,-4.7207,-4.6336,0.0,0.0,0.0,0.0,-4.7869,-4.768,-4.7479,-4.7364,-4.7364,-4.7479,-4.7633,-4.7633,-4.7779,-4.7681,0.0,-4.6959,-4.7208,-4.7538,0.0,0.0,0.0,0.0,-4.804,-4.7645,-4.8059,-4.8415,-4.8415,-4.8415,-4.8415,-4.8415,-4.8256,-4.8162,-4.8162,-4.7542,-4.7331,-4.7625,-4.6957,-4.6573,-4.6573,0.0,0.0,0.0,0.0,0.0,0.0,0.0,0.0,0.0,0.0,0.0,0.0,0.0,0.0,0.0,0.0,0.0,0.0,0.0,0.0,0.0,0.0,0.0,0.0,0.0,0.0,0.0,0.0,0.0,-3.8737,-3.8866,0.0,0.0,0.0,0.0,-3.9251,-3.9807,-4.0133,-4.0133,-4.0703,-4.1259,-4.175,-4.1795,-4.2275,-4.3209,-4.281,-4.3032,-4.3993,-4.4178,-4.4496,-4.4908,-4.5578,-4.5869,-4.5869,-4.5869,-4.5869,-4.5945,-4.6498,-4.7126,-4.7824,-4.8475,-4.9142,-4.9607,-4.9,-4.8748,-4.8653,-4.8038,-4.7371,-4.6685,-4.6102,-4.5928,-4.6102,-4.669,-4.7753,0.0,0.0,-4.792,-4.7749,-4.7028,-4.6367,-4.59,-4.59,-4.6367,-4.6857,-4.6857,-4.7425,-4.7671,0.0,-4.7362,-4.764,-4.6975,0.0,-4.8114,-4.8692,-4.8841,-4.9078,-4.9687,-4.9781,-4.9821,-4.9821,-4.9821,-4.9821,-4.9821,-4.922,-4.8841,-4.8841,-4.8519,-4.8323,-4.836,-4.7689,-4.7341,-4.7341,-4.6689,0.0,0.0,0.0,0.0,0.0,0.0,0.0,0.0,0.0,0.0,0.0,0.0,0.0,0.0,0.0,0.0,0.0,0.0,0.0,0.0,0.0,0.0,0.0,0.0,0.0,0.0,0.0,0.0,-3.8568,-3.8917,0.0,-3.9718,-3.9829,-4.0038,-4.0445,-4.0662,-4.0784,-4.0784,-4.1001,-4.1505,-4.2371,-4.3083,-4.3812,-4.4559,-4.5467,-4.5913,-4.5941,-4.6328,-4.6613,-4.6751,-4.6998,-4.71,-4.71,-4.71,-4.71,-4.7163,-4.7806,-4.7516,-4.6647,-4.689,-4.7111,-4.7291,-4.7051,-4.6961,-4.6931,-4.6706,-4.6701,-4.6912,-4.7122,-4.6595,-4.6211,-4.7707,-4.7916,-4.7731,-4.8363,-4.8219,-4.7828,-4.7583,-4.7315,-4.7149,-4.7149,-4.7315,-4.7507,-4.7507,-4.7702,-4.7702,-4.6996,-4.7753,-4.859,-4.8765,-4.9017,-4.8993,-4.8352,-4.8965,-4.9315,-4.8666,-4.9381,-4.9876,-4.9876,-4.9876,-4.9876,-4.9876,-4.9694,-4.9552,-4.9552,-4.9273,-4.9004,-4.8739,-4.8313,-4.7869,-4.7421,-4.6702,-4.6103,0.0,0.0,0.0,0.0,0.0,0.0,0.0,0.0,0.0,0.0,0.0,0.0,0.0,0.0,0.0,0.0,0.0,0.0,0.0,0.0,0.0,0.0,0.0,0.0,0.0,0.0,-3.9068,-3.9037,-3.9359,-3.9834,-4.0445,-4.0499,-4.0675,-4.1096,-4.1489,-4.172,-4.172,-4.21,-4.2637,-4.3341,-4.4124,-4.4974,-4.5942,-4.6676,-4.7244,-4.7618,-4.7797,-4.7976,-4.8134,-4.8325,-4.842,-4.8435,-4.8435,-4.842,-4.8468,-4.8925,-4.8334,-4.716,-4.721,-4.7213,-4.7213,-4.7213,-4.7213,-4.7169,-4.6958,-4.7183,-4.757,-4.782,-4.7258,-4.6778,-4.814,-4.8068,-4.7747,-4.8614,-4.8529,-4.8198,-4.8198,-4.8198,-4.8241,-4.8241,-4.8587,-4.8886,-4.863,-4.8971,-4.8998,-4.8068,-4.8236,-4.8711,-4.9135,-4.9398,-4.9352,-4.8627,-4.9293,-4.9641,-4.9013,-4.9497,-4.9983,-5.0239,-5.0058,-4.9876,-4.9876,-4.9876,-4.9876,-4.9876,-4.9746,-4.9569,-4.9469,-4.9068,-4.8626,-4.8109,-4.6859,-4.6109,-4.5877,0.0,0.0,0.0,0.0,0.0,0.0,0.0,0.0,0.0,0.0,0.0,0.0,0.0,0.0,0.0,0.0,0.0,0.0,0.0,0.0,0.0,0.0,0.0,-3.8559,-3.8966,-3.9549,-4.0146,-4.0214,-4.0458,-4.1082,-4.1164,-4.1177,-4.1205,-4.229,-4.2941,-4.2941,-4.4081,-4.4732,-4.4732,-4.4773,-4.5601,-4.7221,-4.6256,-4.6814,-4.8852,-4.8387,-4.8437,-4.8902,-4.9482,-4.9756,-4.9785,-4.9785,-4.977,-4.9741,-4.9741,-4.9741,-4.9742,-4.9778,-4.979,-4.9775,-4.976,-4.976,-4.9627,-4.8983,-4.8771,-4.8679,-4.8001,-4.7782,-4.7782,-4.7829,-4.828,-4.8771,-4.8771,-4.8771,-4.8771,-4.8771,-4.8816,-4.8877,-4.8877,-4.9922,-5.0706,-4.9995,-5.0905,-5.1471,-5.0024,-4.8758,-4.792,-4.7852,-4.8472,-4.9135,-4.9698,-4.9833,0.0,-5.0792,-5.0348,-5.0237,-5.0965,-5.039,-4.9955,-4.9955,-4.9963,-4.9908,-4.9908,-4.9931,-5.0113,-5.0486,-4.9869,-4.9485,-4.9469,-4.7134,-4.6027,-4.6247,0.0,0.0,0.0,0.0,0.0,0.0,0.0,0.0,0.0,0.0,0.0,0.0,0.0,0.0,0.0,0.0,0.0,0.0,0.0,0.0,0.0,0.0,-3.9875,-3.9726,-3.9848,-4.0173,-4.0784,-4.0865,-4.1096,-4.1693,-4.2154,-4.2588,-4.3009,-4.3769,-4.4203,-4.4203,-4.4922,-4.5343,-4.5343,-4.6586,-4.7471,-4.792,-4.843,-4.9206,-5.0252,-5.0084,-5.0303,-5.0839,-5.0991,-5.1091,-5.1106,-5.1106,-5.1091,-5.1091,-5.1091,-5.1091,-5.0952,-4.9564,-4.9002,-4.8943,-4.8519,-4.8358,-4.8311,-4.8141,-4.8048,-4.8048,-4.7876,-4.7782,-4.7876,-4.8372,-4.8311,-4.8187,-4.8679,-4.845,-4.8048,-4.8048,-4.8094,-4.8094,-4.8094,-4.8404,-4.8619,-4.845,-4.9119,-4.9463,-4.8527,-4.852,-4.8775,-4.9177,-4.9852,-5.0233,-4.9906,-5.0734,0.0,-5.1022,-5.1246,-5.1511,-5.1676,-5.1543,-5.1433,-5.1433,-5.0974,-5.069,-5.069,-5.0735,-5.0547,-5.0058,-5.0163,-4.9626,-4.8365,-4.7325,-4.6873,0.0,0.0,0.0,0.0,0.0,0.0,0.0,0.0,0.0,0.0,0.0,0.0,0.0,0.0,0.0,0.0,0.0,0.0,0.0,0.0,0.0,0.0,-4.058,-4.0662,-4.092,-4.073,-4.0811,-4.1422,-4.1707,-4.2086,-4.2697,-4.3294,-4.3891,-4.4488,-4.5098,-4.5546,-4.5804,-4.6635,-4.7067,-4.7067,-4.8318,-4.9067,-4.9356,-4.9998,-5.0625,-5.1236,-5.1461,-5.1723,-5.2036,-5.2309,-5.2412,-5.2412,-5.2412,-5.2412,-5.2412,-5.2412,-5.2412,0.0,0.0,0.0,0.0,0.0,-4.9393,-4.9393,-4.9393,-4.9393,-4.9393,-4.9393,-4.962,-4.9879,-4.9941,-4.9941,-4.9894,-4.9941,-4.9668,-4.9393,-4.9393,-4.9606,-4.9831,-4.9831,-5.007,-5.0212,-4.9927,-5.0449,-5.0636,-4.962,-4.9989,0.0,-5.0979,-5.0728,-5.0497,-5.0681,-5.1436,-5.1946,-5.1831,-5.1927,-5.2109,-5.2418,-5.2191,-5.2017,-5.2017,-5.1638,0.0,0.0,0.0,-5.079,-5.0191,-5.0377,0.0,0.0,0.0,-4.804,-4.8541,0.0,0.0,0.0,-4.3558,-4.2996,0.0,0.0,0.0,0.0,0.0,0.0,0.0,0.0,0.0,0.0,0.0,0.0,0.0,0.0,0.0,0.0,-4.1272,-4.1517,-4.2127,-4.1815,-4.1693,-4.2154,-4.2724,-4.3321,-4.3918,-4.4542,-4.5153,-4.575,-4.6333,-4.6956,-4.7539,0.0,0.0,0.0,0.0,-5.0477,-5.1079,-5.1026,-5.1347,-5.2004,-5.2451,-5.2705,-5.273,-5.3237,-5.3515,-5.3515,-5.3515,-5.3515,-5.3515,-5.3515,-5.3515,-5.3399,-5.2194,-5.1686,-5.1614,-5.1614,-5.1614,-5.1614,-5.1614,0.0,0.0,-5.1614,-5.2088,-5.2521,-5.1816,-5.2088,-5.2521,-5.1801,-5.1614,-5.1614,-5.1614,-5.2088,-5.2556,-5.2556,-5.3096,-5.3387,-5.2704,-5.3144,-5.3241,-5.1852,-5.2188,-5.2753,-5.29,-5.1366,-5.0617,-5.1957,-5.217,-5.2396,-5.3053,-5.2614,-5.2488,-5.3134,0.0,0.0,-5.2254,-5.2216,-5.2064,-5.1789,-5.1335,-5.0954,-5.0692,-5.0602,-5.0914,-5.1704,-4.9847,-4.9228,-5.0041,-4.8135,-4.7011,-4.6653,-4.4929,-4.4165,0.0,0.0,0.0,0.0,0.0,0.0,0.0,0.0,0.0,0.0,0.0,0.0,0.0,0.0,0.0,-4.1734,-4.2236,-4.2751,-4.3348,-4.3769,-4.3864,-4.3484,-4.3972,-4.4583,-4.518,-4.5777,-4.6374,-4.7024,-4.7568,-4.811,-4.8757,-4.9443,-5.0046,-5.053,-5.1129,-5.1694,-5.2291,-5.1821,-5.2162,-5.3184,0.0,0.0,-5.3343,-5.3462,-5.3515,-5.3515,-5.3515,-5.3515,-5.3515,-5.3515,-5.3515,-5.3442,-5.2673,-5.2078,-5.1614,-5.1614,-5.1614,-5.1614,-5.1614,-5.1614,-5.1614,-5.1614,-5.1715,-5.1801,-5.1664,-5.1715,0.0,-5.1614,-5.1614,-5.1614,-5.1614,-5.1715,-5.1801,-5.1801,-5.1902,-5.2003,-5.1852,-5.2373,-5.2655,-5.1765,-5.2188,-5.2934,-5.3597,-5.2905,-5.261,-5.3452,-5.3661,-5.3726,-5.3872,-5.3746,-5.3769,-5.3897,-5.3771,-5.3692,-5.3692,-5.3506,-5.3207,-5.2822,-5.1972,-5.1595,-5.1845,-5.1296,-5.1081,-5.1231,-4.9828,-4.9354,-4.9834,-4.8111,-4.7232,-4.7132,-4.5705,-4.5068,0.0,0.0,0.0,0.0,0.0,0.0,0.0,0.0,0.0,0.0,0.0,-4.0743,-4.1042,0.0,-4.1856,-4.2738,-4.3131,-4.3538,-4.4149,-4.5017,-4.537,-4.4759,-4.5221,-4.5831,-4.6414,-4.7011,-4.7608,-4.8205,-4.8791,-4.9351,-4.9981,-5.0816,-5.1417,-5.1739,-5.232,-5.2637,-5.2623,-5.2637,-5.2759,-5.3064,-5.3064,-5.3237,-5.3515,-5.3515,-5.3515,-5.3515,-5.3515,-5.3515,-5.3515,-5.3515,-5.3515,-5.3486,-5.3167,-5.2847,-5.2572,-5.2572,-5.2572,-5.2572,-5.2572,-5.2572,-5.2572,-5.2572,-5.28,-5.3092,-5.266,-5.28,-5.3055,-5.266,-5.2572,-5.2572,-5.2572,-5.2572,-5.2572,-5.2572,-5.2572,-5.2572,-5.2572,-5.2851,-5.299,-5.2609,-5.2851,-5.3381,-5.4151,-5.4065,-5.4186,-5.4998,-5.5115,-5.5146,-5.5146,-5.483,-5.4609,-5.4609,-5.4308,-5.4103,-5.4103,-5.4026,-5.3832,-5.3452,-5.3179,-5.2953,-5.276,-5.2047,-5.175,-5.1955,-5.0785,-5.0245,-5.0461,-4.9157,-4.8324,-4.7919,-4.6803,-4.6127,0.0,0.0,0.0,0.0,0.0,0.0,0.0,0.0,-4.0363,-4.0363,-4.0865,-4.1476,-4.2059,-4.2263,-4.2697,-4.3782,-4.4054,-4.4339,-4.4963,-4.5967,-4.6564,-4.6306,-4.6591,-4.7052,-4.7649,-4.8138,-4.8612,-4.925,-4.9734,-5.0326,-5.1045,-5.1936,-5.253,-5.2798,-5.3237,-5.329,-5.2798,-5.3237,-5.3237,-5.2798,-5.329,-5.3515,-5.3515,-5.3515,-5.3515,-5.3515,-5.3515,-5.3515,-5.3515,-5.3515,-5.3515,-5.3515,-5.3515,-5.3515,-5.3515,-5.3515,-5.3515,-5.3515,-5.3515,-5.3515,-5.3515,-5.3515,-5.3956,-5.4355,-5.371,-5.3956,-5.434,-5.3658,-5.3515,-5.3515,-5.3515,-5.3515,-5.3515,-5.3515,-5.3515,-5.3515,-5.3515,-5.3515,-5.3515,-5.3515,-5.3515,-5.3815,-5.475,-5.5019,-5.5319,-5.6052,-5.6163,-5.6189,-5.6189,-5.5683,-5.5291,-5.5291,-5.4719,-5.4288,-5.4231,-5.4361,-5.435,-5.4187,-5.4342,-5.4273,-5.3756,-5.304,-5.2726,-5.2856,-5.1669,-5.1031,-5.1031,-4.9884,-4.9075,-4.8573,-4.7709,-4.7025,-4.0257,-3.9689,-3.9394,-3.9305,-3.9699,-4.0092,0.0,0.0,-4.1015,-4.1015,-4.1489,-4.2086,-4.2683,-4.3226,-4.3796,-4.4488,-4.5044,-4.56,-4.6184,-4.6902,-4.7622,-4.8612,-4.8273,-4.8219,-4.887,-4.8937,-4.9277,-4.9861,-4.9971,-5.0503,-5.1623,-5.1841,-5.2329,-5.3343,-5.3462,-5.3462,-5.341,-5.3462,-5.3462,-5.341,-5.3462,-5.3515,-5.3515,-5.3515,-5.3515,-5.3515,-5.3515,-5.3515,-5.3515,-5.3515,-5.3515,-5.3515,-5.3515,-5.3515,-5.3515,-5.3515,-5.3515,-5.3515,-5.3515,-5.3515,-5.3515,-5.3515,-5.3553,-5.3605,-5.3515,-5.3553,-5.362,-5.3515,-5.3515,-5.3515,-5.3515,-5.3515,-5.3515,-5.3515,-5.3515,-5.3515,-5.3515,-5.3515,-5.3515,-5.3515,-5.3515,-5.3971,-5.5506,-5.5808,-5.5862,-5.6015,-5.613,-5.6189,-5.6189,-5.611,-5.6062,-5.6062,-5.543,-5.494,-5.4729,-5.4742,-5.5067,-5.5796,-5.4856,-5.4623,-5.5297,-5.4625,-5.389,-5.3182,-5.1678,-5.0898,-5.0818,-4.8657,-4.7934,-4.8573,-4.7709,-4.7264,-4.1001,-4.0346,-3.9911,0.0,-4.0495,-4.073,-4.073,-4.1205,-4.1625,-4.1625,-4.2371,-4.3104,-4.3362,-4.3904,-4.4515,0.0,-4.5723,-4.6306,-4.6956,-4.7798,-4.8572,-4.9018,-4.9209,-4.9372,-4.9616,-4.9644,-4.9752,-4.9996,-5.0628,-5.1293,-5.1787,-5.2437,-5.3025,-5.3462,-5.3515,-5.3515,-5.3515,-5.3515,-5.3515,-5.3515,-5.3515,-5.3515,-5.3515,-5.3515,-5.3515,-5.3515,-5.3515,-5.3515,-5.3515,-5.3515,-5.3515,-5.3515,-5.3515,-5.3515,-5.3515,-5.3515,-5.3515,-5.3515,-5.3515,-5.3515,-5.3515,-5.3515,-5.3515,-5.3515,-5.3515,-5.3515,-5.3515,-5.3515,-5.3515,-5.3515,-5.3515,-5.3515,-5.3515,-5.3515,-5.3515,-5.3515,-5.3515,-5.3515,-5.3515,-5.3515,-5.3515,-5.371,-5.437,-5.4902,-5.535,-5.5865,-5.6809,-5.7435,-5.7435,-5.7042,-5.6631,-5.622,-5.576,-5.535,-5.5021,-5.5073,-5.5287,-5.5669,-5.5473,-5.5611,-5.6211,-5.5554,-5.4967,-5.4607,-5.3547,-5.2481,-5.1464,-5.044,-4.9658,-4.9001,-4.8218,-4.7878,-4.1952,-4.1399,-4.0917,-4.1276,-4.1443,-4.154,-4.154,-4.1909,-4.2304,-4.2453,-4.3172,-4.3927,-4.4266,-4.4637,-4.5193,-4.5953,-4.6428,-4.7037,-4.7731,-4.8585,-4.9182,-4.9359,-4.9752,-5.0066,-5.0235,-5.0123,-5.0066,-5.0235,-5.0906,-5.1513,-5.2004,-5.2652,-5.3184,-5.3515,-5.3515,-5.3515,-5.3515,-5.3515,-5.3515,-5.3515,-5.3515,-5.3515,-5.3515,-5.3515,-5.3515,-5.3515,-5.3515,-5.3515,-5.3515,-5.3515,-5.3515,-5.3515,-5.3515,-5.3515,-5.3515,-5.3515,-5.3515,-5.3515,-5.3515,-5.3515,-5.3515,-5.3515,-5.3515,-5.3515,-5.3515,-5.3515,-5.3515,-5.3515,-5.3515,-5.3515,-5.3515,-5.3515,-5.3515,-5.3515,-5.3515,-5.3515,-5.3515,-5.3515,-5.3515,-5.3515,-5.3515,-5.3568,-5.38,-5.4289,-5.5054,-5.6066,-5.7243,-5.8073,-5.8274,-5.7816,-5.7247,-5.6552,-5.6527,-5.6237,-5.5379,-5.5677,-5.5799,-5.5604,-5.591,-5.6267,-5.668,-5.62,-5.5787,-5.5523,-5.4832,-5.3844,-5.2561,-5.1862,-5.1029,-4.9995,-4.9027,-4.8566,-4.3082,-4.2901,-4.2545,-4.2545,-4.26,-4.2628,-4.2628,-4.2794,-4.3023,-4.3642,-4.3791,-4.4135,-4.5316,-4.5546,-4.594,-4.716,-4.7377,-4.7731,-4.8911,-4.9059,-4.9345,-4.9915,-4.9996,-5.0235,0.0,-5.0348,-5.0235,-5.085,-5.0348,-5.085,-5.2573,-5.2181,-5.2383,-5.3462,-5.3515,-5.3515,-5.3515,-5.3515,-5.3515,-5.3515,-5.3515,-5.3515,-5.3515,-5.3515,-5.3515,-5.3515,-5.3515,-5.3515,-5.3515,-5.3515,-5.3515,-5.3515,-5.3515,-5.3515,-5.3515,-5.3515,-5.3515,-5.3515,-5.3515,-5.3515,-5.3515,-5.3515,-5.3515,-5.3515,-5.3515,-5.3515,-5.3515,-5.3515,-5.3515,-5.3515,-5.3515,-5.3515,-5.3515,-5.3515,-5.3515,-5.3515,-5.3515,-5.3515,-5.3515,-5.3515,-5.3515,-5.3762,-5.4545,-5.4684,-5.524,-5.6844,-5.71,-5.7433,-5.8228,-5.8305,-5.7974,-5.7263,-5.7973,-5.7786,-5.5933,-5.6602,-5.6839,-5.6119,-5.6086,-5.6267,-5.668,-5.6663,-5.6224,-5.532,-5.4696,-5.4356,-5.4204,-5.1832,-5.1056,-5.1783,-5.0068,-4.9284,-4.3603,-4.3241,-4.2721,-4.3041,-4.2962,-4.2897,-4.3216,-4.341,-4.3623,-4.4171,-4.4657,-4.5221,-4.6021,-4.6548,-4.7025,-4.7825,-4.8273,-4.8777,-4.9557,-4.969,-4.9892,-5.0544,-5.0628,0.0,0.0,0.0,0.0,-5.1458,-5.1663,-5.1976,-5.2584,-5.2812,-5.3078,-5.3515,-5.3515,-5.3515,-5.3515,-5.3515,-5.3733,-5.4183,-5.4183,-5.395,-5.3515,-5.3515,-5.3515,-5.3515,-5.3515,-5.3515,-5.3515,-5.3515,-5.3515,-5.3515,-5.3515,-5.3515,-5.3515,-5.3515,-5.3515,-5.3515,-5.3515,-5.3515,-5.3515,-5.3515,-5.3515,-5.3515,-5.3515,-5.3515,-5.3515,-5.3515,-5.3515,-5.3515,-5.3515,-5.3515,-5.3515,-5.3515,-5.3515,-5.3515,-5.3515,-5.3904,-5.4149,-5.3605,-5.3956,-5.42,-5.3956,-5.3904,-5.4458,-5.6051,-5.7195,-5.798,-5.8274,-5.8321,-5.8318,-5.8398,-5.853,-5.8335,-5.7705,-5.7378,-5.7109,-5.6863,-5.5791,-5.562,-5.6641,-5.6123,-5.5908,-5.6202,-5.6027,-5.5604,-5.4956,-5.3545,-5.2684,-5.2337,-5.0668,-4.9912,-4.4515,-4.4269,-4.3871,-4.3963,-4.3855,-4.3731,-4.389,-4.4153,-4.4419,-4.4823,-4.5436,-4.6076,-4.6698,-4.716,-4.7622,-4.8381,-4.8829,-4.9362,-5.0189,-5.0325,-5.046,-5.085,-5.1072,-5.1238,0.0,0.0,0.0,-5.2073,-5.2207,-5.2476,-5.2904,-5.3064,-5.329,-5.3515,-5.3515,-5.3631,-5.3863,-5.3878,-5.4197,-5.4836,-5.4836,-5.4487,-5.3878,-5.3878,-5.3747,-5.3515,-5.3515,-5.3515,-5.3515,-5.3515,-5.3515,-5.3515,-5.3515,-5.3515,-5.3515,-5.3515,-5.3515,-5.3515,-5.3515,-5.3515,-5.3515,-5.3515,-5.3515,-5.3515,-5.3515,-5.3515,-5.3515,-5.3515,-5.3515,-5.3515,-5.3515,-5.3515,-5.3515,-5.3515,-5.3515,-5.3515,-5.3515,-5.3904,-5.4097,-5.3605,-5.3904,-5.4097,-5.362,-5.3762,-5.4252,-5.5305,-5.6844,-5.798,-5.8274,-5.8321,-5.8504,-5.8943,-5.8988,-5.895,-5.8873,-5.8461,-5.7968,-5.7442,-5.6393,-5.6099,-5.6697,-5.6123,-5.6083,-5.668,-5.668,-5.6414,-5.5812,-5.4569,-5.3675,-5.3064,-5.1334,-5.0539,-4.5706,-4.5835,-4.57,-4.5216,-4.5106,-4.5,-4.4608,-4.5016,-4.5427,-4.5584,-4.6048,-4.6661,0.0,0.0,-4.7785,-4.8938,-4.9155,-4.9581,-5.0768,-5.0962,-5.0962,0.0,0.0,0.0,0.0,0.0,0.0,-5.2734,0.0,-5.2383,-5.3462,-5.2957,-5.2904,-5.3462,-5.3544,-5.3878,-5.4502,-5.4575,-5.4879,-5.5402,-5.5445,-5.5126,-5.4517,-5.4517,-5.4139,-5.3515,-5.3515,-5.3515,-5.3515,-5.3515,-5.3515,-5.3515,-5.3515,-5.3515,-5.3515,-5.3515,-5.3515,-5.3515,-5.3515,-5.3515,-5.3515,-5.3515,-5.3515,-5.3515,-5.3515,-5.3515,-5.3515,-5.3515,-5.3515,-5.3515,-5.3515,-5.3515,-5.3515,-5.3515,-5.3515,-5.3515,-5.3515,-5.3515,-5.3568,-5.3515,-5.3515,-5.3515,-5.3515,-5.4149,-5.4684,-5.475,-5.61,-5.7385,-5.812,-5.8274,-5.8504,-5.8988,-5.9435,-5.9599,-5.9411,-5.9762,-5.9396,-5.7939,-5.7727,-5.738,-5.6713,-5.6603,-5.6603,-5.668,-5.668,-5.668,-5.6641,-5.4877,-5.3992,-5.3891,-5.2033,-5.1214,-4.5706,-4.5336,-4.4815,-4.5032,-4.4908,-4.4779,-4.5043,-4.5929,-4.6623,-4.6192,-4.6633,-4.7146,0.0,0.0,0.0,-4.9006,-4.9829,0.0,-5.0878,-5.1293,0.0,-5.1568,0.0,-5.2423,-5.2423,-5.2919,0.0,0.0,-5.3131,-5.3184,-5.3462,-5.3343,-5.3343,-5.3515,-5.3994,-5.4342,-5.4517,-5.5445,-5.575,-5.5416,-5.5924,-5.5576,-5.4517,-5.4517,-5.4139,-5.3515,-5.3515,-5.3515,-5.3515,-5.3515,-5.3515,-5.3515,-5.3515,-5.3515,-5.3515,-5.3515,-5.3515,-5.3515,-5.3515,-5.3515,-5.3515,-5.3515,-5.3515,-5.3515,-5.3515,-5.3515,-5.3515,-5.3515,-5.3515,-5.3515,-5.3515,-5.3515,-5.3515,-5.3515,-5.3515,-5.3515,-5.3515,-5.3956,-5.42,-5.3605,-5.3515,-5.3515,-5.3515,-5.4149,-5.4887,-5.5506,-5.6442,-5.7195,-5.7385,-5.7934,-5.8626,-5.9403,-5.964,-5.9968,-6.0571,-6.0242,-5.9612,-5.8684,-5.6846,-5.6048,-5.6674,-5.541,-5.5328,-5.668,-5.668,-5.6336,-5.5636,-5.4527,-5.3632,-5.2947,-5.1742,-5.1214,-4.5706,-4.5473,-4.506,-4.5078,-4.5316,-4.5571,-4.5695,-4.6643,-4.737,-4.686,-4.7053,0.0,-4.7402,-4.7636,0.0,0.0,0.0,0.0,-5.1196,-5.1773,-5.2153,0.0,-5.2637,0.0,-5.2652,-5.3184,-5.3515,0.0,-5.3515,-5.3515,-5.3515,-5.3515,-5.3515,-5.3515,-5.4168,-5.4778,-5.5344,-5.6316,-5.6621,-5.6244,-5.6621,-5.6142,-5.4908,-5.4908,-5.4386,-5.3515,0.0,-5.3515,-5.3515,-5.3515,-5.3515,-5.3515,-5.3515,-5.3515,-5.3515,-5.3515,-5.3515,-5.3515,-5.3515,-5.3515,-5.3515,-5.3515,-5.3515,-5.3515,-5.3515,-5.3515,-5.3515,-5.3515,-5.3515,-5.3515,-5.3515,-5.3515,-5.3515,-5.3515,-5.3762,-5.4008,-5.4008,-5.4392,-5.4443,-5.3658,-5.3515,-5.3605,-5.3956,-5.4392,-5.4988,-5.5769,-5.6603,-5.71,-5.71,-5.7965,-5.8898,-5.9624,-5.9887,-6.0292,-6.1019,-6.0721,-5.9845,-5.8372,-5.7319,-5.6538,-5.6116,-5.5507,-5.5668,-5.668,-5.668,-5.643,-5.5908,-5.4611,-5.3734,-5.3168,-5.1819,-5.1214,-4.5692,-4.5835,-4.57,-4.5307,-4.5979,-4.6659,-4.6359,-4.7127,-4.7815,-4.7457,0.0,-4.735,-4.7452,-4.751,-4.7878,-4.9036,0.0,-5.0584,-5.1648,-5.2315,-5.2677,-5.2637,-5.3131,-5.3304,-5.2841,-5.3198,-5.3515,-5.3515,-5.3515,-5.3515,-5.3515,-5.3515,-5.3588,-5.3762,-5.4328,-5.5242,-5.652,-5.7042,-5.7303,-5.7303,-5.7231,-5.6563,-5.5402,-5.5329,-5.4647,-5.3515,-5.3515,0.0,-5.3515,-5.3515,-5.3515,-5.3515,-5.3515,-5.3515,-5.3515,-5.3515,-5.3515,-5.3515,-5.3515,-5.3515,-5.3515,-5.3515,-5.3515,-5.3515,-5.3515,-5.3515,-5.3515,-5.3515,-5.3515,-5.3515,-5.3515,-5.3515,-5.3515,-5.3605,-5.42,-5.475,-5.4851,-5.4836,-5.4597,-5.3815,-5.3762,-5.406,-5.475,-5.4988,-5.5341,-5.6051,-5.6877,-5.7464,-5.7464,-5.8381,-5.9168,-5.9668,-6.012,-6.0565,-6.1061,-6.1202,-6.0207,-5.7832,-5.8404,-5.7845,-5.558,-5.6162,-5.6547,-5.668,-5.668,-5.6641,-5.6508,-5.4819,-5.3949,-5.3762,-5.2048,-5.1214,-4.5576,-4.5595,-4.5307,-4.5654,-4.5979,-4.6318,-4.6771,-4.7384,0.0,0.0,-4.7596,-4.7432,-4.7861,-4.7996,-4.842,-4.959,0.0,0.0,0.0,0.0,-5.3184,0.0,0.0,0.0,0.0,0.0,0.0,0.0,0.0,-5.3515,-5.3515,-5.3515,-5.3994,-5.5054,-5.5199,-5.5866,-5.7129,-5.7245,-5.7303,-5.7289,-5.6795,-5.6157,-5.5387,-5.4894,-5.4241,-5.3515,-5.3515,0.0,-5.3515,-5.3515,-5.3515,-5.3515,-5.3515,-5.3515,-5.3515,-5.3515,-5.3515,-5.3515,-5.3515,-5.3515,-5.3515,-5.3515,-5.3515,-5.3515,-5.3515,-5.3515,-5.3515,-5.3515,-5.3515,-5.3515,-5.3515,-5.3515,-5.3658,-5.434,-5.4597,-5.4902,-5.5555,-5.5705,-5.5456,-5.4648,-5.5003,-5.5521,-5.5655,-5.6572,-5.7323,-5.7433,-5.8517,-5.9254,-5.9254,-5.9107,-5.9168,-5.9668,-6.012,-6.0565,-6.1061,-6.1649,-6.1061,-5.8797,-5.8656,-5.7968,-5.6513,-5.5868,-5.5908,-5.668,-5.668,-5.6336,-5.5555,-5.4527,-5.3589,-5.2829,-5.1696,-5.1214,-4.5532,-4.57,-4.5595,-4.5835,-4.6162,-4.6526,-4.6843,0.0,0.0,0.0,-4.6887,-4.6583,-4.7443,0.0,0.0,0.0,0.0,0.0,0.0,0.0,0.0,0.0,0.0,0.0,0.0,0.0,0.0,0.0,0.0,-5.3515,-5.3515,-5.3515,-5.395,-5.4908,-5.4937,-5.5387,-5.6302,-5.6316,-5.6316,-5.6316,-5.6026,-5.5562,-5.4923,-5.4647,-5.4139,-5.3515,-5.3515,0.0,-5.3515,-5.3515,-5.3515,-5.3515,-5.3515,-5.3515,-5.3515,-5.3515,-5.3515,-5.3515,-5.3515,-5.3515,-5.3515,-5.3515,-5.3515,-5.3515,-5.3515,-5.3515,-5.3515,-5.3515,-5.3515,-5.3515,-5.3515,-5.3515,-5.371,-5.4494,-5.5003,-5.5305,-5.5305,-5.5605,-5.5655,-5.4851,-5.5356,-5.6017,-5.6457,-5.7021,-5.7606,-5.7995,-5.8776,-5.9331,-5.9331,-5.9552,-5.9816,-6.0033,-6.0479,-6.1025,-6.1632,-6.1285,-6.0407,-5.8847,-5.8404,-5.7535,-5.6053,-5.5988,-5.6241,-5.668,-5.668,-5.6469,-5.6044,-5.4653,-5.3762,-5.3284,-5.1865,-5.1214,-4.5358,-4.5779,-4.588,-4.588,-4.6258,-4.6664,-4.6749,-4.6796,0.0,0.0,-4.6237,-4.5787,-4.7017,0.0,-4.7113,0.0,-5.0164,0.0,0.0,0.0,0.0,0.0,0.0,0.0,0.0,0.0,0.0,0.0,0.0,0.0,-5.3515,-5.3515,-5.382,-5.4487,-5.4517,-5.4807,-5.5402,-5.5402,-5.5402,-5.5402,-5.5271,-5.4966,-5.4517,-5.4371,-5.4009,-5.3515,-5.3515,0.0,0.0,-5.3515,-5.3515,-5.3515,-5.3515,-5.3515,-5.3515,-5.3515,-5.3515,-5.3515,-5.3515,-5.3515,-5.3515,-5.3515,-5.3515,-5.3515,-5.3515,-5.3515,-5.3515,-5.3515,-5.3515,-5.3515,-5.3515,-5.3515,-5.371,-5.4494,-5.5605,-5.6164,-5.5155,-5.5705,-5.6149,-5.5391,-5.5853,-5.6603,-5.7243,-5.7433,-5.7762,-5.8473,-5.8988,-5.9347,-5.9435,-6.0093,-6.0565,-6.0565,-6.1025,-6.15,-6.1956,-6.1036,-5.9935,-5.874,-5.8272,-5.7314,-5.5685,-5.6297,-5.668,-5.668,-5.668,-5.6603,-5.6391,-5.4778,-5.3907,-5.3675,-5.2002,-5.1214,-4.4792,-4.5416,-4.588,-4.588,-4.5924,-4.6127,-4.6662,0.0,0.0,-4.751,-4.6466,-4.586,-4.7477,-4.7407,-4.7674,0.0,0.0,-5.1729,0.0,0.0,0.0,0.0,0.0,0.0,0.0,0.0,0.0,0.0,0.0,0.0,-5.3515,-5.3515,-5.382,-5.4487,-5.4517,-5.4807,-5.5402,-5.5402,-5.5402,-5.5402,-5.485,-5.456,-5.4487,-5.3878,-5.3573,-5.3515,-5.3515,0.0,0.0,-5.3515,-5.3515,-5.3515,-5.3515,-5.3515,-5.3515,-5.3515,-5.3515,-5.3515,-5.3515,-5.3515,-5.3515,-5.3515,-5.3515,-5.3515,-5.3515,-5.3515,-5.3515,-5.3515,-5.3515,-5.3515,-5.3515,-5.3515,-5.371,-5.4494,-5.6427,-5.7684,-5.6115,-5.7004,-5.7825,-5.7036,-5.7527,-5.812,-5.8166,-5.8534,-5.8972,-5.9492,-5.999,-6.0437,-6.0835,-6.0977,-6.1019,-6.1019,-6.1682,-6.1848,-6.1251,-6.1682,-6.1119,-5.8994,-5.8826,-5.8114,-5.6613,-5.6641,-5.668,-5.668,-5.668,-5.6297,-5.5434,-5.4485,-5.3545,-5.268,-5.1696,-5.1214,-4.4719,-4.5372,-4.588,-4.588,-4.588,-4.5863,-4.5821,0.0,-4.5996,-4.6149,-4.568,-4.5605,-4.6943,-4.7143,-4.7518,-4.8905,0.0,0.0,0.0,0.0,0.0,0.0,0.0,0.0,0.0,0.0,0.0,0.0,0.0,0.0,-5.3515,-5.3515,-5.3631,-5.3907,-5.3907,-5.4023,-5.4255,-5.427,-5.427,-5.4255,-5.4023,-5.3907,-5.3907,-5.3631,-5.3515,-5.3515,-5.3515,0.0,0.0,-5.3515,-5.3515,-5.3515,-5.3515,-5.3515,-5.3515,-5.3515,-5.3515,-5.3515,-5.3515,-5.3515,-5.3515,-5.3515,-5.3515,-5.3515,-5.3515,-5.3515,-5.3515,-5.3515,-5.3515,-5.3605,-5.4097,-5.456,-5.4917,-5.475,-5.5789,-5.6554,-5.5406,-5.6442,-5.748,-5.7147,-5.7731,-5.8413,-5.8671,-5.8869,-5.9168,-5.9624,-6.012,-6.0479,-6.0649,-6.0935,-6.1102,-6.1102,-6.1351,-6.1417,-6.1136,-6.0556,-5.9827,-5.8949,-5.8055,-5.7293,-5.6713,-5.668,-5.668,-5.668,-5.6162,-5.5676,-5.5296,-5.3875,-5.2947,-5.2561,-5.165,-5.1214,-4.4443,-4.5097,-4.5634,-4.5837,-4.588,-4.5745,0.0,0.0,-4.5745,-4.5216,-4.5124,-4.5405,-4.637,-4.6782,-4.7329,-4.8267,0.0,-5.1614,-5.1614,0.0,0.0,0.0,0.0,0.0,0.0,0.0,0.0,0.0,0.0,0.0,-5.3515,-5.3515,-5.3515,-5.3515,-5.3515,-5.3515,-5.3515,-5.3515,-5.3515,-5.3515,-5.3515,-5.3515,-5.3515,-5.3515,-5.3515,-5.3515,-5.3515,0.0,0.0,-5.3515,-5.3515,-5.3515,-5.3515,-5.3515,-5.3515,-5.3515,-5.3515,-5.3515,-5.3515,-5.3515,-5.3515,-5.3515,-5.3515,-5.3515,-5.3515,-5.3515,-5.3515,-5.3515,-5.3515,-5.3605,-5.42,-5.5104,-5.567,-5.4597,-5.5506,-5.6296,-5.529,-5.6344,-5.7433,-5.7433,-5.8011,-5.8626,-5.8943,-5.9123,-5.9375,-5.9859,-6.0206,-6.0437,-6.0565,-6.0893,-6.1036,-6.0804,-6.0771,-6.0771,-6.0771,-5.9628,-5.8833,-5.8708,-5.7448,-5.668,-5.668,-5.668,-5.668,-5.668,-5.6027,-5.5434,-5.4927,-5.3902,-5.2976,-5.217,-5.1773,-5.1479,-4.3819,-4.4443,-4.5053,-4.5721,-4.588,-4.5745,0.0,0.0,-4.5745,-4.5216,-4.5124,-4.5276,-4.5805,-4.6494,-4.7186,-4.7735,-4.9944,0.0,0.0,0.0,0.0,0.0,0.0,0.0,0.0,0.0,0.0,0.0,0.0,0.0,-5.3515,-5.3515,-5.3515,-5.3515,-5.3515,-5.3515,-5.3515,-5.3515,-5.3515,-5.3515,-5.3515,-5.3515,-5.3515,-5.3515,-5.3515,-5.3515,0.0,0.0,0.0,-5.3515,-5.3515,-5.3515,-5.3515,-5.3515,-5.3515,-5.3515,-5.3515,-5.3515,-5.3515,-5.3515,-5.3515,-5.3515,-5.3515,-5.3515,-5.3515,-5.3515,-5.3515,-5.3515,-5.3515,-5.3515,-5.3515,-5.4713,-5.5521,-5.3904,-5.5937,-5.7825,-5.6213,-5.7132,-5.8274,-5.8274,-5.8671,-5.8988,-5.8988,-5.9375,-5.9843,-6.0335,-6.0394,-6.0565,-6.1019,-6.1102,-6.0821,-6.0092,-6.0009,-6.0009,-6.0009,-5.933,-5.8708,-5.824,-5.7249,-5.668,-5.668,-5.668,-5.668,-5.668,-5.668,-5.5789,-5.4035,-5.4845,-5.3859,-5.1214,-5.217,-5.2094,-4.3253,-4.4081,-4.4937,-4.5155,-4.5547,-4.5745,-4.5216,0.0,-4.5745,-4.5216,-4.5413,-4.57,-4.588,-4.6819,-4.7579,-4.7782,-4.9582,0.0,0.0,0.0,0.0,0.0,0.0,0.0,0.0,0.0,0.0,0.0,0.0,0.0,-5.3515,-5.3515,-5.3515,-5.3515,-5.3515,-5.3515,-5.3515,-5.3515,-5.3515,-5.3515,-5.3515,-5.3515,-5.3515,-5.3515,-5.3515,0.0,0.0,0.0,0.0,-5.3515,-5.3515,-5.3515,-5.3515,-5.3515,-5.3515,-5.3515,-5.3515,-5.3515,-5.3515,-5.3515,-5.3515,-5.3515,-5.3515,-5.3515,-5.3515,-5.3515,-5.3515,-5.3515,-5.3904,-5.4289,-5.4289,-5.5104,-5.5769,-5.527,-5.636,-5.7338,-5.6844,-5.7527,-5.8397,-5.8733,-5.8914,-5.9213,-5.9875,-6.0076,-6.0351,-6.0793,-6.0893,-6.0935,-6.1061,-6.0672,-6.0258,-6.0026,-5.9098,-5.8485,-5.8485,-5.827,-5.7856,-5.7216,-5.6884,-5.668,-5.668,-5.668,-5.668,-5.668,-5.6083,-5.5474,-5.4886,-5.3902,-5.268,-5.1214,-5.1526,-5.1479,0.0,-4.3573,-4.4284,-4.4763,-4.5198,0.0,0.0,0.0,0.0,-4.5216,-4.5549,-4.588,-4.588,-4.6925,-4.7782,-4.7782,-4.9407,0.0,0.0,0.0,0.0,0.0,0.0,0.0,0.0,0.0,0.0,0.0,0.0,0.0,-5.3515,-5.3515,-5.3515,-5.3515,-5.3515,-5.3515,-5.3515,-5.3515,-5.3515,-5.3515,-5.3515,-5.3515,-5.3515,-5.3515,-5.3515,0.0,0.0,0.0,0.0,-5.3515,-5.3515,-5.3515,-5.3515,-5.3515,-5.3515,-5.3515,-5.3515,-5.3515,-5.3515,-5.3515,-5.3515,-5.3515,-5.3515,-5.3515,-5.3515,-5.3515,-5.3515,-5.3515,-5.3852,-5.4304,-5.4648,-5.5305,-5.5918,-5.5918,-5.6748,-5.748,-5.7147,-5.7731,-5.8459,-5.8898,-5.9123,-5.9508,-6.0249,-6.0565,-6.075,-6.1061,-6.1102,-6.1003,-6.0721,-6.0291,-5.9794,-5.9231,-5.8353,-5.7674,-5.7392,-5.7376,-5.7177,-5.6713,-5.668,-5.668,-5.668,-5.668,-5.668,-5.668,-5.6123,-5.5474,-5.4803,-5.2976,-5.1957,-5.1742,-5.1339,-5.1214,0.0,-4.2963,0.0,0.0,0.0,0.0,0.0,0.0,0.0,0.0,0.0,0.0,-4.588,-4.6925,-4.7782,-4.7782,-4.9364,0.0,0.0,0.0,0.0,0.0,0.0,0.0,0.0,0.0,0.0,0.0,0.0,0.0,-5.3515,-5.3515,-5.3515,-5.3515,-5.3515,-5.3515,-5.3515,-5.3515,-5.3515,-5.3515,-5.3515,-5.3515,-5.3515,-5.3515,-5.3515,0.0,0.0,0.0,0.0,-5.3515,-5.3515,-5.3515,-5.3515,-5.3515,-5.3515,-5.3515,-5.3515,-5.3515,-5.3515,-5.3515,-5.3515,-5.3515,-5.3515,-5.3515,-5.3568,-5.3568,-5.3515,-5.3568,-5.362,-5.3762,-5.4597,-5.5406,-5.5967,-5.5967,-5.7195,-5.812,-5.7385,-5.7825,-5.8504,-5.8988,-5.9464,-5.9903,-6.0394,-6.0793,-6.1086,-6.1036,-6.1036,-6.0771,-6.0026,-5.9877,-5.9314,-5.7939,-5.774,-5.7425,-5.6746,-5.668,-5.668,-5.668,-5.668,-5.668,-5.668,-5.668,-5.668,-5.668,-5.6641,-5.5708,-5.3907,-5.217,-5.1696,-5.2471,-5.1603,-5.1214,-4.2266,0.0,-4.3065,-4.3355,-4.4168,-4.4922,0.0,0.0,0.0,0.0,0.0,0.0,0.0,0.0,-4.7782,-4.7782,0.0,0.0,0.0,0.0,0.0,0.0,0.0,0.0,0.0,0.0,0.0,0.0,0.0,-5.3515,-5.3515,-5.3515,-5.3515,-5.3515,-5.3515,-5.3515,-5.3515,-5.3515,-5.3515,-5.3515,-5.3515,-5.3515,-5.3515,-5.3515,-5.3515,0.0,0.0,0.0,-5.3515,-5.3515,-5.3515,-5.3515,-5.3515,-5.3515,-5.3515,-5.3515,-5.3515,-5.3515,-5.3515,-5.3515,-5.3515,-5.3515,-5.3515,-5.3605,-5.4252,-5.4008,-5.3605,-5.4252,-5.4392,-5.4597,-5.5406,-5.6198,-5.6796,-5.6796,-5.759,-5.8367,-5.8534,-5.8717,-5.9078,-5.9903,-6.0163,-6.0378,-6.0835,-6.1019,-6.092,-6.034,-6.0258,-5.9993,-5.9247,-5.8668,-5.8171,-5.7823,-5.7293,-5.6879,-5.6697,-5.668,-5.668,-5.668,-5.668,-5.668,-5.668,-5.668,-5.668,-5.668,-5.5988,-5.472,-5.2947,-5.2471,-5.2048,-5.1511,-5.1308,-5.1214,-4.2092,-4.2339,-4.2644,-4.2919,-4.3732,-4.4545,0.0,0.0,0.0,0.0,0.0,0.0,0.0,0.0,0.0,0.0,-4.8856,0.0,0.0,0.0,0.0,0.0,0.0,0.0,0.0,0.0,0.0,0.0,0.0,-5.3515,-5.3515,-5.3515,-5.3515,-5.3515,-5.3515,-5.3515,-5.3515,-5.3515,-5.3515,-5.3515,-5.3515,-5.3515,-5.3515,-5.3515,-5.3515,0.0,0.0,0.0,-5.3515,-5.3515,-5.3515,-5.3515,-5.3515,-5.3515,-5.3515,-5.3515,-5.3515,-5.3515,-5.3515,-5.3515,-5.3515,-5.3515,-5.3762,-5.4149,-5.4545,-5.4648,-5.4713,-5.5104,-5.5255,-5.5506,-5.6524,-5.7116,-5.7543,-5.8149,-5.8639,-5.9017,-5.9286,-5.9331,-5.9552,-6.0265,-6.0394,-6.0565,-6.1019,-6.0821,-6.0456,-6.0059,-5.9711,-5.9231,-5.8485,-5.8038,-5.7657,-5.7326,-5.6928,-5.668,-5.668,-5.668,-5.668,-5.668,-5.668,-5.668,-5.668,-5.668,-5.668,-5.668,-5.5369,-5.4216,-5.3256,-5.2381,-5.1696,-5.1214,-5.1214,-5.1433,-4.2092,-4.2092,-4.2223,-4.2716,-4.3355,-4.4008,-4.4603,0.0,0.0,0.0,0.0,0.0,0.0,0.0,0.0,0.0,0.0,0.0,0.0,0.0,0.0,0.0,0.0,0.0,0.0,0.0,0.0,0.0,0.0,-5.3515,-5.3515,-5.3515,-5.3515,-5.3515,-5.3515,-5.3515,-5.3515,-5.3515,-5.3515,-5.3515,-5.3515,-5.3515,-5.3515,-5.3515,-5.3515,-5.3515,0.0,0.0,-5.3515,-5.3515,-5.3515,-5.3515,-5.3515,-5.3515,-5.3515,-5.3515,-5.3515,-5.3515,-5.3515,-5.3515,-5.3515,-5.3515,-5.3956,-5.4545,-5.4648,-5.5255,-5.5918,-5.6149,-5.6198,-5.6475,-5.7762,-5.8087,-5.8363,-5.9431,-5.9712,-5.9712,-5.9799,-5.9799,-5.9946,-6.0437,-6.0522,-6.0574,-6.087,-6.0423,-5.9926,-5.9694,-5.9131,-5.8469,-5.7723,-5.7624,-5.7376,-5.6763,-5.668,-5.668,-5.668,-5.668,-5.668,-5.668,-5.668,-5.668,-5.668,-5.668,-5.6641,-5.6469,-5.4985,-5.4147,-5.3976,-5.2381,-5.1603,-5.1603,-5.1603,-5.2002,-4.2092,-4.2092,-4.2121,-4.2208,-4.2687,-4.3311,-4.3979,0.0,0.0,0.0,0.0,0.0,0.0,0.0,0.0,0.0,0.0,0.0,0.0,0.0,0.0,0.0,0.0,0.0,0.0,0.0,0.0,0.0,0.0,-5.3515,-5.3515,-5.3515,-5.3515,-5.3515,-5.3515,-5.3515,-5.3515,-5.3515,-5.3515,-5.3515,-5.3515,-5.3515,-5.3515,-5.3515,-5.3515,-5.3515,0.0,-5.3515,-5.3515,-5.3515,-5.3515,-5.3515,-5.3515,-5.3515,-5.3515,-5.3515,-5.3515,-5.3515,-5.3515,-5.3515,-5.3515,-5.3515,-5.3568,-5.38,-5.4494,-5.5255,-5.61,-5.7196,-5.7527,-5.7808,-5.9059,-5.9387,-5.9476,-5.9668,-5.9712,-5.9799,-6.0206,-6.0292,-6.0437,-6.0877,-6.0977,-6.082,-6.0274,-6.0075,-5.9579,-5.832,-5.8038,-5.769,-5.6945,-5.6862,-5.6812,-5.6697,-5.668,-5.668,-5.668,-5.668,-5.668,-5.668,-5.668,-5.668,-5.668,-5.668,-5.6336,-5.5515,-5.5255,-5.472,-5.3976,-5.3719,-5.3545,-5.3545,-5.3545,-5.3212,-4.2092,-4.2092,-4.2092,-4.2092,-4.2818,-4.3616,-4.3921,0.0,0.0,0.0,0.0,0.0,0.0,0.0,0.0,0.0,0.0,0.0,0.0,0.0,0.0,0.0,0.0,0.0,0.0,0.0,0.0,0.0,0.0,0.0,-5.3515,-5.3515,-5.3515,-5.3515,-5.3515,-5.3515,-5.3515,-5.3515,-5.3515,-5.3515,-5.3515,-5.3515,-5.3515,-5.3515,-5.3515,-5.3515,0.0,-5.3515,-5.3515,-5.3515,-5.3515,-5.3515,-5.3515,-5.3515,-5.3515,-5.3515,-5.3515,-5.3515,-5.3515,-5.3515,-5.3515,-5.3515,-5.38,-5.4304,-5.5104,-5.6085,-5.7196,-5.8455,-5.8669,-5.8685,-5.9799,-6.0076,-6.0163,-6.0394,-6.0479,-6.0522,-6.075,-6.0793,-6.0835,-6.1061,-6.0788,-6.0407,-6.0059,-5.9347,-5.8585,-5.7889,-5.7442,-5.7061,-5.673,-5.668,-5.668,-5.668,-5.668,-5.668,-5.668,-5.668,-5.668,-5.668,-5.668,-5.668,-5.668,-5.668,-5.6508,-5.6067,-5.5555,-5.5092,-5.4678,-5.4232,-5.3976,-5.3992,-5.3474,-5.3284,-4.2092,-4.2092,-4.2092,-4.2092,-4.2934,-4.3805,-4.395,0.0,0.0,0.0,0.0,0.0,0.0,0.0,0.0,0.0,0.0,0.0,0.0,0.0,0.0,0.0,0.0,0.0,0.0,0.0,0.0,0.0,0.0,0.0,-5.3515,-5.3515,-5.3515,-5.3515,-5.3515,-5.3515,-5.3515,-5.3515,-5.3515,-5.3515,-5.3515,-5.3515,-5.3515,-5.3515,-5.3515,-5.3515,-5.3515,-5.3515,-5.3515,-5.3515,-5.3515,-5.3515,-5.3515,-5.3515,-5.3515,-5.3515,-5.3515,-5.3515,-5.3568,-5.3605,-5.3605,-5.3658,-5.4097,-5.475,-5.5356,-5.6329,-5.7512,-5.8847,-5.912,-5.9225,-6.0308,-6.0565,-6.0649,-6.1019,-6.1102,-6.1102,-6.1102,-6.097,-6.0854,-6.0854,-6.0258,-5.9694,-5.9512,-5.8552,-5.7723,-5.7558,-5.7044,-5.668,-5.668,-5.668,-5.668,-5.668,-5.668,-5.668,-5.668,-5.668,-5.668,-5.668,-5.668,-5.668,-5.668,-5.668,-5.668,-5.668,-5.5988,-5.5652,-5.5652,-5.4943,-5.4527,-5.4274,-5.3589,-5.3371,-4.2092,-4.2092,-4.2092,-4.2092,-4.2586,0.0,-4.3848,-4.4487,0.0,-4.575,0.0,0.0,0.0,0.0,0.0,0.0,0.0,0.0,0.0,0.0,0.0,0.0,0.0,0.0,0.0,0.0,0.0,0.0,0.0,0.0,-5.3515,-5.3515,-5.3515,-5.3515,-5.3515,-5.3515,-5.3515,-5.3515,-5.3515,-5.3515,-5.3515,-5.3515,-5.3515,-5.3515,-5.3515,-5.3515,-5.3515,-5.3515,-5.3515,-5.3515,-5.3515,-5.3515,-5.3515,-5.3515,-5.3515,-5.3515,-5.3515,-5.3515,-5.38,-5.3852,-5.3904,-5.4149,-5.4304,-5.4355,-5.4406,-5.5003,-5.5986,-5.7434,-5.8346,-5.925,-6.0692,-6.1061,-6.1061,-6.1102,-6.1102,-6.1102,-6.1102,-6.0572,-6.0075,-6.0075,-5.9479,-5.875,-5.8071,-5.7856,-5.7558,-5.6862,-5.6713,-5.668,-5.668,-5.668,-5.668,-5.668,-5.668,-5.668,-5.668,-5.668,-5.668,-5.668,-5.668,-5.668,-5.668,-5.668,-5.668,-5.668,-5.6641,-5.6603,-5.6603,-5.6564,-5.6044,-5.5215,-5.5133,-5.4243,-4.2092,-4.2092,-4.2179,-4.2557,-4.3137,0.0,0.0,-4.4777,-4.5576,-4.5837,-4.588,0.0,0.0,0.0,0.0,0.0,0.0,0.0,0.0,0.0,0.0,0.0,0.0,0.0,0.0,0.0,0.0,0.0,0.0,0.0,-5.3515,-5.3515,-5.3515,-5.3515,-5.3515,-5.3515,-5.3515,-5.3515,-5.3515,-5.3515,-5.3515,-5.3515,-5.3515,-5.3515,-5.3515,-5.3515,-5.3515,-5.3515,-5.3515,-5.3515,-5.3515,-5.3515,-5.3515,-5.3515,-5.3515,-5.371,-5.3658,-5.3568,-5.3815,-5.3904,-5.3904,-5.4008,-5.4149,-5.4392,-5.4917,-5.5475,-5.6283,-5.7962,-5.886,-5.9603,-6.0776,-6.1102,-6.1102,-6.1102,-6.1102,-6.0986,-6.0523,-6.0208,-5.986,-5.9396,-5.8717,-5.8121,-5.7839,-5.7409,-5.7011,-5.673,-5.668,-5.668,-5.668,-5.668,-5.668,-5.668,-5.668,-5.668,-5.668,-5.668,-5.668,-5.668,-5.668,-5.668,-5.668,-5.668,-5.668,-5.668,-5.668,-5.668,-5.668,-5.668,-5.6202,-5.5296,-5.472,-5.3789,-4.2092,-4.2092,-4.2194,-4.26,0.0,0.0,-4.3993,-4.498,-4.588,-4.588,-4.62,0.0,0.0,0.0,0.0,0.0,0.0,0.0,0.0,0.0,0.0,0.0,0.0,0.0,0.0,0.0,0.0,0.0,0.0,0.0,0.0,-5.3515,-5.3515,-5.3515,-5.3515,-5.3515,-5.3515,-5.3515,-5.3515,-5.3515,-5.3515,-5.3515,-5.3515,-5.3515,-5.3515,-5.3515,-5.3515,-5.3515,-5.3515,-5.3515,-5.3515,-5.3515,-5.3515,-5.3515,-5.3515,-5.371,-5.371,-5.3658,-5.3956,-5.4126,-5.4193,-5.4282,-5.4662,-5.5125,-5.569,-5.6283,-5.7056,-5.8409,-5.9,-5.9448,-6.0191,-6.0589,-6.0755,-6.0755,-6.0572,-6.0274,-5.9761,-5.9463,-5.9164,-5.8651,-5.7955,-5.7442,-5.7442,-5.7011,-5.668,-5.668,-5.668,-5.668,-5.668,-5.668,-5.668,-5.668,-5.668,-5.668,-5.668,-5.668,-5.668,-5.668,-5.668,-5.668,-5.668,-5.668,-5.668,-5.668,-5.668,-5.668,-5.668,-5.668,-5.6202,-5.5255,-5.4204,-5.3189,-4.2092,-4.2092,-4.2092,0.0,0.0,0.0,-4.4008,-4.498,-4.588,-4.588,0.0,-4.7767,-4.7782,0.0,0.0,0.0,0.0,0.0,0.0,0.0,0.0,0.0,0.0,0.0,0.0,0.0,0.0,0.0,0.0,0.0,0.0,-5.3515,-5.3515,-5.3515,-5.3515,-5.3515,-5.3515,-5.3515,-5.3515,-5.3515,-5.3515,-5.3515,-5.3515,-5.3515,-5.3515,-5.3515,-5.3515,-5.3515,-5.3515,-5.3515,-5.3515,-5.3515,-5.3515,-5.3515,-5.3515,-5.3515,-5.3658,-5.3956,-5.42,-5.4539,-5.4854,-5.5143,-5.5819,-5.6574,-5.6574,-5.7308,-5.8126,-5.8436,-5.8502,-5.8528,-5.8822,-5.9446,-5.9993,-5.9993,-5.9429,-5.8899,-5.8883,-5.832,-5.779,-5.7773,-5.7193,-5.668,-5.668,-5.668,-5.668,-5.668,-5.668,-5.668,-5.668,-5.668,-5.668,-5.668,-5.668,-5.668,-5.668,-5.668,-5.668,-5.668,-5.668,-5.668,-5.668,-5.668,-5.668,-5.668,-5.668,-5.668,-5.668,-5.668,-5.6202,-5.5223,-5.371,-5.2468,-4.2092,-4.2092,0.0,0.0,0.0,0.0,0.0,0.0,0.0,0.0,0.0,0.0,0.0,0.0,0.0,0.0,0.0,0.0,0.0,0.0,0.0,0.0,0.0,0.0,0.0,0.0,0.0,0.0,0.0,0.0,0.0,-5.3515,-5.3515,-5.3515,-5.3515,-5.3515,-5.3515,-5.3515,-5.3515,-5.3515,-5.3515,-5.3515,-5.3515,-5.3515,-5.3515,-5.3515,-5.3515,-5.3515,-5.3515,-5.3515,-5.3515,-5.3515,-5.3515,-5.362,-5.38,-5.4008,-5.4097,-5.4215,-5.4553,-5.4737,-5.4926,-5.564,-5.5896,-5.6041,-5.6684,-5.6708,-5.6734,-5.7506,-5.7715,-5.7894,-5.869,-5.8684,-5.8585,-5.9098,-5.9065,-5.875,-5.8237,-5.7939,-5.7641,-5.7111,-5.6846,-5.668,-5.668,-5.668,-5.668,-5.668,-5.668,-5.668,-5.668,-5.668,-5.668,-5.668,-5.668,-5.668,-5.668,-5.668,-5.668,-5.668,-5.668,-5.668,-5.668,-5.668,-5.668,-5.668,-5.668,-5.6432,-5.5951,-5.5951,-5.4888,-5.292,-5.2426,-5.1425,-4.202,0.0,0.0,0.0,0.0,0.0,0.0,0.0,0.0,0.0,0.0,0.0,0.0,0.0,0.0,0.0,0.0,0.0,0.0,0.0,0.0,0.0,0.0,0.0,0.0,0.0,0.0,0.0,0.0,0.0,0.0,-5.3007,-5.3138,-5.3138,-5.3384,-5.3515,-5.3515,-5.3515,-5.3515,-5.3515,-5.3515,-5.3515,-5.3515,-5.3515,-5.3515,-5.3515,-5.3515,-5.3553,-5.3658,-5.3658,-5.371,-5.38,-5.38,-5.3904,-5.406,-5.4252,-5.4193,-5.4139,-5.4321,-5.456,-5.4801,-5.5359,-5.5906,-5.6408,-5.7004,-5.7128,-5.7146,-5.746,-5.756,-5.7618,-5.7952,-5.769,-5.7541,-5.8287,-5.8237,-5.7889,-5.7442,-5.7342,-5.7227,-5.6779,-5.668,-5.668,-5.668,-5.668,-5.668,-5.668,-5.668,-5.668,-5.668,-5.668,-5.668,-5.668,-5.668,-5.668,-5.668,-5.668,-5.6564,-5.6282,-5.6266,-5.6133,-5.5835,-5.6117,-5.6266,-5.6266,-5.5644,-5.5127,-5.47,-5.432,-5.339,-5.1932,-5.1277,-5.0414,-4.1845,0.0,0.0,0.0,0.0,0.0,0.0,0.0,0.0,0.0,0.0,0.0,0.0,0.0,0.0,0.0,0.0,0.0,0.0,0.0,0.0,0.0,0.0,0.0,0.0,0.0,0.0,0.0,0.0,0.0,0.0,-5.2165,-5.2484,-5.2484,-5.3036,-5.3341,-5.3341,-5.3341,-5.3341,-5.3341,-5.3341,-5.3393,-5.3393,-5.3457,-5.3515,-5.3515,-5.3515,-5.3629,-5.3831,-5.3816,-5.3928,-5.4127,-5.4127,-5.4127,-5.4178,-5.4178,-5.3976,-5.3739,-5.3824,-5.4189,-5.4621,-5.4792,-5.597,-5.731,-5.7395,-5.8019,-5.8552,-5.7889,-5.769,-5.7541,-5.6862,-5.668,-5.6862,-5.7525,-5.7177,-5.668,-5.668,-5.668,-5.668,-5.668,-5.668,-5.668,-5.668,-5.668,-5.668,-5.668,-5.668,-5.668,-5.668,-5.668,-5.668,-5.668,-5.668,-5.6663,-5.6597,-5.6597,-5.6282,-5.5532,-5.5483,-5.5185,-5.4506,-5.5135,-5.5445,-5.5407,-5.4009,-5.3285,-5.3204,-5.23,-5.1862,-5.1742,-5.0232,-4.9493,0.0,0.0,0.0,0.0,0.0,0.0,0.0,0.0,0.0,0.0,0.0,0.0,0.0,0.0,0.0,0.0,0.0,0.0,0.0,0.0,0.0,0.0,0.0,0.0,0.0,0.0,0.0,0.0,0.0,0.0,-5.1614,-5.1744,-5.1831,-5.1831,-5.1962,-5.2035,-5.2035,-5.2035,-5.2122,0.0,-5.2311,-5.2412,-5.2673,-5.3221,-5.3515,-5.3515,-5.3515,-5.3396,-5.3202,-5.3121,-5.2968,-5.283,-5.283,-5.2915,-5.3114,-5.3114,-5.3223,-5.3432,-5.419,-5.451,-5.4839,-5.6312,-5.668,-5.6665,-5.7452,-5.745,-5.7127,-5.6962,-5.6928,-5.6895,-5.673,-5.668,-5.673,-5.6895,-5.6796,-5.668,-5.668,-5.668,-5.668,-5.668,-5.668,-5.668,-5.668,-5.668,-5.668,-5.668,-5.668,-5.668,-5.668,-5.668,-5.668,-5.668,-5.668,-5.6465,-5.5901,-5.5852,-5.5537,-5.4771,-5.4721,-5.4655,-5.4527,-5.4638,-5.4441,-5.3834,-5.3477,-5.3026,-5.242,-5.1566,-5.0841,-5.0263,-4.9274,-4.8454,0.0,0.0,0.0,0.0,0.0,0.0,0.0,0.0,0.0,0.0,0.0,0.0,0.0,0.0,0.0,0.0,0.0,0.0,0.0,0.0,0.0,0.0,0.0,0.0,0.0,0.0,0.0,0.0,0.0,-5.0685,-5.0685,-5.0989,-5.1164,-5.1164,-5.1468,-5.1614,-5.1614,-5.1715,-5.1852,-5.2003,-5.2103,-5.2267,-5.2397,-5.2821,-5.2961,-5.2961,-5.2961,-5.2938,-5.2883,-5.2853,-5.2797,-5.2798,-5.2798,-5.2847,-5.2994,-5.2994,-5.2897,-5.2807,-5.327,-5.3822,-5.4465,-5.5441,-5.6104,-5.6577,-5.7126,-5.6995,-5.668,-5.668,-5.668,-5.668,-5.668,-5.668,-5.668,-5.668,-5.668,-5.668,-5.668,-5.668,-5.668,-5.668,-5.668,-5.668,-5.668,-5.668,-5.668,-5.668,-5.668,-5.668,-5.668,-5.668,-5.6547,-5.6216,-5.6183,-5.5885,-5.5118,-5.5052,-5.4738,-5.403,-5.398,-5.3848,-5.3516,-5.35,-5.3449,-5.335,-5.2628,-5.1855,-5.1028,-5.0214,-4.9392,-4.8599,-4.8172,-4.7737,0.0,0.0,0.0,0.0,0.0,0.0,0.0,0.0,0.0,0.0,0.0,0.0,0.0,0.0,0.0,0.0,0.0,0.0,0.0,0.0,0.0,0.0,0.0,0.0,0.0,0.0,0.0,0.0,0.0,-4.9732,-4.9781,-5.0255,-5.056,-5.0659,-5.1119,-5.1345,-5.1395,-5.1631,-5.1766,-5.1815,-5.2078,-5.2176,-5.2176,-5.2176,-5.226,-5.2432,-5.2432,-5.2507,-5.2634,-5.2634,-5.2707,-5.283,-5.283,-5.283,-5.283,-5.283,-5.2501,-5.207,-5.2386,-5.3158,-5.4062,-5.4359,-5.5466,-5.668,-5.668,-5.668,-5.668,-5.668,-5.668,-5.668,-5.668,-5.668,-5.668,-5.668,-5.668,-5.668,-5.668,-5.668,-5.668,-5.668,-5.668,-5.668,-5.668,-5.668,-5.668,-5.668,-5.668,-5.663,-5.6531,-5.6498,-5.6233,-5.5466,-5.54,-5.5102,-5.4357,-5.4291,-5.4013,-5.3284,-5.3235,-5.2986,-5.2407,-5.2266,-5.2458,-5.2983,-5.1598,-5.0499,-4.9805,-4.8831,-4.8103,-4.7538,-4.7381,-4.7309,0.0,0.0,0.0,0.0,0.0,0.0,0.0,0.0,0.0,0.0,0.0,0.0,0.0,0.0,0.0,0.0,0.0,0.0,0.0,0.0,0.0,0.0,0.0,0.0,0.0,0.0,0.0,0.0,-4.9717,-4.9781,-5.0038,-4.9917,-5.0072,-5.0522,-5.0354,-5.0398,-5.0655,-5.0703,-5.0784,-5.0965,-5.1232,-5.1342,-5.1342,-5.1342,-5.1728,-5.2432,-5.2432,-5.2191,-5.1903,-5.1903,-5.1768,-5.1483,-5.1483,-5.1483,-5.1483,-5.1483,-5.1424,-5.1568,-5.3219,-5.3884,-5.4232,-5.5845,-5.6508,-5.668,-5.668,-5.668,-5.668,-5.668,-5.668,-5.668,-5.668,-5.668,-5.668,-5.668,-5.668,-5.668,-5.668,-5.668,-5.668,-5.668,-5.668,-5.668,-5.668,-5.668,-5.668,-5.668,-5.668,-5.6465,-5.5852,-5.5731,-5.545,-5.4742,-5.4676,-5.4361,-5.3616,-5.3566,-5.3268,-5.2556,-5.2523,-5.2473,-5.2409,-5.1655,-5.1317,-5.1415,-5.047,-4.9939,-4.9805,-4.824,-4.7822,-4.8407,-4.7651,-4.7309,0.0,0.0,0.0,0.0,0.0,0.0,0.0,0.0,0.0,0.0,0.0,0.0,0.0,0.0,0.0,0.0,0.0,0.0,0.0,0.0,0.0,0.0,0.0,0.0,0.0,0.0,0.0,0.0,-4.8943,-4.9194,-4.9291,-4.9688,-5.0038,-5.0294,-5.0294,-5.039,-5.0501,-5.0614,-5.079,-5.1011,-5.112,-5.1214,-5.1214,-5.1214,-5.1401,-5.1713,-5.1713,-5.1646,-5.1458,-5.1458,-5.1342,-5.1214,-5.1214,-5.1214,-5.1214,-5.1214,-5.1214,-5.1308,-5.2124,-5.2769,-5.3328,-5.4131,-5.5108,-5.5908,-5.5908,-5.6297,-5.668,-5.668,-5.668,-5.668,-5.668,-5.668,-5.668,-5.668,-5.668,-5.668,-5.668,-5.668,-5.668,-5.668,-5.668,-5.668,-5.668,-5.668,-5.6547,-5.615,-5.6084,-5.5835,-5.5069,-5.497,-5.4688,-5.3943,-5.3861,-5.3616,-5.2904,-5.2837,-5.2705,-5.2442,-5.2409,-5.2409,-5.2409,-5.2017,-5.1818,-5.1818,-5.0483,-4.9583,-4.9116,-4.8407,-4.7976,-4.7849,-4.7467,-4.7309,0.0,0.0,0.0,0.0,0.0,0.0,0.0,0.0,0.0,0.0,0.0,0.0,0.0,0.0,0.0,0.0,0.0,0.0,0.0,0.0,0.0,0.0,0.0,0.0,0.0,0.0,0.0,0.0,-4.8359,-4.8668,-4.873,-4.9326,-4.9747,-4.9875,-5.0047,-5.0156,-5.0189,-5.0332,-5.0519,-5.072,-5.072,-5.072,-5.072,-5.072,-5.072,-5.0735,-5.1079,-5.1214,-5.1214,-5.1214,-5.1214,-5.1214,-5.1214,-5.1214,-5.1214,-5.1214,-5.1109,-5.096,-5.1224,-5.1803,-5.2464,-5.2682,-5.3818,-5.5115,-5.5115,-5.5581,-5.6133,-5.6133,-5.6133,-5.6133,-5.6133,-5.6133,-5.6133,-5.6133,-5.6133,-5.6183,-5.6382,-5.6415,-5.6365,-5.6166,-5.6133,-5.6133,-5.6133,-5.6133,-5.5951,-5.5383,-5.5301,-5.5036,-5.4345,-5.4245,-5.3964,-5.3218,-5.3152,-5.2937,-5.2423,-5.2409,-5.2409,-5.2409,-5.2409,-5.2409,-5.2409,-5.2178,-5.2069,-5.2069,-5.0576,-4.9623,-4.9237,-4.8994,-4.8558,-4.7934,-4.7934,-4.7934,0.0,0.0,0.0,0.0,0.0,0.0,0.0,0.0,0.0,0.0,0.0,0.0,0.0,0.0,0.0,0.0,0.0,0.0,0.0,0.0,0.0,0.0,0.0,0.0,0.0,0.0,0.0,0.0,-4.8356,-4.863,-4.8875,-4.8706,-4.8813,-4.9329,-4.9102,-4.9117,-4.9374,-4.9374,-4.9374,-4.9419,-4.9419,-4.9419,-4.9419,-4.9419,-4.9419,-4.9479,-5.0676,-5.1214,-5.1214,-5.1214,-5.1214,-5.1214,-5.1214,-5.1214,-5.1214,-5.1214,-5.0779,-5.0378,-5.1268,-5.1724,-5.2084,-5.2965,-5.3819,-5.4551,-5.4551,-5.4589,-5.4589,-5.4589,-5.4589,-5.4589,-5.4589,-5.4589,-5.4589,-5.4589,-5.4589,-5.4825,-5.5499,-5.5648,-5.5433,-5.4775,-5.4589,-5.4589,-5.4589,-5.4589,-5.4589,-5.4539,-5.4539,-5.4274,-5.3566,-5.3483,-5.3202,-5.2506,-5.244,-5.2423,-5.2409,-5.2409,-5.2409,-5.2409,-5.2409,-5.2409,-5.2409,-5.1598,-5.1156,-5.1156,-5.0267,-5.0174,-5.0951,-5.0135,-4.9726,-4.9647,-4.9647,-4.9647,0.0,0.0,0.0,0.0,0.0,0.0,0.0,0.0,0.0,0.0,0.0,0.0,0.0,0.0,0.0,0.0,0.0,0.0,0.0,0.0,0.0,0.0,0.0,0.0,0.0,0.0,0.0,0.0,0.0,-4.7784,-4.7997,-4.8487,-4.8861,-4.9058,-4.9134,-4.9224,-4.9314,-4.9314,-4.9314,-4.9314,-4.9314,-4.9314,-4.9314,-4.9314,-4.9314,-4.9344,-4.9763,-4.9972,-4.9972,-4.9972,-4.9972,-4.9972,-4.9972,-4.9972,-4.9972,-4.9972,-4.9823,-4.9734,-5.061,-5.0931,-5.1156,-5.203,-5.2948,-5.3661,-5.3661,-5.4043,-5.449,-5.449,-5.449,-5.449,-5.449,-5.449,-5.449,-5.449,-5.449,-5.4423,-5.4208,-5.4539,-5.4804,-5.4539,-5.449,-5.449,-5.449,-5.449,-5.4324,-5.3881,-5.3814,-5.3549,-5.2837,-5.2754,-5.2655,-5.2442,-5.2409,-5.2409,-5.2409,-5.2409,-5.2409,-5.2409,-5.2409,-5.2409,-5.2409,-5.2106,-5.1944,-5.1944,-5.1619,-5.1048,-5.0252,-4.9423,-4.9035,-4.9035,-4.8449,-4.8214,0.0,0.0,0.0,0.0,0.0,0.0,0.0,0.0,0.0,0.0,0.0,0.0,0.0,0.0,0.0,0.0,0.0,0.0,0.0,0.0,0.0,0.0,0.0,0.0,0.0,0.0,0.0,0.0,0.0,0.0,-4.7422,-4.8015,-4.8343,-4.8343,-4.8522,-4.8655,-4.8655,-4.8655,-4.8655,-4.8655,-4.8655,-4.8655,-4.8655,-4.8655,-4.8655,-4.8655,-4.8655,-4.885,-4.9314,-4.9314,-4.9314,-4.9314,-4.9314,-4.9314,-4.9344,-4.9598,-4.958,-4.9501,-5.0306,-5.0658,-5.0802,-5.1389,-5.2161,-5.2943,-5.2943,-5.3337,-5.3798,-5.3798,-5.3798,-5.3798,-5.3798,-5.3798,-5.3798,-5.3798,-5.3798,-5.3665,-5.3169,-5.3632,-5.408,-5.3848,-5.3798,-5.3798,-5.3798,-5.3798,-5.3632,-5.3135,-5.3069,-5.2904,-5.2475,-5.2409,-5.2409,-5.2409,-5.2409,-5.2409,-5.2409,-5.2409,-5.2409,-5.2409,-5.2409,-5.2409,-5.2409,-5.2412,-5.2234,-5.1862,-5.1843,-5.114,-4.9805,-4.9559,-4.9278,-4.8994,-4.8407,-4.8003,0.0,0.0,0.0,0.0,0.0,0.0,0.0,0.0,0.0,0.0,0.0,0.0,0.0,0.0,0.0,0.0,0.0,0.0,0.0,0.0,0.0,0.0,0.0,0.0,0.0,0.0,0.0,0.0,-4.7164,-4.7309,-4.7309,-4.7309,-4.7309,-4.7309,-4.7309,-4.7309,-4.7309,-4.7309,-4.7309,-4.7309,-4.7309,-4.7309,-4.7309,-4.7309,-4.7309,-4.7309,-4.7309,-4.8027,-4.9254,-4.9254,-4.9254,-4.9254,-4.9254,-4.9254,-4.9329,-5.011,-5.0012,-4.9612,-5.0451,-5.092,-5.1102,-5.1118,-5.1709,-5.2409,-5.2409,-5.2409,-5.2409,-5.2409,-5.2409,-5.2409,-5.2409,-5.2409,-5.2409,-5.2409,-5.2409,-5.2409,-5.2409,-5.2904,-5.3185,-5.2523,-5.2409,-5.2409,-5.2409,-5.2409,-5.2409,-5.2409,-5.2409,-5.2409,-5.2409,-5.2409,-5.2409,-5.2409,-5.2409,-5.2409,-5.2409,-5.2409,-5.2409,-5.2409,-5.2409,-5.239,-5.2407,-5.2393,-5.1847,-5.0709,-5.0678,-5.0366,-4.9805,-5.0631,-5.0592,-4.9765,-4.9726,-4.9303,-3.903,0.0,0.0,0.0,0.0,0.0,0.0,0.0,0.0,0.0,0.0,0.0,0.0,0.0,0.0,0.0,0.0,0.0,0.0,0.0,0.0,0.0,0.0,0.0,0.0,0.0,0.0,0.0,-4.7062,-4.7121,-4.7309,-4.7309,-4.7309,-4.7309,-4.7309,-4.7309,-4.7309,-4.7309,-4.7309,-4.7309,-4.7309,-4.7309,-4.7309,-4.7309,-4.7309,-4.7309,-4.7309,-4.7519,-4.7848,-4.7848,-4.7848,-4.7848,-4.7848,-4.7848,-4.7892,-4.8079,-4.8487,-4.896,-4.9786,-5.0543,-5.1194,-5.1835,-5.2214,-5.2409,-5.2409,-5.2409,-5.2409,-5.2409,-5.2409,-5.2409,-5.2409,-5.2409,-5.2409,-5.2409,-5.2409,-5.2409,-5.2409,-5.2539,-5.2605,-5.2423,-5.2409,-5.2409,-5.2409,-5.2409,-5.2409,-5.2409,-5.2409,-5.2409,-5.2409,-5.2409,-5.2409,-5.2409,-5.2409,-5.2409,-5.2409,-5.2409,-5.2409,-5.2409,-5.2409,-5.2412,-5.2405,-5.2412,-5.1864,-5.0731,-4.9913,-4.9594,-4.9805,-4.9479,-4.9157,-4.8913,-4.8297,-4.7849,-3.8681,0.0,0.0,0.0,0.0,0.0,-4.2034,-4.2092,0.0,0.0,0.0,0.0,0.0,0.0,0.0,0.0,0.0,0.0,0.0,0.0,0.0,0.0,0.0,0.0,0.0,-4.7062,-4.7121,-4.7309,-4.7164,-4.7164,-4.7309,-4.7309,-4.7309,-4.7309,-4.7309,-4.7309,-4.7309,-4.7309,-4.7309,-4.7309,-4.7309,-4.7309,-4.7309,-4.7309,-4.7309,-4.7309,-4.7309,-4.7309,-4.7309,-4.7309,-4.7309,-4.7309,-4.7309,-4.7309,-4.7381,-4.8088,-4.8666,-4.9278,-5.0461,-5.1215,-5.1745,-5.2214,-5.2409,-5.2409,-5.2409,-5.2409,-5.2409,-5.2409,-5.2409,-5.2409,-5.2409,-5.2409,-5.2409,-5.2409,-5.2409,-5.2409,-5.2409,-5.2409,-5.2409,-5.2409,-5.2409,-5.2409,-5.2409,-5.2409,-5.2409,-5.2409,-5.2409,-5.2409,-5.2409,-5.2409,-5.2409,-5.2409,-5.2409,-5.2409,-5.2409,-5.2409,-5.2409,-5.2409,-5.2409,-5.2406,-5.241,-5.1048,-5.0628,-5.1396,-5.0018,-4.9119,-4.8749,-4.8641,-4.8407,-4.8061,-4.7538,-4.7309,0.0,0.0,0.0,0.0,0.0,0.0,-4.1845,-4.2034,-4.2133,0.0,0.0,0.0,0.0,0.0,0.0,0.0,0.0,0.0,0.0,0.0,0.0,0.0,0.0,0.0,-4.6812,-4.706,-4.7234,-4.7294,-4.7309,-4.7309,-4.7309,-4.7309,-4.7309,-4.7309,-4.7309,-4.7309,-4.7309,-4.7309,-4.7309,-4.7309,-4.7309,-4.7309,-4.7309,-4.7309,-4.7309,-4.7309,-4.7309,-4.7309,-4.7309,-4.7309,-4.7309,-4.7309,-4.7309,-4.7309,-4.7467,-4.8994,-4.9567,-4.99,-5.1455,-5.2106,-5.2266,-5.2266,-5.2338,-5.2409,-5.2409,-5.2409,-5.2409,-5.2409,-5.2409,-5.2409,-5.2409,-5.2409,-5.2409,-5.2409,-5.2409,-5.2409,-5.2409,-5.2409,-5.2409,-5.2409,-5.2409,-5.2409,-5.2409,-5.2409,-5.2409,-5.2409,-5.2409,-5.2409,-5.2409,-5.2409,-5.2409,-5.2409,-5.2409,-5.2409,-5.2409,-5.2409,-5.2407,-5.2401,-5.2401,-5.2412,-5.2384,-4.9102,-4.8745,-5.1767,-5.0433,-4.8949,-4.7309,-4.8103,-4.8061,-4.7309,-4.7309,-4.7309,0.0,0.0,0.0,0.0,0.0,0.0,-4.1265,-4.1864,-4.2366,0.0,0.0,0.0,0.0,0.0,0.0,0.0,0.0,0.0,0.0,0.0,0.0,0.0,0.0,0.0,-4.6371,-4.6474,-4.6741,-4.7264,-4.7309,-4.7309,-4.7309,-4.7309,-4.7309,-4.7309,-4.7309,-4.7309,-4.7309,-4.7309,-4.7309,-4.7309,-4.7309,-4.7309,-4.7309,-4.7309,-4.7309,-4.7309,-4.7309,-4.7309,-4.7309,-4.7309,-4.7309,-4.7309,-4.7309,-4.7309,-4.7337,-4.7666,-4.824,-4.8872,-4.9237,-5.0229,-5.1343,-5.1343,-5.1818,-5.2409,-5.2409,-5.2409,-5.2409,-5.2409,-5.2409,-5.2409,-5.2409,-5.2409,-5.2409,-5.2409,-5.2409,-5.2409,-5.2409,-5.2409,-5.2409,-5.2409,-5.2409,-5.2409,-5.2409,-5.2409,-5.2409,-5.2409,-5.2409,-5.2409,-5.2409,-5.2409,-5.2409,-5.2409,-5.2409,-5.2409,-5.2409,-5.2409,-5.2392,-5.2396,-5.2412,-5.2399,-5.2419,-4.9101,-4.759,-4.8275,-4.8877,-4.855,-4.7309,-4.7467,-4.7467,-4.7309,-4.7309,-4.7309,0.0,0.0,0.0,-3.9255,0.0,0.0,0.0,-4.1741,-4.2159,-4.2482,0.0,0.0,0.0,0.0,0.0,0.0,0.0,0.0,0.0,0.0,0.0,0.0,0.0,0.0,-4.5783,-4.5813,-4.5948,-4.6277,-4.6621,-4.6815,-4.6815,-4.713,-4.7309,-4.7309,-4.7309,-4.7309,-4.7309,-4.7309,-4.7309,-4.7309,-4.7309,-4.7309,-4.7309,-4.7309,-4.7309,-4.7309,-4.7309,-4.7309,-4.7309,-4.7309,-4.7309,-4.7309,-4.7309,-4.7309,-4.7381,-4.8256,-4.8831,-4.9303,-5.019,-5.1027,-5.1745,-5.1745,-5.2053,-5.2338,-5.1871,-5.1745,-5.1818,-5.2266,-5.2409,-5.2409,-5.2409,-5.2409,-5.2409,-5.2409,-5.2409,-5.2409,-5.2409,-5.2409,-5.2409,-5.2409,-5.2409,-5.2409,-5.2409,-5.2409,-5.2409,-5.2409,-5.2409,-5.2409,-5.2409,-5.2409,-5.2409,-5.2409,-5.2409,-5.2409,-5.2409,-5.2406,-5.2393,-5.241,-5.081,-4.9844,-4.9853,-4.8213,-4.7293,-4.7314,-4.7846,-4.787,-4.7309,-4.7309,-4.7309,-4.7309,-4.7309,-4.7309,0.0,0.0,0.0,0.0,0.0,-4.0109,0.0,0.0,0.0,-4.2636,0.0,0.0,0.0,0.0,0.0,0.0,0.0,0.0,0.0,0.0,0.0,0.0,0.0,0.0,0.0,-4.5214,-4.5289,-4.5289,-4.5813,-4.6127,-4.6127,-4.6636,-4.692,-4.692,-4.7055,-4.7115,-4.7115,-4.7249,-4.7309,-4.7309,-4.7309,-4.7309,-4.7309,-4.7309,-4.7309,-4.7309,-4.7309,-4.7309,-4.7309,-4.7309,-4.7309,-4.7309,-4.7309,-4.7309,-4.7452,-4.8831,-4.9343,-4.9543,-5.0951,-5.1619,-5.1891,-5.1891,-5.2142,-5.2266,-5.1545,-5.1343,-5.1508,-5.2214,-5.2409,-5.2409,-5.2409,-5.2409,-5.2409,-5.2409,-5.2409,-5.2409,-5.2409,-5.2409,-5.2409,-5.2409,-5.2409,-5.2409,-5.2409,-5.2409,-5.2409,-5.2409,-5.2409,-5.2409,-5.2409,-5.2409,-5.2409,-5.2409,-5.2409,-5.2409,-5.2409,-5.2388,-5.2251,-5.1896,-4.9005,-4.7603,-4.8255,-4.7963,-4.7729,-4.7626,-4.7626,-4.754,-4.7309,-4.7309,-4.7309,-4.7309,-4.7309,-4.7309,0.0,0.0,0.0,0.0,-3.9357,0.0,0.0,0.0,-4.2169,-4.2822,0.0,0.0,0.0,0.0,0.0,0.0,0.0,0.0,0.0,0.0,0.0,0.0,0.0,0.0,0.0,-4.4945,-4.5289,-4.5289,-4.5364,-4.5409,-4.5409,-4.5484,-4.5529,-4.5529,-4.6112,-4.6384,-4.6384,-4.701,-4.7309,-4.7309,-4.7309,-4.7309,-4.7309,-4.7309,-4.7309,-4.7309,-4.7309,-4.7309,-4.7309,-4.7309,-4.7309,-4.7309,-4.7309,-4.7309,-4.7309,-4.7495,-4.7581,-4.7624,-4.7822,-4.8831,-5.0096,-5.0096,-5.114,-5.2373,-5.2302,-5.225,-5.2266,-5.2373,-5.2409,-5.2409,-5.2409,-5.2409,-5.2409,-5.2409,-5.2409,-5.2409,-5.2409,-5.2409,-5.2409,-5.2409,-5.2409,-5.2409,-5.2409,-5.2409,-5.2409,-5.2409,-5.2409,-5.2409,-5.2409,-5.2409,-5.2409,-5.2409,-5.2409,-5.2409,-5.2409,-5.2404,-5.174,-5.0193,-4.8326,-4.8665,-5.1694,-5.0327,-4.9303,-4.883,-4.8789,-4.8324,-4.7309,-4.7309,-4.7309,-4.7309,-4.7309,-4.7309,0.0,0.0,0.0,0.0,0.0,0.0,-4.0404,0.0,-4.139,0.0,0.0,0.0,0.0,0.0,0.0,0.0,-4.325,0.0,0.0,0.0,0.0,0.0,0.0,0.0,0.0,0.0,0.0,0.0,-4.4511,-4.4721,-4.4721,-4.5095,-4.5289,-4.5289,-4.5574,-4.5723,-4.5723,-4.6007,-4.6142,-4.6142,-4.6142,-4.6142,-4.6157,-4.6561,-4.6741,-4.6756,-4.713,-4.7309,-4.7309,-4.7309,-4.7309,-4.7309,-4.7309,-4.7309,-4.7337,-4.7849,-4.8366,-4.8831,-4.9318,-5.0322,-5.129,-5.129,-5.1455,-5.1745,-5.2266,-5.2069,-5.1745,-5.2266,-5.2409,-5.2409,-5.2409,-5.2409,-5.2409,-5.2409,-5.2409,-5.2409,-5.2409,-5.2409,-5.2409,-5.2409,-5.2409,-5.2409,-5.2409,-5.2409,-5.2409,-5.2409,-5.2409,-5.2409,-5.2409,-5.2409,-5.2409,-5.2409,-5.2409,-5.2409,-5.2409,-5.2419,-5.2081,-5.1356,-4.9677,-4.9242,-5.0376,-4.9099,-4.8244,-4.7998,-4.7998,-4.777,-4.7309,-4.7309,-4.7309,-4.7309,-4.7309,-4.7309,-4.0469,0.0,0.0,0.0,0.0,0.0,0.0,0.0,0.0,0.0,0.0,0.0,0.0,0.0,0.0,0.0,0.0,-4.3135,0.0,0.0,0.0,0.0,0.0,0.0,0.0,0.0,0.0,-4.329,-4.3738,-4.4047,-4.4047,-4.4496,-4.4751,-4.4751,-4.493,-4.5035,-4.5035,-4.5214,-4.5289,-4.5289,-4.5289,-4.5289,-4.5304,-4.5813,-4.6037,-4.6067,-4.6546,-4.6756,-4.6756,-4.6756,-4.6756,-4.6756,-4.6756,-4.6869,-4.7196,-4.8228,-4.9116,-4.9884,-5.0538,-5.1306,-5.2069,-5.2338,-5.198,-5.1582,-5.223,-5.1944,-5.1582,-5.2214,-5.2409,-5.2409,-5.2409,-5.2409,-5.2409,-5.2409,-5.2409,-5.2409,-5.2409,-5.2409,-5.2409,-5.2409,-5.2409,-5.2409,-5.2409,-5.2409,-5.2409,-5.2409,-5.2409,-5.2409,-5.2409,-5.2409,-5.2409,-5.2409,-5.2409,-5.2409,-5.2409,-5.2412,-5.1986,-5.1086,-5.0413,-4.9718,-4.9015,-4.8339,-4.7892,-4.7666,-4.7666,-4.7538,-4.7309,-4.7309,-4.7309,-4.7309,-4.7309,-4.7309,0.0,0.0,0.0,-4.0531,0.0,0.0,0.0,0.0,-4.0591,0.0,0.0,0.0,0.0,0.0,0.0,0.0,0.0,0.0,0.0,0.0,0.0,0.0,0.0,0.0,0.0,0.0,0.0,-4.329,-4.3319,-4.3319,-4.3319,-4.3349,-4.3349,-4.3349,-4.4003,-4.4347,-4.4347,-4.4975,-4.5289,-4.5289,-4.5289,-4.5289,-4.5289,-4.5319,-4.5334,-4.5334,-4.5349,-4.5349,-4.5349,-4.5349,-4.5349,-4.5349,-4.5349,-4.5828,-4.6677,-4.8081,-4.9116,-4.9805,-4.9844,-5.0422,-5.1268,-5.2142,-5.2373,-5.2373,-5.2373,-5.2373,-5.2373,-5.2373,-5.2409,-5.2409,-5.2409,-5.2409,-5.2409,-5.2409,-5.2409,-5.2409,-5.2409,-5.2409,-5.2409,-5.2409,-5.2409,-5.2409,-5.2409,-5.2409,-5.2409,-5.2409,-5.2409,-5.2409,-5.2409,-5.2409,-5.2409,-5.2409,-5.2409,-5.2409,-5.2409,-5.2407,-5.0985,-4.769,-4.9475,-5.0157,-4.9056,-4.9473,-4.9343,-4.8573,-4.8573,-4.813,-4.7309,-4.7309,-4.7309,-4.7309,-4.7309,-4.7309,0.0,0.0,-4.1811,-4.0666,0.0,0.0,0.0,0.0,0.0,0.0,0.0,0.0,0.0,0.0,0.0,0.0,0.0,0.0,0.0,0.0,0.0,0.0,0.0,0.0,0.0,0.0,0.0,-4.329,-4.329,-4.329,-4.329,-4.329,-4.329,-4.329,-4.3514,-4.3618,-4.3618,-4.3843,-4.4003,-4.4003,-4.4003,-4.4003,-4.4003,-4.4451,-4.4646,-4.4661,-4.511,-4.5289,-4.5289,-4.5289,-4.5289,-4.5289,-4.5289,-4.6127,-4.7301,-4.7234,-4.8059,-4.9357,-5.0412,-5.1299,-5.2017,-5.2302,-5.2409,-5.2409,-5.2409,-5.2409,-5.2409,-5.2409,-5.2409,-5.2409,-5.2409,-5.2409,-5.2409,-5.2409,-5.2409,-5.2409,-5.2409,-5.2409,-5.2409,-5.2409,-5.2409,-5.2409,-5.2409,-5.2409,-5.2409,-5.2409,-5.2409,-5.2409,-5.2409,-5.2409,-5.2409,-5.2409,-5.2409,-5.2409,-5.2409,-5.1871,-5.065,-4.8567,-4.9126,-4.9318,-4.8757,-4.8346,-4.8019,-4.7737,-4.7737,-4.7581,-4.7309,-4.7309,-4.7309,-4.7309,-4.7309,-4.7309,-4.2821,-4.2701,0.0,-4.107,-4.0756,0.0,-3.9634,0.0,0.0,0.0,0.0,0.0,0.0,0.0,0.0,0.0,0.0,0.0,0.0,-4.1422,0.0,0.0,0.0,0.0,0.0,0.0,-4.309,-4.3275,-4.329,-4.329,0.0,0.0,-4.329,-4.329,-4.329,-4.329,-4.329,-4.329,-4.329,-4.329,-4.329,-4.329,-4.3305,-4.3738,-4.3917,-4.3988,-4.4407,-4.4601,-4.4601,-4.4601,-4.4601,-4.4601,-4.4601,-4.5386,-4.6604,-4.6835,-4.7977,-4.9491,-5.0544,-5.1214,-5.1612,-5.1612,-5.1777,-5.2028,-5.2028,-5.221,-5.2409,-5.2409,-5.2409,-5.2409,-5.2409,-5.2409,-5.2409,-5.2409,-5.2409,-5.2409,-5.2409,-5.2409,-5.2409,-5.2409,-5.2409,-5.2409,-5.2409,-5.2409,-5.2409,-5.2409,-5.2409,-5.2409,-5.2409,-5.2409,-5.2409,-5.2409,-5.2409,-5.2233,-5.1809,-5.1348,-5.0323,-4.8509,-4.8666,-4.864,-4.8172,-4.7581,-4.7189,-4.6965,-4.7189,-4.7189,-4.695,-4.7189,-4.7309,-4.7309,-4.7309,-4.7309]},{"header":{"parameterUnit":"m.s-1","parameterCategory":1,"la1":30.6,"la2":29.2853,"lo1":-89.7004,"lo2":-87.6739,"dy":0.0162,"dx":0.0183,"nx":112,"ny":82,"refTime":"2023-06-07T06:00:00:Z","depth":0,"parameterNumber":3,"parameterNumberName":"V-component_of_WINDS"},"data":[0.0,0.0,0.0,0.0,0.0,0.0,0.0,0.0,0.0,0.0,0.0,0.0,0.0,0.0,0.0,0.0,0.0,0.0,0.0,0.0,0.0,0.0,0.0,0.0,0.0,0.0,0.0,0.0,0.0,0.0,0.0,0.0,0.0,0.0,0.0,0.0,0.0,0.0,0.0,0.0,0.0,0.0,0.0,0.0,0.0,0.0,0.0,0.0,0.0,0.0,0.0,0.0,0.0,0.0,0.0,0.0,0.0,0.0,0.0,0.0,0.0,0.0,0.0,0.0,0.0,0.0,0.0,0.0,0.0,0.0,0.0,0.0,0.0,0.0,0.0,0.0,0.0,0.0,0.0,0.0,0.0,0.0,0.0,0.0,0.0,0.0,0.0,0.0,0.0,0.0,-2.7394,-2.7309,-2.7309,-2.7309,-2.7309,-2.7309,-2.7309,-2.7309,0.0,0.0,0.0,0.0,0.0,0.0,0.0,0.0,0.0,0.0,0.0,0.0,0.0,0.0,0.0,0.0,0.0,0.0,0.0,0.0,0.0,0.0,0.0,0.0,0.0,0.0,0.0,0.0,0.0,0.0,0.0,0.0,0.0,0.0,0.0,0.0,0.0,0.0,0.0,0.0,0.0,0.0,0.0,0.0,0.0,0.0,0.0,0.0,0.0,0.0,0.0,0.0,0.0,0.0,0.0,0.0,0.0,0.0,0.0,0.0,0.0,0.0,0.0,0.0,0.0,0.0,0.0,0.0,0.0,0.0,0.0,0.0,0.0,0.0,0.0,0.0,0.0,0.0,0.0,0.0,0.0,0.0,0.0,0.0,0.0,0.0,0.0,0.0,0.0,0.0,0.0,0.0,0.0,0.0,0.0,0.0,0.0,0.0,0.0,0.0,0.0,0.0,0.0,0.0,-2.7762,-2.7357,-2.7309,-2.7309,-2.7309,-2.7309,-2.7309,-2.7309,0.0,0.0,0.0,0.0,0.0,0.0,0.0,0.0,0.0,0.0,0.0,0.0,0.0,0.0,0.0,0.0,0.0,0.0,0.0,0.0,0.0,0.0,0.0,0.0,0.0,0.0,0.0,0.0,0.0,0.0,0.0,0.0,0.0,0.0,0.0,0.0,0.0,0.0,0.0,0.0,0.0,0.0,0.0,0.0,0.0,0.0,0.0,0.0,0.0,0.0,0.0,0.0,0.0,0.0,0.0,0.0,0.0,0.0,0.0,0.0,0.0,0.0,0.0,0.0,0.0,0.0,0.0,0.0,0.0,0.0,0.0,0.0,0.0,0.0,0.0,0.0,0.0,0.0,0.0,0.0,0.0,0.0,0.0,0.0,0.0,0.0,0.0,0.0,0.0,0.0,0.0,0.0,0.0,0.0,0.0,0.0,0.0,0.0,0.0,0.0,0.0,0.0,0.0,-2.7998,-2.7809,-2.7347,-2.7309,-2.7309,-2.7309,-2.7309,-2.7309,-2.7309,-2.7309,0.0,0.0,0.0,0.0,0.0,0.0,0.0,0.0,0.0,0.0,0.0,0.0,0.0,0.0,0.0,0.0,0.0,0.0,0.0,0.0,0.0,0.0,0.0,0.0,0.0,0.0,0.0,0.0,0.0,0.0,0.0,0.0,0.0,0.0,0.0,0.0,0.0,0.0,0.0,0.0,0.0,0.0,0.0,0.0,0.0,0.0,0.0,0.0,0.0,0.0,0.0,0.0,0.0,0.0,0.0,0.0,0.0,0.0,0.0,0.0,0.0,0.0,0.0,0.0,0.0,0.0,0.0,0.0,0.0,0.0,0.0,0.0,0.0,0.0,0.0,0.0,0.0,0.0,0.0,0.0,0.0,0.0,0.0,0.0,0.0,0.0,0.0,0.0,0.0,0.0,0.0,0.0,0.0,0.0,0.0,0.0,0.0,0.0,0.0,0.0,0.0,0.0,-2.7998,-2.7726,-2.7357,-2.7309,-2.7309,-2.7309,-2.7309,-2.7309,-2.7309,-2.7309,0.0,0.0,0.0,0.0,0.0,0.0,0.0,0.0,0.0,0.0,0.0,0.0,0.0,0.0,0.0,0.0,0.0,0.0,0.0,0.0,0.0,0.0,0.0,0.0,0.0,0.0,0.0,0.0,0.0,0.0,0.0,0.0,0.0,0.0,0.0,0.0,0.0,0.0,0.0,0.0,0.0,0.0,0.0,0.0,0.0,0.0,0.0,0.0,0.0,0.0,0.0,0.0,0.0,0.0,0.0,0.0,0.0,0.0,0.0,0.0,0.0,0.0,0.0,0.0,0.0,0.0,0.0,0.0,0.0,0.0,0.0,0.0,0.0,0.0,0.0,0.0,0.0,0.0,0.0,0.0,0.0,0.0,0.0,0.0,0.0,0.0,0.0,0.0,0.0,0.0,0.0,0.0,0.0,0.0,0.0,0.0,0.0,0.0,0.0,0.0,0.0,0.0,-2.7914,-2.7357,-2.7309,-2.7309,-2.7309,-2.7309,-2.7309,-2.7309,-2.7309,-2.7309,0.0,0.0,0.0,0.0,0.0,0.0,0.0,0.0,0.0,0.0,0.0,0.0,0.0,0.0,0.0,0.0,0.0,0.0,0.0,0.0,0.0,0.0,0.0,0.0,0.0,0.0,0.0,0.0,0.0,0.0,0.0,0.0,0.0,0.0,0.0,0.0,0.0,0.0,0.0,0.0,0.0,0.0,0.0,0.0,0.0,0.0,0.0,0.0,0.0,0.0,0.0,0.0,0.0,0.0,0.0,0.0,0.0,0.0,0.0,0.0,0.0,0.0,0.0,0.0,0.0,0.0,0.0,0.0,0.0,0.0,0.0,0.0,0.0,0.0,0.0,0.0,0.0,0.0,0.0,0.0,0.0,0.0,0.0,0.0,0.0,0.0,0.0,0.0,0.0,0.0,0.0,0.0,0.0,0.0,0.0,0.0,0.0,0.0,0.0,0.0,0.0,0.0,-2.9556,-2.8988,-2.8648,-2.8307,-2.8258,-2.86,-2.8296,-2.8133,-2.8237,0.0,0.0,0.0,0.0,0.0,0.0,0.0,0.0,0.0,0.0,0.0,0.0,0.0,0.0,0.0,0.0,0.0,0.0,0.0,0.0,0.0,0.0,0.0,0.0,0.0,0.0,0.0,0.0,0.0,0.0,0.0,0.0,0.0,0.0,0.0,0.0,0.0,0.0,0.0,0.0,0.0,0.0,0.0,0.0,0.0,0.0,0.0,0.0,0.0,0.0,0.0,0.0,0.0,0.0,0.0,0.0,0.0,0.0,0.0,0.0,0.0,0.0,0.0,0.0,0.0,0.0,0.0,0.0,0.0,0.0,0.0,0.0,0.0,0.0,0.0,0.0,0.0,0.0,0.0,0.0,0.0,0.0,0.0,0.0,0.0,0.0,0.0,0.0,0.0,0.0,0.0,0.0,0.0,0.0,0.0,0.0,0.0,0.0,0.0,0.0,0.0,0.0,-3.1016,-3.054,-3.0112,0.0,-2.9215,-2.9016,-2.9363,-2.9066,-2.883,-2.8722,0.0,0.0,0.0,0.0,0.0,0.0,0.0,0.0,0.0,0.0,0.0,0.0,0.0,0.0,0.0,0.0,0.0,0.0,0.0,0.0,0.0,0.0,0.0,0.0,0.0,0.0,0.0,0.0,0.0,0.0,0.0,0.0,0.0,0.0,0.0,0.0,0.0,0.0,0.0,0.0,0.0,0.0,0.0,0.0,0.0,0.0,0.0,0.0,0.0,0.0,0.0,0.0,0.0,0.0,0.0,0.0,0.0,0.0,0.0,0.0,0.0,0.0,0.0,0.0,0.0,0.0,0.0,0.0,0.0,0.0,0.0,0.0,0.0,0.0,0.0,0.0,0.0,0.0,0.0,0.0,0.0,0.0,0.0,0.0,0.0,0.0,0.0,0.0,0.0,0.0,0.0,0.0,0.0,0.0,0.0,0.0,0.0,0.0,0.0,0.0,0.0,0.0,-3.1035,-3.0599,-3.0307,-3.0307,-2.9768,-2.9423,-2.9423,-2.9423,-2.9176,0.0,0.0,0.0,0.0,0.0,0.0,0.0,0.0,0.0,0.0,0.0,0.0,0.0,0.0,0.0,0.0,0.0,0.0,0.0,0.0,0.0,0.0,0.0,0.0,0.0,0.0,0.0,0.0,0.0,0.0,0.0,0.0,0.0,0.0,0.0,0.0,0.0,0.0,0.0,0.0,0.0,0.0,0.0,0.0,0.0,0.0,0.0,0.0,0.0,0.0,0.0,0.0,0.0,0.0,0.0,0.0,0.0,0.0,0.0,0.0,0.0,0.0,0.0,0.0,0.0,0.0,0.0,0.0,0.0,0.0,0.0,0.0,0.0,0.0,0.0,0.0,0.0,0.0,0.0,0.0,0.0,0.0,0.0,0.0,0.0,0.0,0.0,0.0,0.0,0.0,0.0,0.0,0.0,0.0,0.0,0.0,0.0,0.0,0.0,0.0,0.0,0.0,0.0,-3.2579,-3.2155,-3.1784,-3.1784,-3.1293,-3.0951,-3.0951,-3.0584,-3.0191,-2.9701,0.0,0.0,0.0,0.0,0.0,0.0,0.0,0.0,0.0,0.0,0.0,0.0,0.0,0.0,0.0,0.0,0.0,0.0,0.0,0.0,0.0,0.0,0.0,0.0,0.0,0.0,0.0,0.0,0.0,0.0,0.0,0.0,0.0,0.0,0.0,0.0,0.0,0.0,0.0,0.0,0.0,0.0,0.0,0.0,0.0,0.0,0.0,0.0,0.0,0.0,0.0,0.0,0.0,0.0,0.0,0.0,0.0,0.0,0.0,0.0,0.0,0.0,0.0,0.0,0.0,0.0,0.0,0.0,0.0,0.0,0.0,0.0,0.0,0.0,0.0,0.0,0.0,0.0,0.0,0.0,0.0,0.0,0.0,0.0,0.0,0.0,0.0,0.0,0.0,0.0,0.0,0.0,0.0,0.0,0.0,0.0,0.0,0.0,0.0,0.0,0.0,0.0,-3.3247,-3.2958,-3.2745,-3.2745,-3.228,-3.1924,-3.1924,-3.1403,-3.0976,-3.0737,0.0,0.0,0.0,0.0,0.0,0.0,0.0,0.0,0.0,0.0,0.0,0.0,0.0,0.0,0.0,0.0,0.0,0.0,0.0,0.0,0.0,0.0,0.0,0.0,0.0,0.0,0.0,0.0,0.0,0.0,0.0,0.0,0.0,0.0,0.0,0.0,0.0,0.0,0.0,0.0,0.0,0.0,0.0,0.0,0.0,0.0,0.0,0.0,0.0,0.0,0.0,0.0,0.0,0.0,0.0,0.0,0.0,0.0,0.0,0.0,0.0,0.0,0.0,0.0,0.0,0.0,0.0,0.0,0.0,0.0,0.0,0.0,0.0,0.0,0.0,0.0,0.0,0.0,0.0,0.0,0.0,0.0,0.0,0.0,0.0,0.0,0.0,0.0,0.0,0.0,0.0,0.0,0.0,0.0,0.0,0.0,0.0,0.0,0.0,0.0,0.0,0.0,-3.3281,-3.3281,-3.3281,-3.3281,-3.2796,-3.2471,-3.2409,-3.1964,-3.1618,-3.1516,0.0,0.0,0.0,0.0,0.0,0.0,0.0,0.0,0.0,0.0,0.0,0.0,0.0,0.0,0.0,0.0,0.0,0.0,0.0,0.0,0.0,0.0,0.0,0.0,0.0,0.0,0.0,0.0,0.0,0.0,0.0,0.0,0.0,0.0,0.0,0.0,0.0,0.0,0.0,0.0,0.0,0.0,0.0,0.0,0.0,0.0,0.0,0.0,0.0,0.0,0.0,0.0,0.0,0.0,0.0,0.0,0.0,0.0,0.0,0.0,-3.2781,0.0,0.0,0.0,0.0,0.0,0.0,0.0,0.0,0.0,0.0,0.0,0.0,0.0,0.0,0.0,0.0,0.0,0.0,0.0,0.0,0.0,0.0,0.0,0.0,0.0,0.0,0.0,0.0,0.0,0.0,0.0,0.0,0.0,0.0,0.0,0.0,0.0,0.0,0.0,0.0,0.0,-3.3281,-3.3281,-3.3281,-3.3281,-3.317,-3.2908,-3.242,-3.2319,-3.1863,-3.0991,-3.1259,0.0,0.0,0.0,0.0,0.0,0.0,0.0,0.0,0.0,0.0,0.0,0.0,0.0,0.0,0.0,0.0,0.0,0.0,0.0,0.0,0.0,0.0,0.0,0.0,0.0,0.0,0.0,0.0,0.0,0.0,0.0,0.0,0.0,0.0,0.0,0.0,0.0,0.0,0.0,0.0,0.0,0.0,0.0,0.0,0.0,0.0,0.0,0.0,0.0,0.0,0.0,0.0,0.0,0.0,0.0,0.0,0.0,0.0,0.0,0.0,-3.3605,0.0,0.0,0.0,0.0,0.0,0.0,0.0,0.0,0.0,0.0,0.0,0.0,0.0,0.0,0.0,0.0,0.0,0.0,0.0,0.0,0.0,0.0,0.0,0.0,0.0,0.0,0.0,0.0,0.0,0.0,0.0,0.0,0.0,0.0,0.0,0.0,0.0,0.0,0.0,0.0,-3.3281,-3.3281,-3.3281,-3.3281,-3.3281,-3.317,-3.2846,-3.2583,-3.2269,-3.2037,-3.1732,0.0,0.0,0.0,0.0,0.0,0.0,0.0,0.0,0.0,0.0,0.0,0.0,0.0,0.0,0.0,0.0,0.0,0.0,0.0,0.0,0.0,0.0,0.0,0.0,0.0,0.0,0.0,0.0,0.0,0.0,0.0,0.0,0.0,0.0,0.0,0.0,0.0,0.0,0.0,0.0,0.0,0.0,0.0,0.0,0.0,0.0,0.0,0.0,0.0,0.0,0.0,0.0,0.0,-3.5017,-3.4773,-3.4724,-3.4214,-3.4073,-3.4211,-3.4818,-3.515,-3.5138,-3.4495,0.0,0.0,0.0,0.0,0.0,0.0,0.0,0.0,0.0,0.0,0.0,0.0,0.0,0.0,0.0,0.0,0.0,0.0,0.0,0.0,0.0,0.0,0.0,0.0,-3.3281,-3.3166,0.0,0.0,0.0,0.0,0.0,0.0,0.0,0.0,0.0,0.0,0.0,0.0,-3.3534,-3.3545,-3.3545,-3.3545,-3.3545,-3.3545,-3.3545,-3.3027,-3.287,-3.3257,-3.2285,-3.1669,0.0,0.0,0.0,0.0,0.0,0.0,0.0,0.0,0.0,0.0,0.0,0.0,0.0,0.0,0.0,0.0,0.0,0.0,0.0,0.0,0.0,0.0,0.0,0.0,0.0,0.0,0.0,0.0,0.0,0.0,0.0,0.0,-3.3911,-3.4176,0.0,0.0,0.0,0.0,0.0,0.0,0.0,0.0,0.0,0.0,0.0,0.0,0.0,-3.7042,-3.5508,-3.5582,-3.5619,-3.5619,-3.5941,-3.6125,-3.6137,-3.6603,-3.7109,-3.7751,-3.7849,0.0,-3.3568,-3.3469,0.0,0.0,0.0,0.0,0.0,0.0,0.0,0.0,0.0,0.0,0.0,0.0,0.0,0.0,0.0,0.0,0.0,0.0,0.0,0.0,0.0,0.0,-3.3281,-3.3281,-3.3281,-3.3258,0.0,-3.3235,-3.3281,-3.3281,-3.3281,0.0,0.0,0.0,0.0,0.0,0.0,0.0,-3.4544,-3.4601,-3.4601,-3.4601,-3.4601,-3.4601,-3.4601,-3.4114,-3.3646,-3.3258,-3.2616,-3.1863,-3.094,-3.1259,0.0,0.0,0.0,0.0,0.0,0.0,0.0,0.0,0.0,0.0,0.0,0.0,0.0,0.0,0.0,0.0,0.0,0.0,0.0,0.0,0.0,0.0,0.0,0.0,0.0,0.0,0.0,0.0,0.0,-3.4868,-3.5343,-3.5979,-3.6906,-3.7593,0.0,0.0,0.0,0.0,0.0,0.0,0.0,0.0,0.0,-3.8458,-3.8943,-3.8794,-3.7865,-3.7865,-3.7865,-3.7865,-3.761,-3.7515,-3.7528,-3.7357,-3.7481,-3.7767,-3.7767,-3.6911,-3.5589,-3.5987,-3.627,-3.6415,0.0,0.0,0.0,0.0,-3.5875,-3.5839,-3.5623,-3.5251,0.0,-3.5777,0.0,0.0,0.0,0.0,0.0,0.0,0.0,0.0,0.0,0.0,-3.413,-3.413,-3.413,-3.413,-3.413,-3.413,-3.405,0.0,-3.3683,-3.3786,-3.4085,0.0,0.0,0.0,0.0,-3.4676,-3.539,-3.5086,-3.4796,-3.4796,-3.4796,-3.4796,-3.4796,-3.4578,-3.4348,-3.4089,-3.36,-3.2948,-3.2178,-3.2068,-3.1964,0.0,0.0,0.0,0.0,0.0,0.0,0.0,0.0,0.0,0.0,0.0,0.0,0.0,0.0,0.0,0.0,0.0,0.0,0.0,0.0,0.0,0.0,0.0,0.0,0.0,0.0,0.0,0.0,-3.6222,-3.6641,-3.7318,-3.7993,-3.8561,0.0,0.0,0.0,0.0,0.0,0.0,-4.0926,-4.1095,-4.0982,-4.0545,-4.0559,-4.0285,-3.979,-3.9934,-3.9838,-3.9612,-3.9269,-3.9028,-3.8881,-3.8478,-3.8304,-3.8304,-3.8304,-3.8304,-3.8279,-3.7929,-3.7854,-3.7929,-3.7126,-3.6906,-3.7015,-3.687,-3.6822,-3.6809,-3.6676,-3.6362,-3.6147,-3.7019,0.0,-3.6141,-3.7189,0.0,0.0,0.0,0.0,-3.526,-3.5121,-3.5293,-3.5449,-3.5449,-3.5293,-3.5086,-3.5086,-3.4953,-3.4722,0.0,-3.4353,-3.4377,-3.5016,0.0,0.0,0.0,0.0,-3.5224,-3.5984,-3.5561,-3.5175,-3.5175,-3.5175,-3.5175,-3.5175,-3.506,-3.4992,-3.4992,-3.4383,-3.3839,-3.3425,-3.288,-3.2611,-3.2611,0.0,0.0,0.0,0.0,0.0,0.0,0.0,0.0,0.0,0.0,0.0,0.0,0.0,0.0,0.0,0.0,0.0,0.0,0.0,0.0,0.0,0.0,0.0,0.0,0.0,0.0,0.0,0.0,0.0,-3.7572,-3.8445,0.0,0.0,0.0,0.0,-4.0645,-4.1221,-4.1559,-4.1559,-4.2149,-4.2262,-4.175,-4.1704,-4.1273,-4.0381,-4.0803,-4.0569,-3.9612,-4.057,-4.0773,-4.0347,-4.0859,-4.1119,-4.1119,-4.1119,-4.1119,-4.0828,-3.7486,-3.6407,-3.678,-3.5951,-3.5868,-3.6291,-3.5764,-3.558,-3.5511,-3.5062,-3.5374,-3.6147,-3.6918,-3.8029,-3.8856,-3.8148,-3.773,0.0,0.0,-3.6687,-3.6557,-3.6086,-3.6553,-3.7169,-3.7169,-3.6553,-3.5955,-3.5955,-3.5333,-3.5034,0.0,-3.5287,-3.5011,-3.5801,0.0,-3.4957,-3.5458,-3.5485,-3.5657,-3.6182,-3.6251,-3.6197,-3.6197,-3.6197,-3.6197,-3.6197,-3.5761,-3.5485,-3.5485,-3.4528,-3.3993,-3.3941,-3.347,-3.3149,-3.3149,-3.2616,0.0,0.0,0.0,0.0,0.0,0.0,0.0,0.0,0.0,0.0,0.0,0.0,0.0,0.0,0.0,0.0,0.0,0.0,0.0,0.0,0.0,0.0,0.0,0.0,0.0,0.0,0.0,0.0,-3.8991,-3.9689,0.0,-4.0682,-4.1064,-4.146,-4.1882,-4.2107,-4.2233,-4.2233,-4.2458,-4.2513,-4.2371,-4.243,-4.2494,-4.2563,-4.2398,-4.2348,-4.2375,-4.2359,-4.2248,-4.2095,-4.2317,-4.2409,-4.2409,-4.2409,-4.2409,-4.228,-4.0471,-3.9694,-3.9664,-3.9346,-3.9356,-3.9506,-3.9306,-3.9231,-3.9206,-3.9018,-3.8841,-3.8586,-3.8329,-3.9272,-4.0171,-3.8289,-3.8371,-3.8911,-3.7616,-3.7673,-3.8044,-3.7849,-3.8059,-3.8265,-3.8265,-3.8059,-3.7788,-3.7788,-3.7605,-3.7605,-3.8483,-3.6808,-3.5465,-3.6084,-3.594,-3.617,-3.7438,-3.6731,-3.6491,-3.7767,-3.6958,-3.632,-3.632,-3.632,-3.632,-3.632,-3.6105,-3.6002,-3.6002,-3.4984,-3.4553,-3.4926,-3.4144,-3.3518,-3.3205,-3.3543,-3.3572,0.0,0.0,0.0,0.0,0.0,0.0,0.0,0.0,0.0,0.0,0.0,0.0,0.0,0.0,0.0,0.0,0.0,0.0,0.0,0.0,0.0,0.0,0.0,0.0,0.0,0.0,-3.9842,-4.0336,-4.0758,-4.125,-4.1882,-4.1938,-4.2121,-4.2556,-4.2964,-4.3202,-4.3202,-4.3596,-4.3864,-4.3912,-4.3932,-4.41,-4.4366,-4.4391,-4.4443,-4.4502,-4.428,-4.4058,-4.3914,-4.3703,-4.3598,-4.3611,-4.3611,-4.3598,-4.3545,-4.3001,-4.2668,-4.237,-4.1402,-4.1042,-4.1042,-4.1042,-4.1042,-4.1094,-4.1363,-4.1106,-4.0628,-4.0304,-4.0991,-4.1568,-3.986,-3.9977,-4.0421,-3.9279,-3.9385,-3.982,-3.982,-3.982,-3.9767,-3.9767,-3.9345,-3.8973,-3.9292,-3.8866,-3.88,-3.9977,-3.8283,-3.6873,-3.7703,-3.7648,-3.7869,-3.9202,-3.8425,-3.8005,-3.8812,-3.7809,-3.6901,-3.6585,-3.6369,-3.632,-3.632,-3.632,-3.632,-3.632,-3.5566,-3.5276,-3.5449,-3.4598,-3.3969,-3.3686,-3.4358,-3.4353,-3.3715,0.0,0.0,0.0,0.0,0.0,0.0,0.0,0.0,0.0,0.0,0.0,0.0,0.0,0.0,0.0,0.0,0.0,0.0,0.0,0.0,0.0,0.0,0.0,-3.9929,-4.035,-4.0955,-4.1573,-4.1643,-4.1896,-4.2542,-4.2626,-4.264,-4.2669,-4.3793,-4.4467,-4.4467,-4.5647,-4.6321,-4.6321,-4.6364,-4.6101,-4.56,-4.6661,-4.6712,-4.5755,-4.6219,-4.6166,-4.5702,-4.5045,-4.48,-4.4826,-4.4826,-4.4813,-4.4787,-4.4787,-4.4787,-4.4494,-4.1677,-4.059,-4.0577,-4.0565,-4.0565,-4.0727,-4.1559,-4.1839,-4.1945,-4.2749,-4.3023,-4.3023,-4.2971,-4.2434,-4.1839,-4.1839,-4.1839,-4.1839,-4.1839,-4.1785,-4.1745,-4.1745,-4.0426,-3.9438,-4.0305,-3.9149,-3.8435,-4.0238,-3.966,-3.9327,-4.0689,-4.0224,-3.9878,-4.0424,-4.0444,0.0,-3.9328,-3.8721,-3.8029,-3.7114,-3.661,-3.6378,-3.6378,-3.63,-3.6343,-3.6343,-3.6277,-3.5993,-3.5433,-3.4919,-3.465,-3.4639,-3.5037,-3.5079,-3.4692,0.0,0.0,0.0,0.0,0.0,0.0,0.0,0.0,0.0,0.0,0.0,0.0,0.0,0.0,0.0,0.0,0.0,0.0,0.0,0.0,0.0,0.0,-4.1292,-4.1137,-4.1264,-4.1601,-4.2233,-4.2317,-4.2556,-4.3174,-4.3652,-4.4102,-4.4537,-4.5324,-4.5774,-4.5774,-4.6518,-4.6954,-4.6954,-4.7406,-4.7574,-4.74,-4.78,-4.7621,-4.6861,-4.7011,-4.6806,-4.6281,-4.6114,-4.6003,-4.6016,-4.6016,-4.6003,-4.6003,-4.6003,-4.6003,-4.5777,-4.3754,-4.2973,-4.2922,-4.2457,-4.2315,-4.2368,-4.2591,-4.2696,-4.2696,-4.2919,-4.3023,-4.2919,-4.2328,-4.2368,-4.2539,-4.1945,-4.221,-4.2696,-4.2696,-4.2644,-4.2644,-4.2644,-4.2263,-4.1985,-4.221,-4.1399,-4.0956,-4.2091,-4.1531,-4.0837,-4.0628,-3.9922,-3.96,-4.0323,-3.9371,0.0,-3.9062,-3.8442,-3.7856,-3.7631,-3.7448,-3.7368,-3.7368,-3.7035,-3.6828,-3.6828,-3.569,-3.5312,-3.6036,-3.5452,-3.5398,-3.6034,-3.5662,-3.5321,0.0,0.0,0.0,0.0,0.0,0.0,0.0,0.0,0.0,0.0,0.0,0.0,0.0,0.0,0.0,0.0,0.0,0.0,0.0,0.0,0.0,0.0,-4.2022,-4.2107,-4.2374,-4.2177,-4.2261,-4.2893,-4.3188,-4.3582,-4.4214,-4.4832,-4.545,-4.6069,-4.6701,-4.7164,-4.7431,-4.7768,-4.8001,-4.8001,-4.8108,-4.8323,-4.8502,-4.86,-4.8569,-4.8409,-4.8198,-4.7917,-4.7578,-4.7306,-4.7192,-4.7192,-4.7192,-4.7192,-4.7192,-4.7192,-4.7192,0.0,0.0,0.0,0.0,0.0,-4.4474,-4.4474,-4.4474,-4.4474,-4.4474,-4.4474,-4.4191,-4.3839,-4.3797,-4.3797,-4.3852,-4.3797,-4.4136,-4.4474,-4.4474,-4.4178,-4.3893,-4.3893,-4.3621,-4.3457,-4.3785,-4.3182,-4.2962,-4.4191,-4.3743,0.0,-4.2493,-4.1355,-4.071,-4.1041,-4.0186,-3.959,-3.9772,-3.913,-3.8559,-3.8171,-3.7919,-3.7793,-3.7793,-3.7517,0.0,0.0,0.0,-3.5646,-3.5884,-3.5521,0.0,0.0,0.0,-3.5224,-3.4464,0.0,0.0,0.0,-3.6388,-3.648,0.0,0.0,0.0,0.0,0.0,0.0,0.0,0.0,0.0,0.0,0.0,0.0,0.0,0.0,0.0,0.0,-4.2739,-4.2992,-4.3624,-4.3301,-4.3174,-4.3652,-4.4242,-4.486,-4.5478,-4.6125,-4.6757,-4.7375,-4.7979,-4.8518,-4.9014,0.0,0.0,0.0,0.0,-4.8639,-4.9112,-4.9167,-4.9369,-4.9783,-4.9341,-4.9041,-4.8957,-4.8463,-4.8185,-4.8185,-4.8185,-4.8185,-4.8185,-4.8185,-4.8185,-4.8081,-4.6996,-4.6538,-4.6473,-4.6473,-4.6473,-4.6473,-4.6473,0.0,0.0,-4.6473,-4.5882,-4.5355,-4.6247,-4.5882,-4.5355,-4.6234,-4.6473,-4.6473,-4.6473,-4.5882,-4.5285,-4.5285,-4.4651,-4.4303,-4.5113,-4.4593,-4.4477,-4.6178,-4.5768,-4.5055,-4.4882,-4.3581,-4.2379,-4.198,-4.1777,-4.1399,-4.0617,-4.0099,-3.9553,-3.8781,0.0,0.0,-3.7965,-3.7851,-3.7394,-3.6432,-3.6701,-3.6429,-3.5412,-3.5268,-3.4747,-3.3738,-3.4984,-3.5114,-3.3912,-3.5294,-3.6236,-3.6696,-3.7367,-3.7638,0.0,0.0,0.0,0.0,0.0,0.0,0.0,0.0,0.0,0.0,0.0,0.0,0.0,0.0,0.0,-4.3216,-4.3736,-4.427,-4.4888,-4.5324,-4.5422,-4.5029,-4.5535,-4.6167,-4.6785,-4.7403,-4.8021,-4.8588,-4.9258,-4.9494,-4.9077,-4.9551,-4.9611,-4.9117,-4.9482,-4.9486,-4.9083,-4.9608,-4.9392,-4.8521,0.0,0.0,-4.8347,-4.8243,-4.8185,-4.8185,-4.8185,-4.8185,-4.8185,-4.8185,-4.8185,-4.812,-4.7427,-4.6891,-4.6473,-4.6473,-4.6473,-4.6473,-4.6473,-4.6473,-4.6473,-4.6473,-4.636,-4.6234,-4.6417,-4.636,0.0,-4.6473,-4.6473,-4.6473,-4.6473,-4.636,-4.6234,-4.6234,-4.6121,-4.6008,-4.6178,-4.5527,-4.517,-4.6304,-4.5768,-4.4812,-4.3986,-4.3321,-4.2508,-4.1667,-4.0528,-3.9755,-3.9591,-3.9498,-3.9335,-3.9159,-3.9067,-3.901,-3.901,-3.8165,-3.7777,-3.8114,-3.6986,-3.596,-3.5218,-3.4844,-3.4536,-3.4312,-3.5954,-3.6437,-3.5711,-3.7843,-3.8935,-3.9025,-3.8266,-3.7901,0.0,0.0,0.0,0.0,0.0,0.0,0.0,0.0,0.0,0.0,0.0,-4.2191,-4.25,0.0,-4.3343,-4.4256,-4.4664,-4.5085,-4.5717,-4.6616,-4.6982,-4.635,-4.6827,-4.7459,-4.8064,-4.8682,-4.93,-4.9918,-4.9976,-5.0001,-4.9981,-4.9719,-4.9437,-4.9099,-4.911,-4.9085,-4.9072,-4.9085,-4.8983,-4.8624,-4.8624,-4.8463,-4.8185,-4.8185,-4.8185,-4.8185,-4.8185,-4.8185,-4.8185,-4.8185,-4.8185,-4.8159,-4.7871,-4.7584,-4.7336,-4.7336,-4.7336,-4.7336,-4.7336,-4.7336,-4.7336,-4.7336,-4.7022,-4.6663,-4.7208,-4.7022,-4.6734,-4.7208,-4.7336,-4.7336,-4.7336,-4.7336,-4.7336,-4.7336,-4.7336,-4.7336,-4.7336,-4.6965,-4.6778,-4.7265,-4.6965,-4.6301,-4.5338,-4.437,-4.3102,-4.135,-4.0505,-4.0066,-4.0066,-3.9836,-3.9675,-3.9675,-3.9457,-3.9308,-3.9308,-3.8005,-3.7431,-3.8039,-3.6208,-3.5215,-3.5504,-3.5024,-3.466,-3.4388,-3.5313,-3.5674,-3.5333,-3.7126,-3.8267,-3.8804,-3.884,-3.8705,0.0,0.0,0.0,0.0,0.0,0.0,0.0,0.0,-4.1797,-4.1797,-4.2317,-4.295,-4.3554,-4.3764,-4.4214,-4.5338,-4.5619,-4.5914,-4.656,-4.76,-4.8218,-4.7951,-4.8246,-4.8724,-4.9342,-4.9848,-5.0449,-5.1,-5.061,-5.0436,-5.0712,-4.9827,-4.92,-4.8913,-4.8463,-4.8405,-4.8913,-4.8463,-4.8463,-4.8913,-4.8405,-4.8185,-4.8185,-4.8185,-4.8185,-4.8185,-4.8185,-4.8185,-4.8185,-4.8185,-4.8185,-4.8185,-4.8185,-4.8185,-4.8185,-4.8185,-4.8185,-4.8185,-4.8185,-4.8185,-4.8185,-4.8185,-4.7632,-4.7146,-4.7938,-4.7632,-4.7133,-4.7997,-4.8185,-4.8185,-4.8185,-4.8185,-4.8185,-4.8185,-4.8185,-4.8185,-4.8185,-4.8185,-4.8185,-4.8185,-4.8185,-4.7821,-4.6657,-4.5455,-4.3905,-4.1571,-4.0992,-4.0823,-4.0823,-4.0456,-4.0264,-4.0264,-3.9756,-3.9352,-3.9131,-3.7799,-3.7092,-3.7329,-3.5628,-3.491,-3.5665,-3.519,-3.4816,-3.4654,-3.4851,-3.4991,-3.4991,-3.6243,-3.7233,-3.795,-3.9154,-3.9459,-3.9733,-4.03,-4.0616,-4.0702,-4.1109,-4.1516,0.0,0.0,-4.2472,-4.2472,-4.2964,-4.3582,-4.42,-4.4762,-4.5352,-4.6069,-4.6645,-4.7221,-4.7825,-4.8462,-4.9314,-5.034,-5.0097,-5.0041,-5.0607,-5.0786,-5.1028,-5.1632,-5.1634,-5.1169,-5.0179,-4.9953,-4.9442,-4.8347,-4.8243,-4.8243,-4.8302,-4.8243,-4.8243,-4.8302,-4.8243,-4.8185,-4.8185,-4.8185,-4.8185,-4.8185,-4.8185,-4.8185,-4.8185,-4.8185,-4.8185,-4.8185,-4.8185,-4.8185,-4.8185,-4.8185,-4.8185,-4.8185,-4.8185,-4.8185,-4.8185,-4.8185,-4.8114,-4.8055,-4.8185,-4.8114,-4.8068,-4.8185,-4.8185,-4.8185,-4.8185,-4.8185,-4.8185,-4.8185,-4.8185,-4.8185,-4.8185,-4.8185,-4.8185,-4.8185,-4.8185,-4.7645,-4.5755,-4.5293,-4.4634,-4.2982,-4.1629,-4.0823,-4.0823,-4.0766,-4.0732,-4.0732,-4.0272,-3.9551,-3.85,-3.8242,-3.767,-3.6581,-3.6481,-3.5983,-3.4974,-3.4466,-3.4747,-3.5787,-3.6353,-3.6641,-3.6752,-3.8444,-3.8816,-3.795,-3.9154,-3.9659,-3.8993,-4.017,-4.1149,0.0,-4.1479,-4.2177,-4.2177,-4.2669,-4.3104,-4.3104,-4.3877,-4.4635,-4.4902,-4.5464,-4.6097,0.0,-4.7347,-4.7951,-4.8518,-4.9497,-5.0297,-5.0871,-5.0958,-5.1126,-5.1379,-5.1407,-5.152,-5.1773,-5.1183,-5.0516,-5.001,-4.9328,-4.8695,-4.8243,-4.8185,-4.8185,-4.8185,-4.8185,-4.8185,-4.8185,-4.8185,-4.8185,-4.8185,-4.8185,-4.8185,-4.8185,-4.8185,-4.8185,-4.8185,-4.8185,-4.8185,-4.8185,-4.8185,-4.8185,-4.8185,-4.8185,-4.8185,-4.8185,-4.8185,-4.8185,-4.8185,-4.8185,-4.8185,-4.8185,-4.8185,-4.8185,-4.8185,-4.8185,-4.8185,-4.8185,-4.8185,-4.8185,-4.8185,-4.8185,-4.8185,-4.8185,-4.8185,-4.8185,-4.8185,-4.8185,-4.8185,-4.7938,-4.7159,-4.6478,-4.5729,-4.4537,-4.2809,-4.1633,-4.1633,-4.1443,-4.1145,-4.0846,-4.0049,-3.9481,-3.9337,-3.8383,-3.7555,-3.7021,-3.6717,-3.6114,-3.521,-3.4714,-3.4766,-3.5293,-3.5274,-3.5985,-3.7391,-3.8182,-3.8972,-3.9857,-4.0102,-4.0174,-3.895,-4.0241,-4.1366,-4.1007,-4.1807,-4.2642,-4.2642,-4.3209,-4.3807,-4.3961,-4.4706,-4.5388,-4.5739,-4.6223,-4.6799,-4.7586,-4.8078,-4.8602,-4.9426,-5.0312,-5.093,-5.1112,-5.152,-5.1732,-5.1568,-5.1677,-5.1732,-5.1568,-5.0906,-5.0292,-4.9783,-4.9098,-4.8521,-4.8185,-4.8185,-4.8185,-4.8185,-4.8185,-4.8185,-4.8185,-4.8185,-4.8185,-4.8185,-4.8185,-4.8185,-4.8185,-4.8185,-4.8185,-4.8185,-4.8185,-4.8185,-4.8185,-4.8185,-4.8185,-4.8185,-4.8185,-4.8185,-4.8185,-4.8185,-4.8185,-4.8185,-4.8185,-4.8185,-4.8185,-4.8185,-4.8185,-4.8185,-4.8185,-4.8185,-4.8185,-4.8185,-4.8185,-4.8185,-4.8185,-4.8185,-4.8185,-4.8185,-4.8185,-4.8185,-4.8185,-4.8185,-4.8127,-4.7808,-4.7193,-4.6298,-4.5098,-4.3627,-4.2581,-4.2339,-4.2006,-4.1593,-4.1087,-3.9949,-3.9377,-3.9776,-3.8266,-3.7284,-3.7154,-3.6656,-3.6106,-3.5418,-3.5117,-3.5114,-3.5457,-3.5016,-3.5639,-3.7405,-3.794,-3.8891,-4.0305,-4.0595,-4.0752,-4.0087,-4.0623,-4.0995,-4.0995,-4.1863,-4.2721,-4.2721,-4.3547,-4.4551,-4.5094,-4.5248,-4.5703,-4.6926,-4.7164,-4.7572,-4.8729,-4.8953,-4.9426,-5.0649,-5.0913,-5.1098,-5.1688,-5.1773,-5.1568,0.0,-5.1458,-5.1568,-5.0962,-5.1458,-5.0962,-4.924,-4.9626,-4.9385,-4.8243,-4.8185,-4.8185,-4.8185,-4.8185,-4.8185,-4.8185,-4.8185,-4.8185,-4.8185,-4.8185,-4.8185,-4.8185,-4.8185,-4.8185,-4.8185,-4.8185,-4.8185,-4.8185,-4.8185,-4.8185,-4.8185,-4.8185,-4.8185,-4.8185,-4.8185,-4.8185,-4.8185,-4.8185,-4.8185,-4.8185,-4.8185,-4.8185,-4.8185,-4.8185,-4.8185,-4.8185,-4.8185,-4.8185,-4.8185,-4.8185,-4.8185,-4.8185,-4.8185,-4.8185,-4.8185,-4.8185,-4.8185,-4.788,-4.6896,-4.6704,-4.6045,-4.4113,-4.3814,-4.3377,-4.2402,-4.2264,-4.2121,-4.1604,-4.0405,-3.9437,-3.9164,-3.791,-3.6912,-3.6444,-3.6423,-3.6106,-3.5418,-3.5407,-3.5992,-3.7226,-3.672,-3.6491,-3.6647,-3.8441,-3.8824,-3.7882,-4.0184,-4.1263,-3.9868,-4.0945,-4.2074,-4.1746,-4.2775,-4.3747,-4.3405,-4.4174,-4.4976,-4.485,-4.5741,-4.6827,-4.7656,-4.8097,-4.8696,-4.9525,-4.9988,-5.029,-5.0319,-5.1008,-5.1439,-5.121,-5.1183,0.0,0.0,0.0,0.0,-5.0348,-5.0109,-4.9756,-4.9143,-4.8926,-4.8637,-4.8185,-4.8185,-4.8185,-4.8185,-4.8185,-4.8381,-4.8786,-4.8786,-4.8577,-4.8185,-4.8185,-4.8185,-4.8185,-4.8185,-4.8185,-4.8185,-4.8185,-4.8185,-4.8185,-4.8185,-4.8185,-4.8185,-4.8185,-4.8185,-4.8185,-4.8185,-4.8185,-4.8185,-4.8185,-4.8185,-4.8185,-4.8185,-4.8185,-4.8185,-4.8185,-4.8185,-4.8185,-4.8185,-4.8185,-4.8185,-4.8185,-4.8185,-4.8185,-4.8185,-4.769,-4.7383,-4.8055,-4.7632,-4.7324,-4.7632,-4.769,-4.7027,-4.5086,-4.3689,-4.2708,-4.2339,-4.2275,-4.2079,-4.1463,-4.0321,-3.9533,-3.9382,-3.7978,-3.6999,-3.6839,-3.7366,-3.6989,-3.5479,-3.6186,-3.6481,-3.6063,-3.5865,-3.6196,-3.7068,-3.8547,-3.952,-3.9978,-4.1305,-4.1882,-4.0258,-4.1191,-4.2181,-4.2085,-4.2815,-4.3635,-4.389,-4.4346,-4.4907,-4.5414,-4.6236,-4.7195,-4.8252,-4.8729,-4.9314,-5.021,-5.0674,-5.0782,-5.0408,-5.0988,-5.1348,-5.0962,-5.0739,-5.0572,0.0,0.0,0.0,-4.974,-4.9543,-4.9257,-4.8797,-4.8624,-4.8405,-4.8185,-4.8185,-4.829,-4.8499,-4.8512,-4.8799,-4.9374,-4.9374,-4.9061,-4.8512,-4.8512,-4.8394,-4.8185,-4.8185,-4.8185,-4.8185,-4.8185,-4.8185,-4.8185,-4.8185,-4.8185,-4.8185,-4.8185,-4.8185,-4.8185,-4.8185,-4.8185,-4.8185,-4.8185,-4.8185,-4.8185,-4.8185,-4.8185,-4.8185,-4.8185,-4.8185,-4.8185,-4.8185,-4.8185,-4.8185,-4.8185,-4.8185,-4.8185,-4.8185,-4.769,-4.7442,-4.8055,-4.769,-4.7442,-4.8068,-4.788,-4.7265,-4.5997,-4.4113,-4.2708,-4.2339,-4.2275,-4.202,-4.1368,-4.0447,-3.9669,-3.9152,-3.7965,-3.7108,-3.6771,-3.7237,-3.6867,-3.5428,-3.6186,-3.6247,-3.5418,-3.5418,-3.5767,-3.6592,-3.8387,-3.9627,-4.0442,-4.1848,-4.2502,-4.1154,-4.1361,-4.1511,-4.198,-4.2155,-4.261,-4.4221,-4.4141,-4.4447,-4.6692,-4.6757,-4.6865,0.0,0.0,-4.9483,-5.0677,-5.0902,-5.0896,-5.0879,-5.085,-5.085,0.0,0.0,0.0,0.0,0.0,0.0,-4.9068,0.0,-4.9385,-4.8243,-4.874,-4.8797,-4.8243,-4.8211,-4.8512,-4.9074,-4.9139,-4.9414,-4.9884,-4.9923,-4.9636,-4.9087,-4.9087,-4.8747,-4.8185,-4.8185,-4.8185,-4.8185,-4.8185,-4.8185,-4.8185,-4.8185,-4.8185,-4.8185,-4.8185,-4.8185,-4.8185,-4.8185,-4.8185,-4.8185,-4.8185,-4.8185,-4.8185,-4.8185,-4.8185,-4.8185,-4.8185,-4.8185,-4.8185,-4.8185,-4.8185,-4.8185,-4.8185,-4.8185,-4.8185,-4.8185,-4.8185,-4.8127,-4.8185,-4.8185,-4.8185,-4.8185,-4.7383,-4.6704,-4.6657,-4.5025,-4.3439,-4.2518,-4.2339,-4.202,-4.1304,-4.0658,-3.9823,-3.8582,-3.789,-3.7115,-3.6204,-3.6247,-3.6029,-3.5438,-3.5541,-3.5541,-3.5418,-3.5418,-3.5418,-3.5479,-3.7981,-3.9228,-3.9334,-4.1854,-4.2974,-4.1154,-4.1908,-4.2435,-4.2177,-4.299,-4.3908,-4.3974,-4.4547,-4.5319,-4.6394,-4.6837,-4.7456,0.0,0.0,0.0,-5.0747,-5.0928,0.0,-5.0878,-5.0516,0.0,-5.0235,0.0,-4.9314,-4.9314,-4.8811,0.0,0.0,-4.8579,-4.8521,-4.8243,-4.8347,-4.8347,-4.8185,-4.8616,-4.893,-4.9087,-4.9923,-5.0198,-4.9897,-5.0355,-5.0041,-4.9087,-4.9087,-4.8747,-4.8185,-4.8185,-4.8185,-4.8185,-4.8185,-4.8185,-4.8185,-4.8185,-4.8185,-4.8185,-4.8185,-4.8185,-4.8185,-4.8185,-4.8185,-4.8185,-4.8185,-4.8185,-4.8185,-4.8185,-4.8185,-4.8185,-4.8185,-4.8185,-4.8185,-4.8185,-4.8185,-4.8185,-4.8185,-4.8185,-4.8185,-4.8185,-4.7632,-4.7324,-4.8055,-4.8185,-4.8185,-4.8185,-4.7383,-4.6465,-4.5755,-4.4595,-4.3689,-4.3439,-4.2771,-4.1817,-4.0636,-4.0323,-3.9692,-3.8402,-3.7826,-3.725,-3.667,-3.8073,-3.7894,-3.55,-3.7199,-3.7319,-3.5418,-3.5418,-3.589,-3.6824,-3.8447,-3.9686,-4.0628,-4.2275,-4.2974,-4.1154,-4.1759,-4.2204,-4.2128,-4.2816,-4.3625,-4.4031,-4.4651,-4.5446,-4.6555,-4.7053,0.0,-4.8766,-4.9328,0.0,0.0,0.0,0.0,-5.0531,-4.9996,-4.96,0.0,-4.9085,0.0,-4.9098,-4.8521,-4.8185,0.0,-4.8185,-4.8185,-4.8185,-4.8185,-4.8185,-4.8185,-4.8773,-4.9322,-4.9832,-5.0707,-5.0982,-5.0642,-5.0982,-5.0551,-4.944,-4.944,-4.8969,-4.8185,0.0,-4.8185,-4.8185,-4.8185,-4.8185,-4.8185,-4.8185,-4.8185,-4.8185,-4.8185,-4.8185,-4.8185,-4.8185,-4.8185,-4.8185,-4.8185,-4.8185,-4.8185,-4.8185,-4.8185,-4.8185,-4.8185,-4.8185,-4.8185,-4.8185,-4.8185,-4.8185,-4.8185,-4.788,-4.7573,-4.7573,-4.7074,-4.7015,-4.7997,-4.8185,-4.8055,-4.7632,-4.7074,-4.6345,-4.5464,-4.4422,-4.3814,-4.3814,-4.2696,-4.1433,-4.0312,-3.992,-3.9341,-3.8314,-3.7943,-3.7759,-3.7636,-3.8209,-3.7866,-3.6268,-3.7089,-3.6846,-3.5418,-3.5418,-3.5777,-3.6481,-3.8328,-3.958,-4.0338,-4.215,-4.2974,-4.1141,-4.1361,-4.1511,-4.1881,-4.2132,-4.2662,-4.4185,-4.4624,-4.5177,-4.684,0.0,-4.7557,-4.8499,-4.877,-4.9256,-5.0337,0.0,-4.9817,-4.9985,-4.9429,-4.9014,-4.9085,-4.8579,-4.8418,-4.8952,-4.8534,-4.8185,-4.8185,-4.8185,-4.8185,-4.8185,-4.8185,-4.825,-4.8407,-4.8917,-4.974,-5.089,-5.1361,-5.1596,-5.1596,-5.1531,-5.093,-4.9884,-4.9819,-4.9205,-4.8185,-4.8185,0.0,-4.8185,-4.8185,-4.8185,-4.8185,-4.8185,-4.8185,-4.8185,-4.8185,-4.8185,-4.8185,-4.8185,-4.8185,-4.8185,-4.8185,-4.8185,-4.8185,-4.8185,-4.8185,-4.8185,-4.8185,-4.8185,-4.8185,-4.8185,-4.8185,-4.8185,-4.8055,-4.7324,-4.6657,-4.6538,-4.6525,-4.6836,-4.7821,-4.788,-4.7514,-4.6657,-4.6345,-4.5924,-4.5086,-4.4039,-4.3302,-4.3302,-4.2125,-4.1046,-4.0247,-3.9604,-3.8956,-3.8248,-3.8243,-3.8356,-3.846,-3.7657,-3.7118,-3.705,-3.6125,-3.5592,-3.5418,-3.5418,-3.5479,-3.5654,-3.8029,-3.9287,-3.951,-4.1866,-4.2974,-4.1036,-4.1597,-4.1881,-4.156,-4.2132,-4.3003,-4.3806,-4.438,0.0,0.0,-4.6977,-4.7226,-4.6931,-4.7683,-4.842,-4.8626,0.0,0.0,0.0,0.0,-4.8521,0.0,0.0,0.0,0.0,0.0,0.0,0.0,0.0,-4.8185,-4.8185,-4.8185,-4.8616,-4.957,-4.9701,-5.0302,-5.1439,-5.1544,-5.1596,-5.1583,-5.1139,-5.0564,-4.9871,-4.9427,-4.8839,-4.8185,-4.8185,0.0,-4.8185,-4.8185,-4.8185,-4.8185,-4.8185,-4.8185,-4.8185,-4.8185,-4.8185,-4.8185,-4.8185,-4.8185,-4.8185,-4.8185,-4.8185,-4.8185,-4.8185,-4.8185,-4.8185,-4.8185,-4.8185,-4.8185,-4.8185,-4.8185,-4.7997,-4.7133,-4.6836,-4.6478,-4.5695,-4.5513,-4.5816,-4.6777,-4.6358,-4.5768,-4.5573,-4.4398,-4.3392,-4.3279,-4.1836,-4.0819,-4.0819,-4.11,-4.1046,-4.0247,-3.9604,-3.8956,-3.8248,-3.8523,-3.8248,-3.7188,-3.8274,-3.8006,-3.583,-3.6542,-3.6481,-3.5418,-3.5418,-3.589,-3.6946,-3.8447,-3.9744,-4.0813,-4.2331,-4.2974,-4.0997,-4.1511,-4.1597,-4.1361,-4.1931,-4.2633,-4.2924,0.0,0.0,0.0,-4.5775,-4.6279,-4.6016,0.0,0.0,0.0,0.0,0.0,0.0,0.0,0.0,0.0,0.0,0.0,0.0,0.0,0.0,0.0,0.0,-4.8185,-4.8185,-4.8185,-4.8577,-4.944,-4.9466,-4.9871,-5.0694,-5.0707,-5.0707,-5.0707,-5.0446,-5.0028,-4.9453,-4.9205,-4.8747,-4.8185,-4.8185,0.0,-4.8185,-4.8185,-4.8185,-4.8185,-4.8185,-4.8185,-4.8185,-4.8185,-4.8185,-4.8185,-4.8185,-4.8185,-4.8185,-4.8185,-4.8185,-4.8185,-4.8185,-4.8185,-4.8185,-4.8185,-4.8185,-4.8185,-4.8185,-4.8185,-4.7938,-4.6955,-4.6358,-4.5997,-4.5997,-4.5634,-4.5573,-4.6538,-4.5937,-4.5159,-4.4607,-4.3853,-4.3114,-4.2621,-4.1539,-4.0777,-4.0777,-4.0453,-4.0062,-3.9735,-3.9088,-3.8597,-3.8512,-3.8295,-3.8114,-3.8124,-3.7838,-3.7275,-3.6401,-3.6359,-3.6002,-3.5418,-3.5418,-3.5716,-3.6308,-3.8268,-3.951,-4.0152,-4.2093,-4.2974,-4.084,-4.1219,-4.1311,-4.1311,-4.1651,-4.2017,-4.2185,-4.2975,0.0,0.0,-4.4651,-4.539,-4.5108,0.0,-4.6298,0.0,-4.6984,0.0,0.0,0.0,0.0,0.0,0.0,0.0,0.0,0.0,0.0,0.0,0.0,0.0,-4.8185,-4.8185,-4.846,-4.9061,-4.9087,-4.9348,-4.9884,-4.9884,-4.9884,-4.9884,-4.9766,-4.9492,-4.9087,-4.8956,-4.8629,-4.8185,-4.8185,0.0,0.0,-4.8185,-4.8185,-4.8185,-4.8185,-4.8185,-4.8185,-4.8185,-4.8185,-4.8185,-4.8185,-4.8185,-4.8185,-4.8185,-4.8185,-4.8185,-4.8185,-4.8185,-4.8185,-4.8185,-4.8185,-4.8185,-4.8185,-4.8185,-4.7938,-4.6955,-4.5634,-4.4976,-4.6178,-4.5513,-4.4964,-4.5864,-4.533,-4.4422,-4.3627,-4.3377,-4.2937,-4.1998,-4.1304,-4.0788,-4.0658,-3.968,-3.8956,-3.8956,-3.8597,-3.8429,-3.8621,-3.814,-3.8091,-3.8787,-3.7213,-3.6426,-3.6857,-3.5951,-3.5418,-3.5418,-3.5418,-3.5541,-3.5839,-3.8089,-3.9345,-3.9627,-4.1923,-4.2974,-4.0331,-4.0893,-4.1311,-4.1311,-4.135,-4.1533,-4.2107,0.0,0.0,-4.3061,-4.4384,-4.5066,-4.3504,-4.4498,-4.5439,0.0,0.0,-4.6782,0.0,0.0,0.0,0.0,0.0,0.0,0.0,0.0,0.0,0.0,0.0,0.0,-4.8185,-4.8185,-4.846,-4.9061,-4.9087,-4.9348,-4.9884,-4.9884,-4.9884,-4.9884,-4.9387,-4.9126,-4.9061,-4.8512,-4.8237,-4.8185,-4.8185,0.0,0.0,-4.8185,-4.8185,-4.8185,-4.8185,-4.8185,-4.8185,-4.8185,-4.8185,-4.8185,-4.8185,-4.8185,-4.8185,-4.8185,-4.8185,-4.8185,-4.8185,-4.8185,-4.8185,-4.8185,-4.8185,-4.8185,-4.8185,-4.8185,-4.7938,-4.6955,-4.4583,-4.3075,-4.5037,-4.3939,-4.2886,-4.3864,-4.3251,-4.2518,-4.2454,-4.1945,-4.1293,-4.0506,-3.9801,-3.9154,-3.857,-3.8381,-3.8314,-3.8314,-3.8543,-3.8647,-3.8274,-3.8543,-3.8191,-3.7132,-3.6848,-3.6402,-3.5634,-3.5479,-3.5418,-3.5418,-3.5418,-3.5951,-3.7127,-3.8506,-3.9803,-4.0973,-4.2331,-4.2974,-4.0265,-4.0853,-4.1311,-4.1311,-4.1311,-4.1476,-4.1987,0.0,-4.2055,-4.238,-4.2971,-4.3278,-4.264,-4.3578,-4.4408,-4.4227,0.0,0.0,0.0,0.0,0.0,0.0,0.0,0.0,0.0,0.0,0.0,0.0,0.0,0.0,-4.8185,-4.8185,-4.829,-4.8538,-4.8538,-4.8643,-4.8852,-4.8865,-4.8865,-4.8852,-4.8643,-4.8538,-4.8538,-4.829,-4.8185,-4.8185,-4.8185,0.0,0.0,-4.8185,-4.8185,-4.8185,-4.8185,-4.8185,-4.8185,-4.8185,-4.8185,-4.8185,-4.8185,-4.8185,-4.8185,-4.8185,-4.8185,-4.8185,-4.8185,-4.8185,-4.8185,-4.8185,-4.8185,-4.8055,-4.7442,-4.6909,-4.6491,-4.6657,-4.5379,-4.4484,-4.5876,-4.4595,-4.3314,-4.3752,-4.3012,-4.2148,-4.1753,-4.1508,-4.1046,-4.0312,-3.9604,-3.9088,-3.8824,-3.8447,-3.8181,-3.8181,-3.8336,-3.8378,-3.8202,-3.7839,-3.7384,-3.6836,-3.6277,-3.5801,-3.5438,-3.5418,-3.5418,-3.5418,-3.6125,-3.6764,-3.7298,-3.9322,-4.0628,-4.1157,-4.2388,-4.2974,-4.0017,-4.0605,-4.1089,-4.1272,-4.1311,-4.1461,0.0,0.0,-4.1461,-4.198,-4.2079,-4.2064,-4.1935,-4.2961,-4.3751,-4.3651,0.0,-4.6473,-4.6473,0.0,0.0,0.0,0.0,0.0,0.0,0.0,0.0,0.0,0.0,0.0,-4.8185,-4.8185,-4.8185,-4.8185,-4.8185,-4.8185,-4.8185,-4.8185,-4.8185,-4.8185,-4.8185,-4.8185,-4.8185,-4.8185,-4.8185,-4.8185,-4.8185,0.0,0.0,-4.8185,-4.8185,-4.8185,-4.8185,-4.8185,-4.8185,-4.8185,-4.8185,-4.8185,-4.8185,-4.8185,-4.8185,-4.8185,-4.8185,-4.8185,-4.8185,-4.8185,-4.8185,-4.8185,-4.8185,-4.8055,-4.7324,-4.6238,-4.5586,-4.6836,-4.5755,-4.478,-4.5985,-4.4718,-4.3377,-4.3377,-4.2633,-4.1817,-4.1368,-4.1111,-4.0712,-3.9997,-3.9473,-3.9154,-3.8956,-3.8514,-3.814,-3.7995,-3.7974,-3.7974,-3.7974,-3.726,-3.6763,-3.6596,-3.581,-3.5418,-3.5418,-3.5418,-3.5418,-3.5418,-3.6298,-3.7127,-3.7839,-3.9252,-4.0558,-4.1684,-4.2206,-4.2625,-3.9455,-4.0017,-4.0566,-4.1167,-4.1311,-4.1461,0.0,0.0,-4.1461,-4.198,-4.2079,-4.1944,-4.1424,-4.2697,-4.3618,-4.3075,-4.497,0.0,0.0,0.0,0.0,0.0,0.0,0.0,0.0,0.0,0.0,0.0,0.0,0.0,-4.8185,-4.8185,-4.8185,-4.8185,-4.8185,-4.8185,-4.8185,-4.8185,-4.8185,-4.8185,-4.8185,-4.8185,-4.8185,-4.8185,-4.8185,-4.8185,0.0,0.0,0.0,-4.8185,-4.8185,-4.8185,-4.8185,-4.8185,-4.8185,-4.8185,-4.8185,-4.8185,-4.8185,-4.8185,-4.8185,-4.8185,-4.8185,-4.8185,-4.8185,-4.8185,-4.8185,-4.8185,-4.8185,-4.8185,-4.8185,-4.673,-4.5768,-4.769,-4.5196,-4.2886,-4.4915,-4.374,-4.2339,-4.2339,-4.1753,-4.1304,-4.1304,-4.0712,-3.9986,-3.9276,-3.922,-3.8956,-3.8314,-3.8181,-3.8005,-3.755,-3.7498,-3.7498,-3.7498,-3.7074,-3.6596,-3.6128,-3.5686,-3.5418,-3.5418,-3.5418,-3.5418,-3.5418,-3.5418,-3.6664,-3.9169,-3.7958,-3.9311,-4.2974,-4.1684,-4.181,-3.8945,-3.969,-4.0461,-4.0657,-4.101,-4.1461,-4.198,0.0,-4.1461,-4.198,-4.1796,-4.1511,-4.1311,-4.2341,-4.3218,-4.3023,-4.4643,0.0,0.0,0.0,0.0,0.0,0.0,0.0,0.0,0.0,0.0,0.0,0.0,0.0,-4.8185,-4.8185,-4.8185,-4.8185,-4.8185,-4.8185,-4.8185,-4.8185,-4.8185,-4.8185,-4.8185,-4.8185,-4.8185,-4.8185,-4.8185,0.0,0.0,0.0,0.0,-4.8185,-4.8185,-4.8185,-4.8185,-4.8185,-4.8185,-4.8185,-4.8185,-4.8185,-4.8185,-4.8185,-4.8185,-4.8185,-4.8185,-4.8185,-4.8185,-4.8185,-4.8185,-4.8185,-4.769,-4.7193,-4.7193,-4.6238,-4.5464,-4.607,-4.473,-4.3502,-4.4113,-4.3251,-4.2136,-4.1701,-4.1444,-4.0982,-4.0007,-3.967,-3.9286,-3.8636,-3.8514,-3.8447,-3.8248,-3.7912,-3.7653,-3.7508,-3.6929,-3.6546,-3.6546,-3.6411,-3.6152,-3.5666,-3.5459,-3.5418,-3.5418,-3.5418,-3.5418,-3.5418,-3.6247,-3.7067,-3.7899,-3.9252,-4.0973,-4.2974,-4.2569,-4.2625,0.0,-3.9233,-3.9873,-4.0305,-4.0697,0.0,0.0,0.0,0.0,-4.198,-4.1647,-4.1311,-4.1311,-4.2252,-4.3023,-4.3023,-4.4487,0.0,0.0,0.0,0.0,0.0,0.0,0.0,0.0,0.0,0.0,0.0,0.0,0.0,-4.8185,-4.8185,-4.8185,-4.8185,-4.8185,-4.8185,-4.8185,-4.8185,-4.8185,-4.8185,-4.8185,-4.8185,-4.8185,-4.8185,-4.8185,0.0,0.0,0.0,0.0,-4.8185,-4.8185,-4.8185,-4.8185,-4.8185,-4.8185,-4.8185,-4.8185,-4.8185,-4.8185,-4.8185,-4.8185,-4.8185,-4.8185,-4.8185,-4.8185,-4.8185,-4.8185,-4.8185,-4.7749,-4.7205,-4.6777,-4.5997,-4.5281,-4.5281,-4.4237,-4.3314,-4.3752,-4.3012,-4.2084,-4.1433,-4.1111,-4.0517,-3.9407,-3.8956,-3.8702,-3.8248,-3.8181,-3.8119,-3.7943,-3.7674,-3.7363,-3.7011,-3.6463,-3.6039,-3.5863,-3.5852,-3.5728,-3.5438,-3.5418,-3.5418,-3.5418,-3.5418,-3.5418,-3.5418,-3.6186,-3.7067,-3.8018,-4.0558,-4.198,-4.2275,-4.2793,-4.2974,0.0,-3.8684,0.0,0.0,0.0,0.0,0.0,0.0,0.0,0.0,0.0,0.0,-4.1311,-4.2252,-4.3023,-4.3023,-4.4447,0.0,0.0,0.0,0.0,0.0,0.0,0.0,0.0,0.0,0.0,0.0,0.0,0.0,-4.8185,-4.8185,-4.8185,-4.8185,-4.8185,-4.8185,-4.8185,-4.8185,-4.8185,-4.8185,-4.8185,-4.8185,-4.8185,-4.8185,-4.8185,0.0,0.0,0.0,0.0,-4.8185,-4.8185,-4.8185,-4.8185,-4.8185,-4.8185,-4.8185,-4.8185,-4.8185,-4.8185,-4.8185,-4.8185,-4.8185,-4.8185,-4.8185,-4.8127,-4.8127,-4.8185,-4.8127,-4.8068,-4.788,-4.6836,-4.5876,-4.522,-4.522,-4.3689,-4.2518,-4.3439,-4.2886,-4.202,-4.1304,-4.0582,-3.9931,-3.922,-3.8636,-3.8171,-3.814,-3.814,-3.7974,-3.7508,-3.7415,-3.7063,-3.6204,-3.608,-3.5883,-3.5459,-3.5418,-3.5418,-3.5418,-3.5418,-3.5418,-3.5418,-3.5418,-3.5418,-3.5418,-3.5479,-3.6785,-3.9345,-4.1684,-4.2331,-4.1272,-4.2444,-4.2974,-3.8057,0.0,-3.8776,-3.9037,-3.9769,-4.0448,0.0,0.0,0.0,0.0,0.0,0.0,0.0,0.0,-4.3023,-4.3023,0.0,0.0,0.0,0.0,0.0,0.0,0.0,0.0,0.0,0.0,0.0,0.0,0.0,-4.8185,-4.8185,-4.8185,-4.8185,-4.8185,-4.8185,-4.8185,-4.8185,-4.8185,-4.8185,-4.8185,-4.8185,-4.8185,-4.8185,-4.8185,-4.8185,0.0,0.0,0.0,-4.8185,-4.8185,-4.8185,-4.8185,-4.8185,-4.8185,-4.8185,-4.8185,-4.8185,-4.8185,-4.8185,-4.8185,-4.8185,-4.8185,-4.8185,-4.8055,-4.7265,-4.7573,-4.8055,-4.7265,-4.7074,-4.6836,-4.5876,-4.4902,-4.4175,-4.4175,-4.32,-4.2212,-4.1945,-4.1689,-4.1175,-3.9931,-3.9538,-3.921,-3.857,-3.8314,-3.8067,-3.7705,-3.7653,-3.7488,-3.7022,-3.666,-3.6349,-3.6132,-3.5801,-3.5542,-3.5428,-3.5418,-3.5418,-3.5418,-3.5418,-3.5418,-3.5418,-3.5418,-3.5418,-3.5418,-3.6359,-3.8138,-4.0628,-4.1272,-4.1866,-4.2557,-4.2862,-4.2974,-3.79,-3.8122,-3.8397,-3.8645,-3.9377,-4.0109,0.0,0.0,0.0,0.0,0.0,0.0,0.0,0.0,0.0,0.0,-4.399,0.0,0.0,0.0,0.0,0.0,0.0,0.0,0.0,0.0,0.0,0.0,0.0,-4.8185,-4.8185,-4.8185,-4.8185,-4.8185,-4.8185,-4.8185,-4.8185,-4.8185,-4.8185,-4.8185,-4.8185,-4.8185,-4.8185,-4.8185,-4.8185,0.0,0.0,0.0,-4.8185,-4.8185,-4.8185,-4.8185,-4.8185,-4.8185,-4.8185,-4.8185,-4.8185,-4.8185,-4.8185,-4.8185,-4.8185,-4.8185,-4.788,-4.7383,-4.6896,-4.6777,-4.673,-4.6238,-4.6057,-4.5755,-4.446,-4.3728,-4.3165,-4.2345,-4.1731,-4.1229,-4.0841,-4.0777,-4.0453,-3.9418,-3.922,-3.8956,-3.8314,-3.8005,-3.7777,-3.7529,-3.7312,-3.7011,-3.6546,-3.6266,-3.6028,-3.5821,-3.5573,-3.5418,-3.5418,-3.5418,-3.5418,-3.5418,-3.5418,-3.5418,-3.5418,-3.5418,-3.5418,-3.5418,-3.7259,-3.8851,-4.0222,-4.1386,-4.2331,-4.2974,-4.2974,-4.2681,-3.79,-3.79,-3.8018,-3.8462,-3.9037,-3.9625,-4.0161,0.0,0.0,0.0,0.0,0.0,0.0,0.0,0.0,0.0,0.0,0.0,0.0,0.0,0.0,0.0,0.0,0.0,0.0,0.0,0.0,0.0,0.0,-4.8185,-4.8185,-4.8185,-4.8185,-4.8185,-4.8185,-4.8185,-4.8185,-4.8185,-4.8185,-4.8185,-4.8185,-4.8185,-4.8185,-4.8185,-4.8185,-4.8185,0.0,0.0,-4.8185,-4.8185,-4.8185,-4.8185,-4.8185,-4.8185,-4.8185,-4.8185,-4.8185,-4.8185,-4.8185,-4.8185,-4.8185,-4.8185,-4.7632,-4.6896,-4.6777,-4.6057,-4.5281,-4.4964,-4.4902,-4.4521,-4.2839,-4.2397,-4.2016,-4.056,-4.0181,-4.0181,-4.0051,-4.0051,-3.9866,-3.9154,-3.9022,-3.8869,-3.8221,-3.7757,-3.7446,-3.7301,-3.6949,-3.6535,-3.607,-3.6008,-3.5852,-3.5469,-3.5418,-3.5418,-3.5418,-3.5418,-3.5418,-3.5418,-3.5418,-3.5418,-3.5418,-3.5418,-3.5479,-3.5716,-3.779,-3.898,-3.9216,-4.1386,-4.2444,-4.2444,-4.2444,-4.1923,-3.79,-3.79,-3.7926,-3.8004,-3.8436,-3.8998,-3.9599,0.0,0.0,0.0,0.0,0.0,0.0,0.0,0.0,0.0,0.0,0.0,0.0,0.0,0.0,0.0,0.0,0.0,0.0,0.0,0.0,0.0,0.0,-4.8185,-4.8185,-4.8185,-4.8185,-4.8185,-4.8185,-4.8185,-4.8185,-4.8185,-4.8185,-4.8185,-4.8185,-4.8185,-4.8185,-4.8185,-4.8185,-4.8185,0.0,-4.8185,-4.8185,-4.8185,-4.8185,-4.8185,-4.8185,-4.8185,-4.8185,-4.8185,-4.8185,-4.8185,-4.8185,-4.8185,-4.8185,-4.8185,-4.8127,-4.7808,-4.6955,-4.6057,-4.5025,-4.3591,-4.3153,-4.2776,-4.1066,-4.0625,-4.0495,-4.0247,-4.0181,-4.0051,-3.9473,-3.9341,-3.9154,-3.8503,-3.8381,-3.819,-3.7664,-3.7539,-3.7229,-3.6442,-3.6266,-3.6049,-3.5583,-3.5531,-3.55,-3.5428,-3.5418,-3.5418,-3.5418,-3.5418,-3.5418,-3.5418,-3.5418,-3.5418,-3.5418,-3.5418,-3.589,-3.7006,-3.7358,-3.8138,-3.9216,-3.9569,-3.9803,-3.9803,-3.9803,-4.028,-3.79,-3.79,-3.79,-3.79,-3.8553,-3.9272,-3.9547,0.0,0.0,0.0,0.0,0.0,0.0,0.0,0.0,0.0,0.0,0.0,0.0,0.0,0.0,0.0,0.0,0.0,0.0,0.0,0.0,0.0,0.0,0.0,-4.8185,-4.8185,-4.8185,-4.8185,-4.8185,-4.8185,-4.8185,-4.8185,-4.8185,-4.8185,-4.8185,-4.8185,-4.8185,-4.8185,-4.8185,-4.8185,0.0,-4.8185,-4.8185,-4.8185,-4.8185,-4.8185,-4.8185,-4.8185,-4.8185,-4.8185,-4.8185,-4.8185,-4.8185,-4.8185,-4.8185,-4.8185,-4.7808,-4.7205,-4.6238,-4.5013,-4.3591,-4.1888,-4.1655,-4.1667,-4.0051,-3.967,-3.9538,-3.922,-3.9088,-3.9022,-3.8702,-3.8636,-3.857,-3.8248,-3.7984,-3.7746,-3.7529,-3.7084,-3.6608,-3.6173,-3.5894,-3.5656,-3.5449,-3.5418,-3.5418,-3.5418,-3.5418,-3.5418,-3.5418,-3.5418,-3.5418,-3.5418,-3.5418,-3.5418,-3.5418,-3.5418,-3.5654,-3.6237,-3.6946,-3.7599,-3.8197,-3.8862,-3.9216,-3.9228,-3.9931,-4.0152,-3.79,-3.79,-3.79,-3.79,-3.8658,-3.9442,-3.9573,0.0,0.0,0.0,0.0,0.0,0.0,0.0,0.0,0.0,0.0,0.0,0.0,0.0,0.0,0.0,0.0,0.0,0.0,0.0,0.0,0.0,0.0,0.0,-4.8185,-4.8185,-4.8185,-4.8185,-4.8185,-4.8185,-4.8185,-4.8185,-4.8185,-4.8185,-4.8185,-4.8185,-4.8185,-4.8185,-4.8185,-4.8185,-4.8185,-4.8185,-4.8185,-4.8185,-4.8185,-4.8185,-4.8185,-4.8185,-4.8185,-4.8185,-4.8185,-4.8185,-4.8127,-4.8055,-4.8055,-4.7997,-4.7442,-4.6657,-4.5937,-4.4706,-4.3142,-4.1301,-4.1013,-4.0895,-3.9352,-3.8956,-3.8824,-3.8314,-3.8181,-3.8181,-3.8181,-3.8098,-3.8026,-3.8026,-3.7653,-3.7301,-3.7187,-3.6587,-3.607,-3.5966,-3.5645,-3.5418,-3.5418,-3.5418,-3.5418,-3.5418,-3.5418,-3.5418,-3.5418,-3.5418,-3.5418,-3.5418,-3.5418,-3.5418,-3.5418,-3.5418,-3.5418,-3.5418,-3.6359,-3.6835,-3.6835,-3.785,-3.8447,-3.8803,-3.9744,-4.0036,-3.79,-3.79,-3.79,-3.79,-3.8344,0.0,-3.9481,-4.0056,0.0,-4.1193,0.0,0.0,0.0,0.0,0.0,0.0,0.0,0.0,0.0,0.0,0.0,0.0,0.0,0.0,0.0,0.0,0.0,0.0,0.0,0.0,-4.8185,-4.8185,-4.8185,-4.8185,-4.8185,-4.8185,-4.8185,-4.8185,-4.8185,-4.8185,-4.8185,-4.8185,-4.8185,-4.8185,-4.8185,-4.8185,-4.8185,-4.8185,-4.8185,-4.8185,-4.8185,-4.8185,-4.8185,-4.8185,-4.8185,-4.8185,-4.8185,-4.8185,-4.7808,-4.7749,-4.769,-4.7383,-4.7205,-4.7146,-4.7087,-4.6358,-4.5135,-4.3083,-4.1906,-4.0721,-3.8758,-3.8248,-3.8248,-3.8181,-3.8181,-3.8181,-3.8181,-3.785,-3.7539,-3.7539,-3.7167,-3.6711,-3.6287,-3.6152,-3.5966,-3.5531,-3.5438,-3.5418,-3.5418,-3.5418,-3.5418,-3.5418,-3.5418,-3.5418,-3.5418,-3.5418,-3.5418,-3.5418,-3.5418,-3.5418,-3.5418,-3.5418,-3.5418,-3.5418,-3.5479,-3.5541,-3.5541,-3.5603,-3.6308,-3.7418,-3.7539,-3.878,-3.79,-3.79,-3.7978,-3.8318,-3.8841,0.0,0.0,-4.0318,-4.1036,-4.1272,-4.1311,0.0,0.0,0.0,0.0,0.0,0.0,0.0,0.0,0.0,0.0,0.0,0.0,0.0,0.0,0.0,0.0,0.0,0.0,0.0,-4.8185,-4.8185,-4.8185,-4.8185,-4.8185,-4.8185,-4.8185,-4.8185,-4.8185,-4.8185,-4.8185,-4.8185,-4.8185,-4.8185,-4.8185,-4.8185,-4.8185,-4.8185,-4.8185,-4.8185,-4.8185,-4.8185,-4.8185,-4.8185,-4.8185,-4.7938,-4.7997,-4.8127,-4.7821,-4.769,-4.769,-4.7573,-4.7383,-4.7074,-4.6491,-4.573,-4.467,-4.2402,-4.1215,-4.0203,-3.8626,-3.8181,-3.8181,-3.8181,-3.8181,-3.8109,-3.7819,-3.7622,-3.7405,-3.7115,-3.6691,-3.6318,-3.6142,-3.5873,-3.5625,-3.5449,-3.5418,-3.5418,-3.5418,-3.5418,-3.5418,-3.5418,-3.5418,-3.5418,-3.5418,-3.5418,-3.5418,-3.5418,-3.5418,-3.5418,-3.5418,-3.5418,-3.5418,-3.5418,-3.5418,-3.5418,-3.5418,-3.5418,-3.6063,-3.7298,-3.8138,-3.944,-3.79,-3.79,-3.7991,-3.8357,0.0,0.0,-3.9612,-4.0501,-4.1311,-4.1311,-4.1598,0.0,0.0,0.0,0.0,0.0,0.0,0.0,0.0,0.0,0.0,0.0,0.0,0.0,0.0,0.0,0.0,0.0,0.0,0.0,0.0,-4.8185,-4.8185,-4.8185,-4.8185,-4.8185,-4.8185,-4.8185,-4.8185,-4.8185,-4.8185,-4.8185,-4.8185,-4.8185,-4.8185,-4.8185,-4.8185,-4.8185,-4.8185,-4.8185,-4.8185,-4.8185,-4.8185,-4.8185,-4.8185,-4.7938,-4.7938,-4.7997,-4.7632,-4.7468,-4.7421,-4.729,-4.6789,-4.6153,-4.55,-4.467,-4.3485,-4.1279,-4.036,-3.9628,-3.8162,-3.786,-3.7964,-3.7964,-3.785,-3.7664,-3.7343,-3.7156,-3.697,-3.6649,-3.6215,-3.5894,-3.5894,-3.5625,-3.5418,-3.5418,-3.5418,-3.5418,-3.5418,-3.5418,-3.5418,-3.5418,-3.5418,-3.5418,-3.5418,-3.5418,-3.5418,-3.5418,-3.5418,-3.5418,-3.5418,-3.5418,-3.5418,-3.5418,-3.5418,-3.5418,-3.5418,-3.5418,-3.6063,-3.7358,-3.8396,-3.9628,-3.79,-3.79,-3.79,0.0,0.0,0.0,-3.9625,-4.0501,-4.1311,-4.1311,0.0,-4.301,-4.3023,0.0,0.0,0.0,0.0,0.0,0.0,0.0,0.0,0.0,0.0,0.0,0.0,0.0,0.0,0.0,0.0,0.0,0.0,-4.8185,-4.8185,-4.8185,-4.8185,-4.8185,-4.8185,-4.8185,-4.8185,-4.8185,-4.8185,-4.8185,-4.8185,-4.8185,-4.8185,-4.8185,-4.8185,-4.8185,-4.8185,-4.8185,-4.8185,-4.8185,-4.8185,-4.8185,-4.8185,-4.8185,-4.7997,-4.7632,-4.7324,-4.6993,-4.6746,-4.6373,-4.5403,-4.43,-4.43,-4.3283,-4.1845,-3.9975,-3.946,-3.9107,-3.7294,-3.7146,-3.7488,-3.7488,-3.7136,-3.6804,-3.6794,-3.6442,-3.6111,-3.6101,-3.5738,-3.5418,-3.5418,-3.5418,-3.5418,-3.5418,-3.5418,-3.5418,-3.5418,-3.5418,-3.5418,-3.5418,-3.5418,-3.5418,-3.5418,-3.5418,-3.5418,-3.5418,-3.5418,-3.5418,-3.5418,-3.5418,-3.5418,-3.5418,-3.5418,-3.5418,-3.5418,-3.5418,-3.6063,-3.7336,-3.8046,-3.9091,-3.79,-3.79,0.0,0.0,0.0,0.0,0.0,0.0,0.0,0.0,0.0,0.0,0.0,0.0,0.0,0.0,0.0,0.0,0.0,0.0,0.0,0.0,0.0,0.0,0.0,0.0,0.0,0.0,0.0,0.0,0.0,-4.8185,-4.8185,-4.8185,-4.8185,-4.8185,-4.8185,-4.8185,-4.8185,-4.8185,-4.8185,-4.8185,-4.8185,-4.8185,-4.8185,-4.8185,-4.8185,-4.8185,-4.8185,-4.8185,-4.8185,-4.8185,-4.8185,-4.8068,-4.7808,-4.7573,-4.7442,-4.7337,-4.7006,-4.6853,-4.6601,-4.5561,-4.4561,-4.3587,-4.2618,-4.1866,-4.0936,-3.9431,-3.9021,-3.8684,-3.721,-3.667,-3.6608,-3.6929,-3.6908,-3.6711,-3.639,-3.6204,-3.6018,-3.5687,-3.5521,-3.5418,-3.5418,-3.5418,-3.5418,-3.5418,-3.5418,-3.5418,-3.5418,-3.5418,-3.5418,-3.5418,-3.5418,-3.5418,-3.5418,-3.5418,-3.5418,-3.5418,-3.5418,-3.5418,-3.5418,-3.5418,-3.5418,-3.5418,-3.5418,-3.5262,-3.4962,-3.4962,-3.59,-3.7574,-3.7828,-3.9016,-3.7835,0.0,0.0,0.0,0.0,0.0,0.0,0.0,0.0,0.0,0.0,0.0,0.0,0.0,0.0,0.0,0.0,0.0,0.0,0.0,0.0,0.0,0.0,0.0,0.0,0.0,0.0,0.0,0.0,0.0,0.0,-4.7728,-4.7845,-4.7845,-4.8068,-4.8185,-4.8185,-4.8185,-4.8185,-4.8185,-4.8185,-4.8185,-4.8185,-4.8185,-4.8185,-4.8185,-4.8185,-4.8114,-4.7997,-4.7997,-4.7938,-4.7808,-4.7808,-4.769,-4.7514,-4.7265,-4.7005,-4.6649,-4.6497,-4.5883,-4.5074,-4.4232,-4.2899,-4.1549,-4.066,-3.9909,-3.9092,-3.8032,-3.7738,-3.7507,-3.6477,-3.6049,-3.5956,-3.6422,-3.639,-3.6173,-3.5894,-3.5832,-3.5759,-3.548,-3.5418,-3.5418,-3.5418,-3.5418,-3.5418,-3.5418,-3.5418,-3.5418,-3.5418,-3.5418,-3.5418,-3.5418,-3.5418,-3.5418,-3.5418,-3.5418,-3.5345,-3.5169,-3.5159,-3.5076,-3.489,-3.5066,-3.5159,-3.5159,-3.5449,-3.5459,-3.5184,-3.5698,-3.6523,-3.7644,-3.7943,-3.8859,-3.7678,0.0,0.0,0.0,0.0,0.0,0.0,0.0,0.0,0.0,0.0,0.0,0.0,0.0,0.0,0.0,0.0,0.0,0.0,0.0,0.0,0.0,0.0,0.0,0.0,0.0,0.0,0.0,0.0,0.0,0.0,-4.697,-4.7257,-4.7257,-4.7754,-4.8028,-4.8028,-4.8028,-4.8028,-4.8028,-4.8028,-4.797,-4.797,-4.8133,-4.8185,-4.8185,-4.8185,-4.7971,-4.7626,-4.7613,-4.7398,-4.7052,-4.7052,-4.7052,-4.6993,-4.6993,-4.6509,-4.5796,-4.5666,-4.4373,-4.2771,-4.252,-4.0758,-3.8747,-3.8622,-3.7678,-3.6587,-3.6173,-3.6049,-3.5956,-3.5531,-3.5418,-3.5531,-3.5945,-3.5728,-3.5418,-3.5418,-3.5418,-3.5418,-3.5418,-3.5418,-3.5418,-3.5418,-3.5418,-3.5418,-3.5418,-3.5418,-3.5418,-3.5418,-3.5418,-3.5418,-3.5418,-3.5418,-3.5407,-3.5366,-3.5366,-3.5169,-3.4785,-3.4754,-3.4567,-3.4142,-3.4536,-3.4814,-3.4875,-3.5494,-3.5773,-3.5718,-3.6962,-3.7507,-3.7507,-3.8197,-3.8581,0.0,0.0,0.0,0.0,0.0,0.0,0.0,0.0,0.0,0.0,0.0,0.0,0.0,0.0,0.0,0.0,0.0,0.0,0.0,0.0,0.0,0.0,0.0,0.0,0.0,0.0,0.0,0.0,0.0,0.0,-4.6473,-4.6591,-4.6669,-4.6669,-4.6787,-4.6852,-4.6852,-4.6852,-4.6725,0.0,-4.6485,-4.637,-4.6193,-4.7606,-4.8185,-4.8185,-4.8185,-4.7762,-4.7069,-4.7101,-4.6656,-4.5924,-4.5924,-4.5796,-4.5565,-4.5565,-4.5256,-4.4736,-4.3784,-4.3165,-4.2461,-4.0352,-3.9046,-3.8131,-3.7043,-3.6248,-3.5697,-3.5594,-3.5573,-3.5552,-3.5449,-3.5418,-3.5449,-3.5552,-3.549,-3.5418,-3.5418,-3.5418,-3.5418,-3.5418,-3.5418,-3.5418,-3.5418,-3.5418,-3.5418,-3.5418,-3.5418,-3.5418,-3.5418,-3.5418,-3.5418,-3.5418,-3.5418,-3.5283,-3.4931,-3.49,-3.4703,-3.4308,-3.4277,-3.4235,-3.4072,-3.4225,-3.4683,-3.5548,-3.5732,-3.5598,-3.5275,-3.6443,-3.6853,-3.6518,-3.7554,-3.8542,0.0,0.0,0.0,0.0,0.0,0.0,0.0,0.0,0.0,0.0,0.0,0.0,0.0,0.0,0.0,0.0,0.0,0.0,0.0,0.0,0.0,0.0,0.0,0.0,0.0,0.0,0.0,0.0,0.0,-4.5637,-4.5637,-4.5911,-4.6068,-4.6068,-4.6342,-4.6473,-4.6473,-4.636,-4.6178,-4.6008,-4.5894,-4.5737,-4.5648,-4.6527,-4.6959,-4.6959,-4.6959,-4.663,-4.6071,-4.6046,-4.5694,-4.5093,-4.5093,-4.5036,-4.4863,-4.4863,-4.4583,-4.4114,-4.3523,-4.2335,-4.0856,-3.9454,-3.8021,-3.6742,-3.5957,-3.5614,-3.5418,-3.5418,-3.5418,-3.5418,-3.5418,-3.5418,-3.5418,-3.5418,-3.5418,-3.5418,-3.5418,-3.5418,-3.5418,-3.5418,-3.5418,-3.5418,-3.5418,-3.5418,-3.5418,-3.5418,-3.5418,-3.5418,-3.5418,-3.5418,-3.5335,-3.5128,-3.5107,-3.4921,-3.4526,-3.4484,-3.4287,-3.3762,-3.3731,-3.3648,-3.3441,-3.343,-3.3805,-3.4646,-3.4999,-3.5307,-3.5647,-3.6818,-3.7559,-3.7885,-3.8489,-3.9089,0.0,0.0,0.0,0.0,0.0,0.0,0.0,0.0,0.0,0.0,0.0,0.0,0.0,0.0,0.0,0.0,0.0,0.0,0.0,0.0,0.0,0.0,0.0,0.0,0.0,0.0,0.0,0.0,0.0,-4.4681,-4.4626,-4.5151,-4.5425,-4.5314,-4.5826,-4.613,-4.6074,-4.578,-4.5598,-4.5541,-4.5271,-4.5157,-4.5157,-4.5157,-4.5329,-4.5578,-4.5578,-4.5342,-4.4954,-4.4954,-4.4718,-4.433,-4.433,-4.433,-4.433,-4.433,-4.4053,-4.3595,-4.3184,-4.1345,-3.9098,-3.8684,-3.7149,-3.5418,-3.5418,-3.5418,-3.5418,-3.5418,-3.5418,-3.5418,-3.5418,-3.5418,-3.5418,-3.5418,-3.5418,-3.5418,-3.5418,-3.5418,-3.5418,-3.5418,-3.5418,-3.5418,-3.5418,-3.5418,-3.5418,-3.5418,-3.5418,-3.5387,-3.5324,-3.5304,-3.5138,-3.4743,-3.4702,-3.4515,-3.4049,-3.4007,-3.3751,-3.3296,-3.3265,-3.311,-3.2747,-3.2898,-3.3179,-3.3592,-3.4396,-3.5278,-3.6185,-3.7554,-3.8607,-3.9362,-3.9581,-3.9697,0.0,0.0,0.0,0.0,0.0,0.0,0.0,0.0,0.0,0.0,0.0,0.0,0.0,0.0,0.0,0.0,0.0,0.0,0.0,0.0,0.0,0.0,0.0,0.0,0.0,0.0,0.0,0.0,-4.4668,-4.4626,-4.4367,-4.465,-4.4593,-4.4112,-4.4452,-4.4491,-4.4228,-4.4173,-4.4049,-4.3721,-4.3467,-4.3368,-4.3368,-4.3368,-4.418,-4.5578,-4.5578,-4.517,-4.4427,-4.4427,-4.3922,-4.32,-4.32,-4.32,-4.32,-4.32,-4.315,-4.2794,-4.0561,-3.9509,-3.8862,-3.6613,-3.5654,-3.5418,-3.5418,-3.5418,-3.5418,-3.5418,-3.5418,-3.5418,-3.5418,-3.5418,-3.5418,-3.5418,-3.5418,-3.5418,-3.5418,-3.5418,-3.5418,-3.5418,-3.5418,-3.5418,-3.5418,-3.5418,-3.5418,-3.5418,-3.5418,-3.5283,-3.49,-3.4909,-3.4733,-3.4207,-3.4165,-3.3969,-3.3503,-3.3472,-3.3285,-3.284,-3.282,-3.2789,-3.2669,-3.3706,-3.4289,-3.4354,-3.5422,-3.6034,-3.6185,-3.8372,-3.8985,-3.8161,-3.9193,-3.9697,0.0,0.0,0.0,0.0,0.0,0.0,0.0,0.0,0.0,0.0,0.0,0.0,0.0,0.0,0.0,0.0,0.0,0.0,0.0,0.0,0.0,0.0,0.0,0.0,0.0,0.0,0.0,0.0,-4.4068,-4.4198,-4.409,-4.4349,-4.4367,-4.4107,-4.4107,-4.3997,-4.3899,-4.3708,-4.3474,-4.3184,-4.3085,-4.2974,-4.2974,-4.2974,-4.3418,-4.4167,-4.4167,-4.3915,-4.3563,-4.3563,-4.3368,-4.2974,-4.2974,-4.2974,-4.2974,-4.2974,-4.2974,-4.2862,-4.1741,-4.0858,-4.0094,-3.8969,-3.761,-3.6481,-3.6481,-3.5951,-3.5418,-3.5418,-3.5418,-3.5418,-3.5418,-3.5418,-3.5418,-3.5418,-3.5418,-3.5418,-3.5418,-3.5418,-3.5418,-3.5418,-3.5418,-3.5418,-3.5418,-3.5418,-3.5335,-3.5086,-3.5045,-3.489,-3.4494,-3.4432,-3.4256,-3.3789,-3.3738,-3.3503,-3.3058,-3.3016,-3.2934,-3.269,-3.2669,-3.2669,-3.2669,-3.3218,-3.3491,-3.3491,-3.5267,-3.6522,-3.718,-3.8161,-3.8764,-3.8921,-3.9478,-3.9697,0.0,0.0,0.0,0.0,0.0,0.0,0.0,0.0,0.0,0.0,0.0,0.0,0.0,0.0,0.0,0.0,0.0,0.0,0.0,0.0,0.0,0.0,0.0,0.0,0.0,0.0,0.0,0.0,-4.3257,-4.3438,-4.3398,-4.364,-4.3723,-4.3547,-4.3409,-4.3313,-4.3245,-4.2988,-4.2768,-4.2559,-4.2559,-4.2559,-4.2559,-4.2559,-4.2559,-4.2572,-4.2861,-4.2974,-4.2974,-4.2974,-4.2974,-4.2974,-4.2974,-4.2974,-4.2974,-4.2974,-4.2886,-4.276,-4.2413,-4.1391,-4.0166,-3.9879,-3.8299,-3.648,-3.648,-3.5837,-3.5076,-3.5076,-3.5076,-3.5076,-3.5076,-3.5076,-3.5076,-3.5076,-3.5076,-3.5107,-3.5231,-3.5252,-3.5221,-3.5097,-3.5076,-3.5076,-3.5076,-3.5076,-3.4962,-3.4691,-3.464,-3.4474,-3.3958,-3.3896,-3.372,-3.3254,-3.3213,-3.3078,-3.2758,-3.2669,-3.2669,-3.2669,-3.2669,-3.2669,-3.2669,-3.3001,-3.3172,-3.3172,-3.5168,-3.6468,-3.7019,-3.734,-3.7938,-3.8816,-3.8816,-3.8816,0.0,0.0,0.0,0.0,0.0,0.0,0.0,0.0,0.0,0.0,0.0,0.0,0.0,0.0,0.0,0.0,0.0,0.0,0.0,0.0,0.0,0.0,0.0,0.0,0.0,0.0,0.0,0.0,-4.2407,-4.2181,-4.1928,-4.2153,-4.206,-4.1483,-4.1752,-4.1764,-4.143,-4.143,-4.143,-4.1376,-4.1376,-4.1376,-4.1376,-4.1376,-4.1376,-4.1426,-4.2522,-4.2974,-4.2974,-4.2974,-4.2974,-4.2974,-4.2974,-4.2974,-4.2974,-4.2974,-4.2703,-4.2086,-4.0872,-3.9332,-3.7668,-3.6487,-3.5286,-3.4253,-3.4253,-3.4194,-3.4194,-3.4194,-3.4194,-3.4194,-3.4194,-3.4194,-3.4194,-3.4194,-3.4194,-3.4258,-3.4764,-3.4857,-3.4723,-3.4227,-3.4194,-3.4194,-3.4194,-3.4194,-3.4194,-3.4163,-3.4163,-3.3997,-3.3472,-3.342,-3.3244,-3.2809,-3.2768,-3.2758,-3.2669,-3.2669,-3.2669,-3.2669,-3.2669,-3.2669,-3.2669,-3.3829,-3.4424,-3.4424,-3.5608,-3.5706,-3.4692,-3.5761,-3.6294,-3.6402,-3.6402,-3.6402,0.0,0.0,0.0,0.0,0.0,0.0,0.0,0.0,0.0,0.0,0.0,0.0,0.0,0.0,0.0,0.0,0.0,0.0,0.0,0.0,0.0,0.0,0.0,0.0,0.0,0.0,0.0,0.0,0.0,-4.1814,-4.154,-4.1779,-4.1823,-4.1622,-4.1503,-4.1395,-4.1288,-4.1288,-4.1288,-4.1288,-4.1288,-4.1288,-4.1288,-4.1288,-4.1288,-4.1313,-4.1756,-4.1932,-4.1932,-4.1932,-4.1932,-4.1932,-4.1932,-4.1932,-4.1932,-4.1932,-4.1806,-4.1455,-4.0257,-3.9435,-3.8724,-3.7542,-3.6305,-3.5349,-3.5349,-3.4762,-3.4132,-3.4132,-3.4132,-3.4132,-3.4132,-3.4132,-3.4132,-3.4132,-3.4132,-3.409,-3.3955,-3.4163,-3.4329,-3.4163,-3.4132,-3.4132,-3.4132,-3.4132,-3.4028,-3.3668,-3.3627,-3.3461,-3.3016,-3.2965,-3.2903,-3.269,-3.2669,-3.2669,-3.2669,-3.2669,-3.2669,-3.2669,-3.2669,-3.2669,-3.2669,-3.3115,-3.3332,-3.3332,-3.3762,-3.4514,-3.5597,-3.6738,-3.7287,-3.7287,-3.8108,-3.8437,0.0,0.0,0.0,0.0,0.0,0.0,0.0,0.0,0.0,0.0,0.0,0.0,0.0,0.0,0.0,0.0,0.0,0.0,0.0,0.0,0.0,0.0,0.0,0.0,0.0,0.0,0.0,0.0,0.0,0.0,-4.0861,-4.1009,-4.1107,-4.1107,-4.0895,-4.0736,-4.0736,-4.0736,-4.0736,-4.0736,-4.0736,-4.0736,-4.0736,-4.0736,-4.0736,-4.0736,-4.0736,-4.099,-4.1288,-4.1288,-4.1288,-4.1288,-4.1288,-4.1288,-4.1222,-4.0885,-4.0599,-4.0264,-3.9127,-3.8347,-3.7764,-3.6995,-3.5933,-3.4876,-3.4876,-3.4307,-3.3617,-3.3617,-3.3617,-3.3617,-3.3617,-3.3617,-3.3617,-3.3617,-3.3617,-3.3534,-3.3223,-3.3513,-3.3793,-3.3648,-3.3617,-3.3617,-3.3617,-3.3617,-3.3513,-3.3203,-3.3161,-3.3058,-3.2711,-3.2669,-3.2669,-3.2669,-3.2669,-3.2669,-3.2669,-3.2669,-3.2669,-3.2669,-3.2669,-3.2669,-3.2669,-3.3069,-3.3277,-3.3279,-3.3668,-3.4657,-3.6185,-3.6588,-3.6965,-3.734,-3.8161,-3.8699,0.0,0.0,0.0,0.0,0.0,0.0,0.0,0.0,0.0,0.0,0.0,0.0,0.0,0.0,0.0,0.0,0.0,0.0,0.0,0.0,0.0,0.0,0.0,0.0,0.0,0.0,0.0,0.0,-3.9839,-3.9697,-3.9697,-3.9697,-3.9697,-3.9697,-3.9697,-3.9697,-3.9697,-3.9697,-3.9697,-3.9697,-3.9697,-3.9697,-3.9697,-3.9697,-3.9697,-3.9697,-3.9697,-4.03,-4.1238,-4.1238,-4.1238,-4.1238,-4.1238,-4.1238,-4.1118,-4.0038,-3.9249,-3.8587,-3.7417,-3.5903,-3.4469,-3.448,-3.366,-3.2669,-3.2669,-3.2669,-3.2669,-3.2669,-3.2669,-3.2669,-3.2669,-3.2669,-3.2669,-3.2669,-3.2669,-3.2669,-3.2669,-3.3058,-3.3234,-3.282,-3.2669,-3.2669,-3.2669,-3.2669,-3.2669,-3.2669,-3.2669,-3.2669,-3.2669,-3.2669,-3.2669,-3.2669,-3.2669,-3.2669,-3.2669,-3.2669,-3.2669,-3.2669,-3.2669,-3.2737,-3.2747,-3.3862,-3.448,-3.4527,-3.5568,-3.6175,-3.6185,-3.5124,-3.5179,-3.624,-3.6294,-3.69,-3.5142,0.0,0.0,0.0,0.0,0.0,0.0,0.0,0.0,0.0,0.0,0.0,0.0,0.0,0.0,0.0,0.0,0.0,0.0,0.0,0.0,0.0,0.0,0.0,0.0,0.0,0.0,0.0,-3.9929,-3.989,-3.9697,-3.9697,-3.9697,-3.9697,-3.9697,-3.9697,-3.9697,-3.9697,-3.9697,-3.9697,-3.9697,-3.9697,-3.9697,-3.9697,-3.9697,-3.9697,-3.9697,-3.9873,-4.0149,-4.0149,-4.0149,-4.0149,-4.0149,-4.0149,-4.0097,-3.981,-3.9002,-3.7994,-3.6839,-3.5556,-3.4368,-3.3501,-3.2944,-3.2669,-3.2669,-3.2669,-3.2669,-3.2669,-3.2669,-3.2669,-3.2669,-3.2669,-3.2669,-3.2669,-3.2669,-3.2669,-3.2669,-3.283,-3.2871,-3.2758,-3.2669,-3.2669,-3.2669,-3.2669,-3.2669,-3.2669,-3.2669,-3.2669,-3.2669,-3.2669,-3.2669,-3.2669,-3.2669,-3.2669,-3.2669,-3.2669,-3.2669,-3.2669,-3.2669,-3.3069,-3.3951,-3.347,-3.36,-3.446,-3.4787,-3.5375,-3.6185,-3.6696,-3.7126,-3.7447,-3.8332,-3.8921,-3.4829,0.0,0.0,0.0,0.0,0.0,-3.7848,-3.79,0.0,0.0,0.0,0.0,0.0,0.0,0.0,0.0,0.0,0.0,0.0,0.0,0.0,0.0,0.0,0.0,0.0,-3.9929,-3.989,-3.9697,-3.9839,-3.9839,-3.9697,-3.9697,-3.9697,-3.9697,-3.9697,-3.9697,-3.9697,-3.9697,-3.9697,-3.9697,-3.9697,-3.9697,-3.9697,-3.9697,-3.9697,-3.9697,-3.9697,-3.9697,-3.9697,-3.9697,-3.9697,-3.9697,-3.9697,-3.9697,-3.9581,-3.8594,-3.7767,-3.6965,-3.5333,-3.4302,-3.3604,-3.2944,-3.2669,-3.2669,-3.2669,-3.2669,-3.2669,-3.2669,-3.2669,-3.2669,-3.2669,-3.2669,-3.2669,-3.2669,-3.2669,-3.2669,-3.2669,-3.2669,-3.2669,-3.2669,-3.2669,-3.2669,-3.2669,-3.2669,-3.2669,-3.2669,-3.2669,-3.2669,-3.2669,-3.2669,-3.2669,-3.2669,-3.2669,-3.2669,-3.2669,-3.2669,-3.2669,-3.2669,-3.2669,-3.3226,-3.4443,-3.427,-3.4715,-3.5904,-3.6424,-3.7014,-3.766,-3.7832,-3.8161,-3.8659,-3.9362,-3.9697,0.0,0.0,0.0,0.0,0.0,0.0,-3.7678,-3.7848,-3.7854,0.0,0.0,0.0,0.0,0.0,0.0,0.0,0.0,0.0,0.0,0.0,0.0,0.0,0.0,0.0,-3.9982,-3.9751,-3.9634,-3.9685,-3.9697,-3.9697,-3.9697,-3.9697,-3.9697,-3.9697,-3.9697,-3.9697,-3.9697,-3.9697,-3.9697,-3.9697,-3.9697,-3.9697,-3.9697,-3.9697,-3.9697,-3.9697,-3.9697,-3.9697,-3.9697,-3.9697,-3.9697,-3.9697,-3.9697,-3.9697,-3.9478,-3.734,-3.6511,-3.6088,-3.3976,-3.3115,-3.2898,-3.2898,-3.2784,-3.2669,-3.2669,-3.2669,-3.2669,-3.2669,-3.2669,-3.2669,-3.2669,-3.2669,-3.2669,-3.2669,-3.2669,-3.2669,-3.2669,-3.2669,-3.2669,-3.2669,-3.2669,-3.2669,-3.2669,-3.2669,-3.2669,-3.2669,-3.2669,-3.2669,-3.2669,-3.2669,-3.2669,-3.2669,-3.2669,-3.2669,-3.2669,-3.2669,-3.2747,-3.2903,-3.2903,-3.347,-3.4837,-3.5757,-3.6732,-3.787,-3.8962,-3.9549,-3.9697,-3.8607,-3.8659,-3.9697,-3.9697,-3.9697,0.0,0.0,0.0,0.0,0.0,0.0,-3.7155,-3.7365,-3.7564,0.0,0.0,0.0,0.0,0.0,0.0,0.0,0.0,0.0,0.0,0.0,0.0,0.0,0.0,0.0,-3.9083,-3.9082,-3.922,-3.9659,-3.9697,-3.9697,-3.9697,-3.9697,-3.9697,-3.9697,-3.9697,-3.9697,-3.9697,-3.9697,-3.9697,-3.9697,-3.9697,-3.9697,-3.9697,-3.9697,-3.9697,-3.9697,-3.9697,-3.9697,-3.9697,-3.9697,-3.9697,-3.9697,-3.9697,-3.9697,-3.9633,-3.9206,-3.8372,-3.7501,-3.7019,-3.5663,-3.4145,-3.4145,-3.3491,-3.2669,-3.2669,-3.2669,-3.2669,-3.2669,-3.2669,-3.2669,-3.2669,-3.2669,-3.2669,-3.2669,-3.2669,-3.2669,-3.2669,-3.2669,-3.2669,-3.2669,-3.2669,-3.2669,-3.2669,-3.2669,-3.2669,-3.2669,-3.2669,-3.2669,-3.2669,-3.2669,-3.2669,-3.2669,-3.2669,-3.2669,-3.2669,-3.2669,-3.3137,-3.4108,-3.4118,-3.5095,-3.7132,-3.6582,-3.6765,-3.7887,-3.8101,-3.8705,-3.9697,-3.9478,-3.9478,-3.9697,-3.9697,-3.9697,0.0,0.0,0.0,-3.5037,0.0,0.0,0.0,-3.6767,-3.6972,-3.7256,0.0,0.0,0.0,0.0,0.0,0.0,0.0,0.0,0.0,0.0,0.0,0.0,0.0,0.0,-3.8417,-3.8442,-3.8555,-3.8831,-3.912,-3.9283,-3.9283,-3.9546,-3.9697,-3.9697,-3.9697,-3.9697,-3.9697,-3.9697,-3.9697,-3.9697,-3.9697,-3.9697,-3.9697,-3.9697,-3.9697,-3.9697,-3.9697,-3.9697,-3.9697,-3.9697,-3.9697,-3.9697,-3.9697,-3.9697,-3.9581,-3.8384,-3.7554,-3.69,-3.5717,-3.458,-3.3604,-3.3604,-3.3161,-3.2784,-3.3445,-3.3604,-3.3491,-3.2898,-3.2669,-3.2669,-3.2669,-3.2669,-3.2669,-3.2669,-3.2669,-3.2669,-3.2669,-3.2669,-3.2669,-3.2669,-3.2669,-3.2669,-3.2669,-3.2669,-3.2669,-3.2669,-3.2669,-3.2669,-3.2669,-3.2669,-3.2669,-3.2669,-3.2669,-3.2669,-3.2669,-3.3226,-3.3862,-3.4443,-3.5002,-3.6131,-3.7824,-3.7331,-3.7618,-3.8743,-3.8832,-3.9111,-3.9697,-3.9697,-3.9697,-3.9697,-3.9697,-3.9697,0.0,0.0,0.0,0.0,0.0,-3.4866,0.0,0.0,0.0,-3.69,0.0,0.0,0.0,0.0,0.0,0.0,0.0,0.0,0.0,0.0,0.0,0.0,0.0,0.0,0.0,-3.7939,-3.8002,-3.8002,-3.8442,-3.8705,-3.8705,-3.9132,-3.9371,-3.9371,-3.9484,-3.9534,-3.9534,-3.9647,-3.9697,-3.9697,-3.9697,-3.9697,-3.9697,-3.9697,-3.9697,-3.9697,-3.9697,-3.9697,-3.9697,-3.9697,-3.9697,-3.9697,-3.9697,-3.9697,-3.9465,-3.7554,-3.6846,-3.6576,-3.4692,-3.3762,-3.3378,-3.3378,-3.3058,-3.2898,-3.3875,-3.4145,-3.3931,-3.2944,-3.2669,-3.2669,-3.2669,-3.2669,-3.2669,-3.2669,-3.2669,-3.2669,-3.2669,-3.2669,-3.2669,-3.2669,-3.2669,-3.2669,-3.2669,-3.2669,-3.2669,-3.2669,-3.2669,-3.2669,-3.2669,-3.2669,-3.2669,-3.2669,-3.2669,-3.2669,-3.2669,-3.3616,-3.4258,-3.4512,-3.5359,-3.6362,-3.7532,-3.7557,-3.8136,-3.9347,-3.9347,-3.9451,-3.9697,-3.9697,-3.9697,-3.9697,-3.9697,-3.9697,0.0,0.0,0.0,0.0,-3.4212,0.0,0.0,0.0,-3.6095,-3.6654,0.0,0.0,0.0,0.0,0.0,0.0,0.0,0.0,0.0,0.0,0.0,0.0,0.0,0.0,0.0,-3.7713,-3.8002,-3.8002,-3.8065,-3.8103,-3.8103,-3.8165,-3.8203,-3.8203,-3.8693,-3.9007,-3.9007,-3.9446,-3.9697,-3.9697,-3.9697,-3.9697,-3.9697,-3.9697,-3.9697,-3.9697,-3.9697,-3.9697,-3.9697,-3.9697,-3.9697,-3.9697,-3.9697,-3.9697,-3.9697,-3.9413,-3.931,-3.9258,-3.8985,-3.7554,-3.5815,-3.5815,-3.4413,-3.2727,-3.2841,-3.2887,-3.2898,-3.2727,-3.2669,-3.2669,-3.2669,-3.2669,-3.2669,-3.2669,-3.2669,-3.2669,-3.2669,-3.2669,-3.2669,-3.2669,-3.2669,-3.2669,-3.2669,-3.2669,-3.2669,-3.2669,-3.2669,-3.2669,-3.2669,-3.2669,-3.2669,-3.2669,-3.2669,-3.2669,-3.2669,-3.2825,-3.336,-3.4416,-3.463,-3.5195,-3.6365,-3.6397,-3.69,-3.8065,-3.8118,-3.8611,-3.9697,-3.9697,-3.9697,-3.9697,-3.9697,-3.9697,0.0,0.0,0.0,0.0,0.0,0.0,-3.4432,0.0,-3.4962,0.0,0.0,0.0,0.0,0.0,0.0,0.0,-3.6452,0.0,0.0,0.0,0.0,0.0,0.0,0.0,0.0,0.0,0.0,0.0,-3.7349,-3.7525,-3.7525,-3.7839,-3.8002,-3.8002,-3.8241,-3.8366,-3.8366,-3.8605,-3.8718,-3.8718,-3.8718,-3.8718,-3.873,-3.9069,-3.922,-3.9233,-3.9546,-3.9697,-3.9697,-3.9697,-3.9697,-3.9697,-3.9697,-3.9697,-3.9633,-3.8921,-3.8214,-3.7554,-3.6911,-3.5564,-3.419,-3.419,-3.3976,-3.3604,-3.2898,-3.3172,-3.3604,-3.2898,-3.2669,-3.2669,-3.2669,-3.2669,-3.2669,-3.2669,-3.2669,-3.2669,-3.2669,-3.2669,-3.2669,-3.2669,-3.2669,-3.2669,-3.2669,-3.2669,-3.2669,-3.2669,-3.2669,-3.2669,-3.2669,-3.2669,-3.2669,-3.2669,-3.2669,-3.2669,-3.2669,-3.3314,-3.3983,-3.4477,-3.5762,-3.6687,-3.7191,-3.7846,-3.8461,-3.8955,-3.8955,-3.9203,-3.9697,-3.9697,-3.9697,-3.9697,-3.9697,-3.9697,-3.4717,0.0,0.0,0.0,0.0,0.0,0.0,0.0,0.0,0.0,0.0,0.0,0.0,0.0,0.0,0.0,0.0,-3.6194,0.0,0.0,0.0,0.0,0.0,0.0,0.0,0.0,0.0,-3.6405,-3.6782,-3.696,-3.696,-3.7337,-3.755,-3.755,-3.7701,-3.7789,-3.7789,-3.7939,-3.8002,-3.8002,-3.8002,-3.8002,-3.8015,-3.8442,-3.863,-3.8655,-3.9057,-3.9233,-3.9233,-3.9233,-3.9233,-3.9233,-3.9233,-3.9067,-3.8733,-3.8105,-3.718,-3.6077,-3.5223,-3.4201,-3.3172,-3.2784,-3.3275,-3.3818,-3.2955,-3.3332,-3.3818,-3.2944,-3.2669,-3.2669,-3.2669,-3.2669,-3.2669,-3.2669,-3.2669,-3.2669,-3.2669,-3.2669,-3.2669,-3.2669,-3.2669,-3.2669,-3.2669,-3.2669,-3.2669,-3.2669,-3.2669,-3.2669,-3.2669,-3.2669,-3.2669,-3.2669,-3.2669,-3.2669,-3.2669,-3.347,-3.4164,-3.4458,-3.6043,-3.7126,-3.7441,-3.8279,-3.8868,-3.9206,-3.9206,-3.9362,-3.9697,-3.9697,-3.9697,-3.9697,-3.9697,-3.9697,0.0,0.0,0.0,-3.401,0.0,0.0,0.0,0.0,-3.406,0.0,0.0,0.0,0.0,0.0,0.0,0.0,0.0,0.0,0.0,0.0,0.0,0.0,0.0,0.0,0.0,0.0,0.0,-3.6405,-3.643,-3.643,-3.643,-3.6455,-3.6455,-3.6455,-3.6923,-3.7211,-3.7211,-3.7739,-3.8002,-3.8002,-3.8002,-3.8002,-3.8002,-3.8027,-3.804,-3.804,-3.8052,-3.8052,-3.8052,-3.8052,-3.8052,-3.8052,-3.8052,-3.7443,-3.6633,-3.7565,-3.718,-3.6185,-3.6131,-3.5388,-3.4256,-3.3058,-3.2727,-3.2727,-3.2727,-3.2727,-3.2727,-3.2727,-3.2669,-3.2669,-3.2669,-3.2669,-3.2669,-3.2669,-3.2669,-3.2669,-3.2669,-3.2669,-3.2669,-3.2669,-3.2669,-3.2669,-3.2669,-3.2669,-3.2669,-3.2669,-3.2669,-3.2669,-3.2669,-3.2669,-3.2669,-3.2669,-3.2669,-3.2669,-3.2669,-3.2747,-3.3268,-3.4411,-3.4562,-3.512,-3.6217,-3.6275,-3.6846,-3.795,-3.795,-3.8542,-3.9697,-3.9697,-3.9697,-3.9697,-3.9697,-3.9697,0.0,0.0,-3.5006,-3.4123,0.0,0.0,0.0,0.0,0.0,0.0,0.0,0.0,0.0,0.0,0.0,0.0,0.0,0.0,0.0,0.0,0.0,0.0,0.0,0.0,0.0,0.0,0.0,-3.6405,-3.6405,-3.6405,-3.6405,-3.6405,-3.6405,-3.6405,-3.6593,-3.6681,-3.6681,-3.687,-3.6923,-3.6923,-3.6923,-3.6923,-3.6923,-3.7299,-3.7462,-3.7475,-3.7852,-3.8002,-3.8002,-3.8002,-3.8002,-3.8002,-3.8002,-3.6856,-3.5402,-3.649,-3.5725,-3.4081,-3.3605,-3.3394,-3.3218,-3.2841,-3.2669,-3.2669,-3.2669,-3.2669,-3.2669,-3.2669,-3.2669,-3.2669,-3.2669,-3.2669,-3.2669,-3.2669,-3.2669,-3.2669,-3.2669,-3.2669,-3.2669,-3.2669,-3.2669,-3.2669,-3.2669,-3.2669,-3.2669,-3.2669,-3.2669,-3.2669,-3.2669,-3.2669,-3.2669,-3.2669,-3.2669,-3.2669,-3.2669,-3.3445,-3.4406,-3.5529,-3.6351,-3.6911,-3.7329,-3.8113,-3.8712,-3.9089,-3.9089,-3.931,-3.9697,-3.9697,-3.9697,-3.9697,-3.9697,-3.9697,-3.5931,-3.583,0.0,-3.4462,-3.4198,0.0,-3.3257,0.0,0.0,0.0,0.0,0.0,0.0,0.0,0.0,0.0,0.0,0.0,0.0,-3.468,0.0,0.0,0.0,0.0,0.0,0.0,-3.6157,-3.6392,-3.6405,-3.6405,0.0,0.0,-3.6405,-3.6405,-3.6405,-3.6405,-3.6405,-3.6405,-3.6405,-3.6405,-3.6405,-3.6405,-3.6417,-3.6782,-3.6933,-3.691,-3.7262,-3.7425,-3.7425,-3.7425,-3.7425,-3.7425,-3.7425,-3.6344,-3.4801,-3.5534,-3.438,-3.2448,-3.1968,-3.2002,-3.225,-3.225,-3.2354,-3.2432,-3.2432,-3.2545,-3.2669,-3.2669,-3.2669,-3.2669,-3.2669,-3.2669,-3.2669,-3.2669,-3.2669,-3.2669,-3.2669,-3.2669,-3.2669,-3.2669,-3.2669,-3.2669,-3.2669,-3.2669,-3.2669,-3.2669,-3.2669,-3.2669,-3.2669,-3.2669,-3.2669,-3.2669,-3.2669,-3.2877,-3.3325,-3.4067,-3.5155,-3.672,-3.7512,-3.8087,-3.8489,-3.931,-3.9597,-3.9408,-3.9597,-3.9597,-3.9396,-3.9597,-3.9697,-3.9697,-3.9697,-3.9697]}]]